<?xml version="1.0" encoding="UTF-8" standalone="no" ?>
<gpx xmlns="http://www.topografix.com/GPX/1/1" xmlns:xsi="http://www.w3.org/2001/XMLSchema-instance" xsi:schemaLocation="http://www.topografix.com/GPX/1/1 http://www.topografix.com/GPX/1/1/gpx.xsd" version="1.1" creator="VisuGPX - https://www.visugpx.com">
  <metadata>
    <name>Sortie musclés à Lyons la Foret 14/05</name>
    <desc><![CDATA[Une belle sortie avec Alexandre Cure (on ne le présente plus) Christopher (qualifié pour le championnat du Monde XTerra à Hawaï) et Edouard qui a explosé sa roue avant....]]></desc>
  </metadata>
  <trk>
    <name><![CDATA[Actuel: 14 JUIN 2015 09:01]]></name>
    <trkseg>
      <trkpt lat="49.39932" lon="1.47895">
        <ele>96.67</ele>
        <time>2015-06-14T07:01:18Z</time>
      </trkpt>
      <trkpt lat="49.39932" lon="1.47902">
        <ele>128.57</ele>
        <time>2015-06-14T07:01:20Z</time>
      </trkpt>
      <trkpt lat="49.39942" lon="1.47908">
        <ele>97.13</ele>
        <time>2015-06-14T07:01:22Z</time>
      </trkpt>
      <trkpt lat="49.39933" lon="1.47902">
        <ele>97.09</ele>
        <time>2015-06-14T07:01:24Z</time>
      </trkpt>
      <trkpt lat="49.39935" lon="1.47905">
        <ele>96.75</ele>
        <time>2015-06-14T07:01:40Z</time>
      </trkpt>
      <trkpt lat="49.3993" lon="1.47899">
        <ele>96.07</ele>
        <time>2015-06-14T07:02:35Z</time>
      </trkpt>
      <trkpt lat="49.39924" lon="1.47904">
        <ele>95.99</ele>
        <time>2015-06-14T07:03:24Z</time>
      </trkpt>
      <trkpt lat="49.39911" lon="1.47912">
        <ele>96.26</ele>
        <time>2015-06-14T07:03:31Z</time>
      </trkpt>
      <trkpt lat="49.39909" lon="1.47912">
        <ele>96.23</ele>
        <time>2015-06-14T07:03:32Z</time>
      </trkpt>
      <trkpt lat="49.39907" lon="1.47909">
        <ele>96.25</ele>
        <time>2015-06-14T07:03:33Z</time>
      </trkpt>
      <trkpt lat="49.39902" lon="1.47903">
        <ele>96.48</ele>
        <time>2015-06-14T07:03:36Z</time>
      </trkpt>
      <trkpt lat="49.39903" lon="1.47901">
        <ele>96.51</ele>
        <time>2015-06-14T07:03:37Z</time>
      </trkpt>
      <trkpt lat="49.39904" lon="1.47899">
        <ele>96.54</ele>
        <time>2015-06-14T07:03:38Z</time>
      </trkpt>
      <trkpt lat="49.39904" lon="1.47895">
        <ele>96.64</ele>
        <time>2015-06-14T07:03:39Z</time>
      </trkpt>
      <trkpt lat="49.39904" lon="1.47891">
        <ele>96.56</ele>
        <time>2015-06-14T07:03:40Z</time>
      </trkpt>
      <trkpt lat="49.39905" lon="1.47886">
        <ele>96.41</ele>
        <time>2015-06-14T07:03:41Z</time>
      </trkpt>
      <trkpt lat="49.39907" lon="1.4788">
        <ele>96.05</ele>
        <time>2015-06-14T07:03:42Z</time>
      </trkpt>
      <trkpt lat="49.3991" lon="1.47875">
        <ele>95.63</ele>
        <time>2015-06-14T07:03:43Z</time>
      </trkpt>
      <trkpt lat="49.39914" lon="1.47872">
        <ele>95.4</ele>
        <time>2015-06-14T07:03:44Z</time>
      </trkpt>
      <trkpt lat="49.39918" lon="1.47867">
        <ele>95.11</ele>
        <time>2015-06-14T07:03:45Z</time>
      </trkpt>
      <trkpt lat="49.39949" lon="1.47839">
        <ele>91.73</ele>
        <time>2015-06-14T07:03:51Z</time>
      </trkpt>
      <trkpt lat="49.39954" lon="1.47827">
        <ele>90.42</ele>
        <time>2015-06-14T07:03:54Z</time>
      </trkpt>
      <trkpt lat="49.39953" lon="1.47822">
        <ele>90.35</ele>
        <time>2015-06-14T07:03:55Z</time>
      </trkpt>
      <trkpt lat="49.39952" lon="1.47818">
        <ele>90.3</ele>
        <time>2015-06-14T07:03:56Z</time>
      </trkpt>
      <trkpt lat="49.39949" lon="1.47813">
        <ele>90.21</ele>
        <time>2015-06-14T07:03:57Z</time>
      </trkpt>
      <trkpt lat="49.39946" lon="1.47808">
        <ele>90.21</ele>
        <time>2015-06-14T07:03:58Z</time>
      </trkpt>
      <trkpt lat="49.39934" lon="1.47789">
        <ele>90.64</ele>
        <time>2015-06-14T07:04:02Z</time>
      </trkpt>
      <trkpt lat="49.39932" lon="1.47784">
        <ele>90.81</ele>
        <time>2015-06-14T07:04:03Z</time>
      </trkpt>
      <trkpt lat="49.39932" lon="1.47779">
        <ele>90.88</ele>
        <time>2015-06-14T07:04:04Z</time>
      </trkpt>
      <trkpt lat="49.39933" lon="1.47774">
        <ele>90.94</ele>
        <time>2015-06-14T07:04:05Z</time>
      </trkpt>
      <trkpt lat="49.39936" lon="1.47769">
        <ele>90.94</ele>
        <time>2015-06-14T07:04:06Z</time>
      </trkpt>
      <trkpt lat="49.39939" lon="1.47764">
        <ele>90.77</ele>
        <time>2015-06-14T07:04:07Z</time>
      </trkpt>
      <trkpt lat="49.39943" lon="1.47759">
        <ele>90.61</ele>
        <time>2015-06-14T07:04:08Z</time>
      </trkpt>
      <trkpt lat="49.39947" lon="1.47754">
        <ele>90.45</ele>
        <time>2015-06-14T07:04:09Z</time>
      </trkpt>
      <trkpt lat="49.39958" lon="1.47713">
        <ele>89.78</ele>
        <time>2015-06-14T07:04:20Z</time>
      </trkpt>
      <trkpt lat="49.39955" lon="1.47712">
        <ele>90.1</ele>
        <time>2015-06-14T07:04:21Z</time>
      </trkpt>
      <trkpt lat="49.39924" lon="1.47676">
        <ele>92.15</ele>
        <time>2015-06-14T07:04:38Z</time>
      </trkpt>
      <trkpt lat="49.39923" lon="1.47678">
        <ele>92.14</ele>
        <time>2015-06-14T07:04:39Z</time>
      </trkpt>
      <trkpt lat="49.39922" lon="1.47679">
        <ele>92.25</ele>
        <time>2015-06-14T07:04:40Z</time>
      </trkpt>
      <trkpt lat="49.39919" lon="1.47679">
        <ele>92.31</ele>
        <time>2015-06-14T07:04:41Z</time>
      </trkpt>
      <trkpt lat="49.39917" lon="1.47679">
        <ele>92.31</ele>
        <time>2015-06-14T07:04:42Z</time>
      </trkpt>
      <trkpt lat="49.39913" lon="1.47679">
        <ele>92.38</ele>
        <time>2015-06-14T07:04:43Z</time>
      </trkpt>
      <trkpt lat="49.3991" lon="1.47678">
        <ele>92.47</ele>
        <time>2015-06-14T07:04:44Z</time>
      </trkpt>
      <trkpt lat="49.39907" lon="1.47677">
        <ele>92.56</ele>
        <time>2015-06-14T07:04:45Z</time>
      </trkpt>
      <trkpt lat="49.39904" lon="1.47676">
        <ele>92.69</ele>
        <time>2015-06-14T07:04:46Z</time>
      </trkpt>
      <trkpt lat="49.39901" lon="1.47675">
        <ele>92.84</ele>
        <time>2015-06-14T07:04:47Z</time>
      </trkpt>
      <trkpt lat="49.39855" lon="1.47685">
        <ele>94.31</ele>
        <time>2015-06-14T07:05:02Z</time>
      </trkpt>
      <trkpt lat="49.39812" lon="1.47729">
        <ele>96.14</ele>
        <time>2015-06-14T07:05:16Z</time>
      </trkpt>
      <trkpt lat="49.39803" lon="1.47727">
        <ele>96.42</ele>
        <time>2015-06-14T07:05:19Z</time>
      </trkpt>
      <trkpt lat="49.39801" lon="1.47723">
        <ele>96.61</ele>
        <time>2015-06-14T07:05:20Z</time>
      </trkpt>
      <trkpt lat="49.39789" lon="1.47663">
        <ele>96.03</ele>
        <time>2015-06-14T07:05:31Z</time>
      </trkpt>
      <trkpt lat="49.3979" lon="1.47625">
        <ele>94.77</ele>
        <time>2015-06-14T07:05:36Z</time>
      </trkpt>
      <trkpt lat="49.39791" lon="1.47616">
        <ele>94.63</ele>
        <time>2015-06-14T07:05:37Z</time>
      </trkpt>
      <trkpt lat="49.39792" lon="1.47607">
        <ele>94.5</ele>
        <time>2015-06-14T07:05:38Z</time>
      </trkpt>
      <trkpt lat="49.39796" lon="1.47569">
        <ele>93.46</ele>
        <time>2015-06-14T07:05:44Z</time>
      </trkpt>
      <trkpt lat="49.39795" lon="1.47566">
        <ele>93.31</ele>
        <time>2015-06-14T07:05:45Z</time>
      </trkpt>
      <trkpt lat="49.39791" lon="1.47565">
        <ele>93.12</ele>
        <time>2015-06-14T07:05:46Z</time>
      </trkpt>
      <trkpt lat="49.39788" lon="1.47565">
        <ele>92.97</ele>
        <time>2015-06-14T07:05:47Z</time>
      </trkpt>
      <trkpt lat="49.39785" lon="1.47564">
        <ele>92.9</ele>
        <time>2015-06-14T07:05:48Z</time>
      </trkpt>
      <trkpt lat="49.39783" lon="1.47562">
        <ele>92.87</ele>
        <time>2015-06-14T07:05:49Z</time>
      </trkpt>
      <trkpt lat="49.39781" lon="1.47558">
        <ele>92.85</ele>
        <time>2015-06-14T07:05:50Z</time>
      </trkpt>
      <trkpt lat="49.3978" lon="1.47552">
        <ele>92.61</ele>
        <time>2015-06-14T07:05:51Z</time>
      </trkpt>
      <trkpt lat="49.39782" lon="1.47545">
        <ele>92.48</ele>
        <time>2015-06-14T07:05:52Z</time>
      </trkpt>
      <trkpt lat="49.39783" lon="1.47539">
        <ele>92.52</ele>
        <time>2015-06-14T07:05:53Z</time>
      </trkpt>
      <trkpt lat="49.39784" lon="1.47533">
        <ele>92.13</ele>
        <time>2015-06-14T07:05:54Z</time>
      </trkpt>
      <trkpt lat="49.39791" lon="1.47517">
        <ele>91.38</ele>
        <time>2015-06-14T07:05:57Z</time>
      </trkpt>
      <trkpt lat="49.39792" lon="1.4751">
        <ele>91.32</ele>
        <time>2015-06-14T07:05:58Z</time>
      </trkpt>
      <trkpt lat="49.39793" lon="1.47486">
        <ele>90.87</ele>
        <time>2015-06-14T07:06:01Z</time>
      </trkpt>
      <trkpt lat="49.3979" lon="1.47465">
        <ele>90.68</ele>
        <time>2015-06-14T07:06:04Z</time>
      </trkpt>
      <trkpt lat="49.39775" lon="1.47431">
        <ele>89.32</ele>
        <time>2015-06-14T07:06:09Z</time>
      </trkpt>
      <trkpt lat="49.39771" lon="1.47424">
        <ele>89.18</ele>
        <time>2015-06-14T07:06:10Z</time>
      </trkpt>
      <trkpt lat="49.39756" lon="1.47391">
        <ele>90.59</ele>
        <time>2015-06-14T07:06:16Z</time>
      </trkpt>
      <trkpt lat="49.39753" lon="1.47387">
        <ele>90.78</ele>
        <time>2015-06-14T07:06:17Z</time>
      </trkpt>
      <trkpt lat="49.3975" lon="1.47384">
        <ele>91.26</ele>
        <time>2015-06-14T07:06:18Z</time>
      </trkpt>
      <trkpt lat="49.39737" lon="1.47358">
        <ele>94.73</ele>
        <time>2015-06-14T07:06:26Z</time>
      </trkpt>
      <trkpt lat="49.39733" lon="1.47324">
        <ele>97.89</ele>
        <time>2015-06-14T07:06:37Z</time>
      </trkpt>
      <trkpt lat="49.39727" lon="1.47286">
        <ele>101.16</ele>
        <time>2015-06-14T07:06:47Z</time>
      </trkpt>
      <trkpt lat="49.39734" lon="1.47233">
        <ele>104.17</ele>
        <time>2015-06-14T07:07:00Z</time>
      </trkpt>
      <trkpt lat="49.39721" lon="1.47144">
        <ele>104.08</ele>
        <time>2015-06-14T07:07:18Z</time>
      </trkpt>
      <trkpt lat="49.39703" lon="1.47049">
        <ele>103.18</ele>
        <time>2015-06-14T07:07:32Z</time>
      </trkpt>
      <trkpt lat="49.39691" lon="1.4699">
        <ele>99.08</ele>
        <time>2015-06-14T07:07:39Z</time>
      </trkpt>
      <trkpt lat="49.39689" lon="1.46974">
        <ele>96.75</ele>
        <time>2015-06-14T07:07:41Z</time>
      </trkpt>
      <trkpt lat="49.39684" lon="1.46936">
        <ele>93.13</ele>
        <time>2015-06-14T07:07:46Z</time>
      </trkpt>
      <trkpt lat="49.39675" lon="1.46902">
        <ele>90.43</ele>
        <time>2015-06-14T07:07:51Z</time>
      </trkpt>
      <trkpt lat="49.3967" lon="1.46882">
        <ele>88.16</ele>
        <time>2015-06-14T07:07:55Z</time>
      </trkpt>
      <trkpt lat="49.39651" lon="1.46835">
        <ele>85.12</ele>
        <time>2015-06-14T07:08:04Z</time>
      </trkpt>
      <trkpt lat="49.39646" lon="1.4682">
        <ele>83.4</ele>
        <time>2015-06-14T07:08:09Z</time>
      </trkpt>
      <trkpt lat="49.39645" lon="1.46816">
        <ele>83.3</ele>
        <time>2015-06-14T07:08:13Z</time>
      </trkpt>
      <trkpt lat="49.39642" lon="1.4681">
        <ele>83.23</ele>
        <time>2015-06-14T07:08:19Z</time>
      </trkpt>
      <trkpt lat="49.3964" lon="1.4681">
        <ele>82.64</ele>
        <time>2015-06-14T07:08:20Z</time>
      </trkpt>
      <trkpt lat="49.3964" lon="1.46807">
        <ele>82.2</ele>
        <time>2015-06-14T07:08:21Z</time>
      </trkpt>
      <trkpt lat="49.39638" lon="1.46805">
        <ele>81.76</ele>
        <time>2015-06-14T07:08:22Z</time>
      </trkpt>
      <trkpt lat="49.39635" lon="1.46803">
        <ele>81.37</ele>
        <time>2015-06-14T07:08:23Z</time>
      </trkpt>
      <trkpt lat="49.39633" lon="1.46797">
        <ele>80.98</ele>
        <time>2015-06-14T07:08:24Z</time>
      </trkpt>
      <trkpt lat="49.3963" lon="1.46793">
        <ele>80.22</ele>
        <time>2015-06-14T07:08:25Z</time>
      </trkpt>
      <trkpt lat="49.39626" lon="1.4679">
        <ele>79.51</ele>
        <time>2015-06-14T07:08:26Z</time>
      </trkpt>
      <trkpt lat="49.39623" lon="1.46789">
        <ele>79.06</ele>
        <time>2015-06-14T07:08:27Z</time>
      </trkpt>
      <trkpt lat="49.3962" lon="1.46787">
        <ele>78.54</ele>
        <time>2015-06-14T07:08:28Z</time>
      </trkpt>
      <trkpt lat="49.39618" lon="1.46785">
        <ele>78.11</ele>
        <time>2015-06-14T07:08:29Z</time>
      </trkpt>
      <trkpt lat="49.39618" lon="1.46781">
        <ele>77.77</ele>
        <time>2015-06-14T07:08:30Z</time>
      </trkpt>
      <trkpt lat="49.3962" lon="1.46775">
        <ele>77.42</ele>
        <time>2015-06-14T07:08:31Z</time>
      </trkpt>
      <trkpt lat="49.39623" lon="1.46768">
        <ele>77.22</ele>
        <time>2015-06-14T07:08:32Z</time>
      </trkpt>
      <trkpt lat="49.39628" lon="1.4676">
        <ele>76.88</ele>
        <time>2015-06-14T07:08:33Z</time>
      </trkpt>
      <trkpt lat="49.39631" lon="1.46752">
        <ele>76.25</ele>
        <time>2015-06-14T07:08:34Z</time>
      </trkpt>
      <trkpt lat="49.39636" lon="1.46745">
        <ele>75.68</ele>
        <time>2015-06-14T07:08:35Z</time>
      </trkpt>
      <trkpt lat="49.39642" lon="1.46738">
        <ele>75.12</ele>
        <time>2015-06-14T07:08:36Z</time>
      </trkpt>
      <trkpt lat="49.39667" lon="1.46708">
        <ele>71.92</ele>
        <time>2015-06-14T07:08:40Z</time>
      </trkpt>
      <trkpt lat="49.39682" lon="1.46692">
        <ele>69.47</ele>
        <time>2015-06-14T07:08:43Z</time>
      </trkpt>
      <trkpt lat="49.39687" lon="1.46689">
        <ele>69</ele>
        <time>2015-06-14T07:08:44Z</time>
      </trkpt>
      <trkpt lat="49.39692" lon="1.46687">
        <ele>68.67</ele>
        <time>2015-06-14T07:08:45Z</time>
      </trkpt>
      <trkpt lat="49.39696" lon="1.46687">
        <ele>68.42</ele>
        <time>2015-06-14T07:08:46Z</time>
      </trkpt>
      <trkpt lat="49.39701" lon="1.46689">
        <ele>68.28</ele>
        <time>2015-06-14T07:08:47Z</time>
      </trkpt>
      <trkpt lat="49.39707" lon="1.46692">
        <ele>68.19</ele>
        <time>2015-06-14T07:08:48Z</time>
      </trkpt>
      <trkpt lat="49.3976" lon="1.46714">
        <ele>68.81</ele>
        <time>2015-06-14T07:08:58Z</time>
      </trkpt>
      <trkpt lat="49.39809" lon="1.46718">
        <ele>68.48</ele>
        <time>2015-06-14T07:09:08Z</time>
      </trkpt>
      <trkpt lat="49.39813" lon="1.46714">
        <ele>68.61</ele>
        <time>2015-06-14T07:09:09Z</time>
      </trkpt>
      <trkpt lat="49.39816" lon="1.46708">
        <ele>68.8</ele>
        <time>2015-06-14T07:09:10Z</time>
      </trkpt>
      <trkpt lat="49.39818" lon="1.46702">
        <ele>68.86</ele>
        <time>2015-06-14T07:09:11Z</time>
      </trkpt>
      <trkpt lat="49.39821" lon="1.46697">
        <ele>68.83</ele>
        <time>2015-06-14T07:09:12Z</time>
      </trkpt>
      <trkpt lat="49.39824" lon="1.46692">
        <ele>68.77</ele>
        <time>2015-06-14T07:09:13Z</time>
      </trkpt>
      <trkpt lat="49.39867" lon="1.4666">
        <ele>69.9</ele>
        <time>2015-06-14T07:09:25Z</time>
      </trkpt>
      <trkpt lat="49.39903" lon="1.46644">
        <ele>73.14</ele>
        <time>2015-06-14T07:09:37Z</time>
      </trkpt>
      <trkpt lat="49.39935" lon="1.4665">
        <ele>76.26</ele>
        <time>2015-06-14T07:09:48Z</time>
      </trkpt>
      <trkpt lat="49.39963" lon="1.46665">
        <ele>79.42</ele>
        <time>2015-06-14T07:09:58Z</time>
      </trkpt>
      <trkpt lat="49.39989" lon="1.4668">
        <ele>82.5</ele>
        <time>2015-06-14T07:10:09Z</time>
      </trkpt>
      <trkpt lat="49.40013" lon="1.46693">
        <ele>85.71</ele>
        <time>2015-06-14T07:10:19Z</time>
      </trkpt>
      <trkpt lat="49.40033" lon="1.46721">
        <ele>88.85</ele>
        <time>2015-06-14T07:10:30Z</time>
      </trkpt>
      <trkpt lat="49.40054" lon="1.46736">
        <ele>92.1</ele>
        <time>2015-06-14T07:10:42Z</time>
      </trkpt>
      <trkpt lat="49.40076" lon="1.46746">
        <ele>95.21</ele>
        <time>2015-06-14T07:10:53Z</time>
      </trkpt>
      <trkpt lat="49.40092" lon="1.46758">
        <ele>98.5</ele>
        <time>2015-06-14T07:11:03Z</time>
      </trkpt>
      <trkpt lat="49.40113" lon="1.46783">
        <ele>101.56</ele>
        <time>2015-06-14T07:11:13Z</time>
      </trkpt>
      <trkpt lat="49.40137" lon="1.46861">
        <ele>102.62</ele>
        <time>2015-06-14T07:11:33Z</time>
      </trkpt>
      <trkpt lat="49.40157" lon="1.4694">
        <ele>101.67</ele>
        <time>2015-06-14T07:11:47Z</time>
      </trkpt>
      <trkpt lat="49.40179" lon="1.47028">
        <ele>101.56</ele>
        <time>2015-06-14T07:12:02Z</time>
      </trkpt>
      <trkpt lat="49.402" lon="1.47112">
        <ele>102.04</ele>
        <time>2015-06-14T07:12:15Z</time>
      </trkpt>
      <trkpt lat="49.40199" lon="1.47188">
        <ele>98.58</ele>
        <time>2015-06-14T07:12:27Z</time>
      </trkpt>
      <trkpt lat="49.40195" lon="1.47202">
        <ele>97.1</ele>
        <time>2015-06-14T07:12:29Z</time>
      </trkpt>
      <trkpt lat="49.40194" lon="1.4721">
        <ele>95.91</ele>
        <time>2015-06-14T07:12:30Z</time>
      </trkpt>
      <trkpt lat="49.40189" lon="1.4723">
        <ele>92.67</ele>
        <time>2015-06-14T07:12:33Z</time>
      </trkpt>
      <trkpt lat="49.4019" lon="1.47264">
        <ele>89.14</ele>
        <time>2015-06-14T07:12:38Z</time>
      </trkpt>
      <trkpt lat="49.40187" lon="1.47275">
        <ele>87.67</ele>
        <time>2015-06-14T07:12:40Z</time>
      </trkpt>
      <trkpt lat="49.40185" lon="1.47278">
        <ele>86.85</ele>
        <time>2015-06-14T07:12:41Z</time>
      </trkpt>
      <trkpt lat="49.40183" lon="1.47279">
        <ele>85.77</ele>
        <time>2015-06-14T07:12:42Z</time>
      </trkpt>
      <trkpt lat="49.4018" lon="1.47279">
        <ele>84.58</ele>
        <time>2015-06-14T07:12:43Z</time>
      </trkpt>
      <trkpt lat="49.40177" lon="1.47278">
        <ele>83.55</ele>
        <time>2015-06-14T07:12:44Z</time>
      </trkpt>
      <trkpt lat="49.40173" lon="1.47278">
        <ele>82.15</ele>
        <time>2015-06-14T07:12:45Z</time>
      </trkpt>
      <trkpt lat="49.40169" lon="1.47279">
        <ele>81.13</ele>
        <time>2015-06-14T07:12:46Z</time>
      </trkpt>
      <trkpt lat="49.40166" lon="1.47283">
        <ele>80.36</ele>
        <time>2015-06-14T07:12:47Z</time>
      </trkpt>
      <trkpt lat="49.40163" lon="1.47286">
        <ele>79.52</ele>
        <time>2015-06-14T07:12:48Z</time>
      </trkpt>
      <trkpt lat="49.4016" lon="1.47289">
        <ele>78.53</ele>
        <time>2015-06-14T07:12:49Z</time>
      </trkpt>
      <trkpt lat="49.40157" lon="1.47292">
        <ele>77.52</ele>
        <time>2015-06-14T07:12:50Z</time>
      </trkpt>
      <trkpt lat="49.40144" lon="1.47314">
        <ele>75.07</ele>
        <time>2015-06-14T07:12:55Z</time>
      </trkpt>
      <trkpt lat="49.40084" lon="1.47332">
        <ele>72.85</ele>
        <time>2015-06-14T07:13:11Z</time>
      </trkpt>
      <trkpt lat="49.40062" lon="1.47334">
        <ele>72.86</ele>
        <time>2015-06-14T07:13:15Z</time>
      </trkpt>
      <trkpt lat="49.40057" lon="1.47334">
        <ele>72.86</ele>
        <time>2015-06-14T07:13:16Z</time>
      </trkpt>
      <trkpt lat="49.40005" lon="1.47338">
        <ele>73</ele>
        <time>2015-06-14T07:13:29Z</time>
      </trkpt>
      <trkpt lat="49.39958" lon="1.47341">
        <ele>73.66</ele>
        <time>2015-06-14T07:13:40Z</time>
      </trkpt>
      <trkpt lat="49.39912" lon="1.47324">
        <ele>75.3</ele>
        <time>2015-06-14T07:13:53Z</time>
      </trkpt>
      <trkpt lat="49.39898" lon="1.47298">
        <ele>78.42</ele>
        <time>2015-06-14T07:14:02Z</time>
      </trkpt>
      <trkpt lat="49.39895" lon="1.47296">
        <ele>78.62</ele>
        <time>2015-06-14T07:14:03Z</time>
      </trkpt>
      <trkpt lat="49.39893" lon="1.47297">
        <ele>78.9</ele>
        <time>2015-06-14T07:14:04Z</time>
      </trkpt>
      <trkpt lat="49.39891" lon="1.47301">
        <ele>79.27</ele>
        <time>2015-06-14T07:14:05Z</time>
      </trkpt>
      <trkpt lat="49.3989" lon="1.47306">
        <ele>79.56</ele>
        <time>2015-06-14T07:14:06Z</time>
      </trkpt>
      <trkpt lat="49.39889" lon="1.47311">
        <ele>79.75</ele>
        <time>2015-06-14T07:14:07Z</time>
      </trkpt>
      <trkpt lat="49.39889" lon="1.47316">
        <ele>79.79</ele>
        <time>2015-06-14T07:14:08Z</time>
      </trkpt>
      <trkpt lat="49.39856" lon="1.4735">
        <ele>81.93</ele>
        <time>2015-06-14T07:14:27Z</time>
      </trkpt>
      <trkpt lat="49.39827" lon="1.47371">
        <ele>85.05</ele>
        <time>2015-06-14T07:14:37Z</time>
      </trkpt>
      <trkpt lat="49.39819" lon="1.47393">
        <ele>86.55</ele>
        <time>2015-06-14T07:14:45Z</time>
      </trkpt>
      <trkpt lat="49.39816" lon="1.47393">
        <ele>86.78</ele>
        <time>2015-06-14T07:14:46Z</time>
      </trkpt>
      <trkpt lat="49.39814" lon="1.47392">
        <ele>87.01</ele>
        <time>2015-06-14T07:14:47Z</time>
      </trkpt>
      <trkpt lat="49.39812" lon="1.47394">
        <ele>87.02</ele>
        <time>2015-06-14T07:14:48Z</time>
      </trkpt>
      <trkpt lat="49.39811" lon="1.47396">
        <ele>87.13</ele>
        <time>2015-06-14T07:14:49Z</time>
      </trkpt>
      <trkpt lat="49.3981" lon="1.47399">
        <ele>87.28</ele>
        <time>2015-06-14T07:14:50Z</time>
      </trkpt>
      <trkpt lat="49.39809" lon="1.47404">
        <ele>87.35</ele>
        <time>2015-06-14T07:14:51Z</time>
      </trkpt>
      <trkpt lat="49.39806" lon="1.4741">
        <ele>87.32</ele>
        <time>2015-06-14T07:14:52Z</time>
      </trkpt>
      <trkpt lat="49.39803" lon="1.47417">
        <ele>87.4</ele>
        <time>2015-06-14T07:14:53Z</time>
      </trkpt>
      <trkpt lat="49.398" lon="1.475">
        <ele>90.16</ele>
        <time>2015-06-14T07:15:07Z</time>
      </trkpt>
      <trkpt lat="49.39776" lon="1.47568">
        <ele>92.4</ele>
        <time>2015-06-14T07:15:23Z</time>
      </trkpt>
      <trkpt lat="49.39754" lon="1.47585">
        <ele>95.69</ele>
        <time>2015-06-14T07:15:34Z</time>
      </trkpt>
      <trkpt lat="49.39733" lon="1.47601">
        <ele>98.88</ele>
        <time>2015-06-14T07:15:46Z</time>
      </trkpt>
      <trkpt lat="49.39711" lon="1.476">
        <ele>101.93</ele>
        <time>2015-06-14T07:15:59Z</time>
      </trkpt>
      <trkpt lat="49.39693" lon="1.47588">
        <ele>103.06</ele>
        <time>2015-06-14T07:16:09Z</time>
      </trkpt>
      <trkpt lat="49.39689" lon="1.47591">
        <ele>103.86</ele>
        <time>2015-06-14T07:16:14Z</time>
      </trkpt>
      <trkpt lat="49.39689" lon="1.47592">
        <ele>104.27</ele>
        <time>2015-06-14T07:16:15Z</time>
      </trkpt>
      <trkpt lat="49.39688" lon="1.47592">
        <ele>105.07</ele>
        <time>2015-06-14T07:16:17Z</time>
      </trkpt>
      <trkpt lat="49.39678" lon="1.47598">
        <ele>108.23</ele>
        <time>2015-06-14T07:16:26Z</time>
      </trkpt>
      <trkpt lat="49.39676" lon="1.47599">
        <ele>108.43</ele>
        <time>2015-06-14T07:16:27Z</time>
      </trkpt>
      <trkpt lat="49.39666" lon="1.47602">
        <ele>111.58</ele>
        <time>2015-06-14T07:16:36Z</time>
      </trkpt>
      <trkpt lat="49.39654" lon="1.47611">
        <ele>114.89</ele>
        <time>2015-06-14T07:16:46Z</time>
      </trkpt>
      <trkpt lat="49.39653" lon="1.47612">
        <ele>115.17</ele>
        <time>2015-06-14T07:16:47Z</time>
      </trkpt>
      <trkpt lat="49.39651" lon="1.47614">
        <ele>115.79</ele>
        <time>2015-06-14T07:16:49Z</time>
      </trkpt>
      <trkpt lat="49.39641" lon="1.47619">
        <ele>118.82</ele>
        <time>2015-06-14T07:16:58Z</time>
      </trkpt>
      <trkpt lat="49.39631" lon="1.47625">
        <ele>121.92</ele>
        <time>2015-06-14T07:17:08Z</time>
      </trkpt>
      <trkpt lat="49.39616" lon="1.47635">
        <ele>125.13</ele>
        <time>2015-06-14T07:17:20Z</time>
      </trkpt>
      <trkpt lat="49.396" lon="1.47641">
        <ele>128.4</ele>
        <time>2015-06-14T07:17:33Z</time>
      </trkpt>
      <trkpt lat="49.39582" lon="1.47642">
        <ele>131.64</ele>
        <time>2015-06-14T07:17:48Z</time>
      </trkpt>
      <trkpt lat="49.39568" lon="1.47652">
        <ele>134.8</ele>
        <time>2015-06-14T07:18:00Z</time>
      </trkpt>
      <trkpt lat="49.39559" lon="1.47664">
        <ele>135.22</ele>
        <time>2015-06-14T07:18:05Z</time>
      </trkpt>
      <trkpt lat="49.39559" lon="1.47666">
        <ele>135.08</ele>
        <time>2015-06-14T07:18:06Z</time>
      </trkpt>
      <trkpt lat="49.39561" lon="1.47669">
        <ele>135.28</ele>
        <time>2015-06-14T07:18:07Z</time>
      </trkpt>
      <trkpt lat="49.39562" lon="1.47673">
        <ele>135.23</ele>
        <time>2015-06-14T07:18:08Z</time>
      </trkpt>
      <trkpt lat="49.39564" lon="1.47678">
        <ele>134.99</ele>
        <time>2015-06-14T07:18:09Z</time>
      </trkpt>
      <trkpt lat="49.39566" lon="1.47682">
        <ele>134.93</ele>
        <time>2015-06-14T07:18:10Z</time>
      </trkpt>
      <trkpt lat="49.39569" lon="1.47687">
        <ele>134.98</ele>
        <time>2015-06-14T07:18:11Z</time>
      </trkpt>
      <trkpt lat="49.39572" lon="1.4769">
        <ele>134.87</ele>
        <time>2015-06-14T07:18:12Z</time>
      </trkpt>
      <trkpt lat="49.39575" lon="1.47693">
        <ele>134.6</ele>
        <time>2015-06-14T07:18:13Z</time>
      </trkpt>
      <trkpt lat="49.39579" lon="1.47699">
        <ele>134.3</ele>
        <time>2015-06-14T07:18:14Z</time>
      </trkpt>
      <trkpt lat="49.39583" lon="1.47705">
        <ele>134.03</ele>
        <time>2015-06-14T07:18:15Z</time>
      </trkpt>
      <trkpt lat="49.39586" lon="1.47711">
        <ele>133.64</ele>
        <time>2015-06-14T07:18:16Z</time>
      </trkpt>
      <trkpt lat="49.39587" lon="1.47719">
        <ele>133.32</ele>
        <time>2015-06-14T07:18:17Z</time>
      </trkpt>
      <trkpt lat="49.39588" lon="1.47726">
        <ele>133.38</ele>
        <time>2015-06-14T07:18:18Z</time>
      </trkpt>
      <trkpt lat="49.39587" lon="1.47731">
        <ele>134.02</ele>
        <time>2015-06-14T07:18:19Z</time>
      </trkpt>
      <trkpt lat="49.39587" lon="1.47736">
        <ele>134.49</ele>
        <time>2015-06-14T07:18:20Z</time>
      </trkpt>
      <trkpt lat="49.39586" lon="1.47742">
        <ele>134.9</ele>
        <time>2015-06-14T07:18:21Z</time>
      </trkpt>
      <trkpt lat="49.39586" lon="1.47748">
        <ele>135.21</ele>
        <time>2015-06-14T07:18:22Z</time>
      </trkpt>
      <trkpt lat="49.39573" lon="1.47819">
        <ele>137.51</ele>
        <time>2015-06-14T07:18:37Z</time>
      </trkpt>
      <trkpt lat="49.39561" lon="1.47896">
        <ele>138.01</ele>
        <time>2015-06-14T07:18:51Z</time>
      </trkpt>
      <trkpt lat="49.39557" lon="1.47932">
        <ele>138.46</ele>
        <time>2015-06-14T07:18:57Z</time>
      </trkpt>
      <trkpt lat="49.39551" lon="1.47951">
        <ele>138.39</ele>
        <time>2015-06-14T07:19:00Z</time>
      </trkpt>
      <trkpt lat="49.39549" lon="1.47958">
        <ele>138.3</ele>
        <time>2015-06-14T07:19:01Z</time>
      </trkpt>
      <trkpt lat="49.39548" lon="1.47964">
        <ele>138.25</ele>
        <time>2015-06-14T07:19:02Z</time>
      </trkpt>
      <trkpt lat="49.39547" lon="1.4797">
        <ele>138.3</ele>
        <time>2015-06-14T07:19:03Z</time>
      </trkpt>
      <trkpt lat="49.39544" lon="1.47977">
        <ele>138.35</ele>
        <time>2015-06-14T07:19:04Z</time>
      </trkpt>
      <trkpt lat="49.39543" lon="1.47985">
        <ele>138.42</ele>
        <time>2015-06-14T07:19:05Z</time>
      </trkpt>
      <trkpt lat="49.39543" lon="1.47994">
        <ele>138.39</ele>
        <time>2015-06-14T07:19:06Z</time>
      </trkpt>
      <trkpt lat="49.39539" lon="1.4802">
        <ele>138.54</ele>
        <time>2015-06-14T07:19:09Z</time>
      </trkpt>
      <trkpt lat="49.39533" lon="1.48031">
        <ele>137.94</ele>
        <time>2015-06-14T07:19:11Z</time>
      </trkpt>
      <trkpt lat="49.3953" lon="1.48035">
        <ele>137.91</ele>
        <time>2015-06-14T07:19:12Z</time>
      </trkpt>
      <trkpt lat="49.39526" lon="1.48038">
        <ele>137.71</ele>
        <time>2015-06-14T07:19:13Z</time>
      </trkpt>
      <trkpt lat="49.39522" lon="1.48039">
        <ele>137.6</ele>
        <time>2015-06-14T07:19:14Z</time>
      </trkpt>
      <trkpt lat="49.39518" lon="1.48041">
        <ele>137.73</ele>
        <time>2015-06-14T07:19:15Z</time>
      </trkpt>
      <trkpt lat="49.39511" lon="1.48045">
        <ele>137.66</ele>
        <time>2015-06-14T07:19:17Z</time>
      </trkpt>
      <trkpt lat="49.39507" lon="1.4805">
        <ele>137.67</ele>
        <time>2015-06-14T07:19:18Z</time>
      </trkpt>
      <trkpt lat="49.39505" lon="1.48057">
        <ele>137.31</ele>
        <time>2015-06-14T07:19:19Z</time>
      </trkpt>
      <trkpt lat="49.39503" lon="1.48064">
        <ele>136.77</ele>
        <time>2015-06-14T07:19:20Z</time>
      </trkpt>
      <trkpt lat="49.39501" lon="1.4807">
        <ele>136.34</ele>
        <time>2015-06-14T07:19:21Z</time>
      </trkpt>
      <trkpt lat="49.39497" lon="1.48076">
        <ele>135.55</ele>
        <time>2015-06-14T07:19:22Z</time>
      </trkpt>
      <trkpt lat="49.39493" lon="1.48082">
        <ele>134.66</ele>
        <time>2015-06-14T07:19:23Z</time>
      </trkpt>
      <trkpt lat="49.39491" lon="1.48088">
        <ele>133.78</ele>
        <time>2015-06-14T07:19:24Z</time>
      </trkpt>
      <trkpt lat="49.3948" lon="1.48102">
        <ele>132.15</ele>
        <time>2015-06-14T07:19:27Z</time>
      </trkpt>
      <trkpt lat="49.39476" lon="1.48106">
        <ele>131.43</ele>
        <time>2015-06-14T07:19:28Z</time>
      </trkpt>
      <trkpt lat="49.39473" lon="1.48111">
        <ele>130.62</ele>
        <time>2015-06-14T07:19:29Z</time>
      </trkpt>
      <trkpt lat="49.39474" lon="1.48119">
        <ele>130.01</ele>
        <time>2015-06-14T07:19:30Z</time>
      </trkpt>
      <trkpt lat="49.39476" lon="1.48127">
        <ele>129.4</ele>
        <time>2015-06-14T07:19:31Z</time>
      </trkpt>
      <trkpt lat="49.39478" lon="1.48134">
        <ele>127.45</ele>
        <time>2015-06-14T07:19:32Z</time>
      </trkpt>
      <trkpt lat="49.3948" lon="1.4814">
        <ele>126.55</ele>
        <time>2015-06-14T07:19:33Z</time>
      </trkpt>
      <trkpt lat="49.39481" lon="1.48144">
        <ele>125.92</ele>
        <time>2015-06-14T07:19:34Z</time>
      </trkpt>
      <trkpt lat="49.39481" lon="1.48155">
        <ele>123.64</ele>
        <time>2015-06-14T07:19:37Z</time>
      </trkpt>
      <trkpt lat="49.39476" lon="1.48157">
        <ele>123.33</ele>
        <time>2015-06-14T07:19:38Z</time>
      </trkpt>
      <trkpt lat="49.39473" lon="1.48157">
        <ele>123.12</ele>
        <time>2015-06-14T07:19:39Z</time>
      </trkpt>
      <trkpt lat="49.3947" lon="1.48157">
        <ele>123.09</ele>
        <time>2015-06-14T07:19:40Z</time>
      </trkpt>
      <trkpt lat="49.39467" lon="1.48158">
        <ele>123.19</ele>
        <time>2015-06-14T07:19:41Z</time>
      </trkpt>
      <trkpt lat="49.39418" lon="1.48168">
        <ele>125.82</ele>
        <time>2015-06-14T07:19:57Z</time>
      </trkpt>
      <trkpt lat="49.39376" lon="1.48181">
        <ele>128.83</ele>
        <time>2015-06-14T07:20:12Z</time>
      </trkpt>
      <trkpt lat="49.39329" lon="1.48199">
        <ele>131.96</ele>
        <time>2015-06-14T07:20:29Z</time>
      </trkpt>
      <trkpt lat="49.39288" lon="1.48213">
        <ele>134.98</ele>
        <time>2015-06-14T07:20:44Z</time>
      </trkpt>
      <trkpt lat="49.39281" lon="1.48228">
        <ele>136.13</ele>
        <time>2015-06-14T07:20:49Z</time>
      </trkpt>
      <trkpt lat="49.39282" lon="1.48232">
        <ele>136.33</ele>
        <time>2015-06-14T07:20:50Z</time>
      </trkpt>
      <trkpt lat="49.39283" lon="1.48235">
        <ele>136.47</ele>
        <time>2015-06-14T07:20:51Z</time>
      </trkpt>
      <trkpt lat="49.39284" lon="1.48239">
        <ele>136.58</ele>
        <time>2015-06-14T07:20:52Z</time>
      </trkpt>
      <trkpt lat="49.39286" lon="1.48242">
        <ele>136.62</ele>
        <time>2015-06-14T07:20:53Z</time>
      </trkpt>
      <trkpt lat="49.39287" lon="1.48245">
        <ele>136.75</ele>
        <time>2015-06-14T07:20:54Z</time>
      </trkpt>
      <trkpt lat="49.39297" lon="1.48266">
        <ele>139.35</ele>
        <time>2015-06-14T07:21:00Z</time>
      </trkpt>
      <trkpt lat="49.39333" lon="1.4833">
        <ele>141.91</ele>
        <time>2015-06-14T07:21:14Z</time>
      </trkpt>
      <trkpt lat="49.39361" lon="1.48396">
        <ele>143.19</ele>
        <time>2015-06-14T07:21:28Z</time>
      </trkpt>
      <trkpt lat="49.39371" lon="1.48427">
        <ele>143.98</ele>
        <time>2015-06-14T07:21:34Z</time>
      </trkpt>
      <trkpt lat="49.39373" lon="1.48433">
        <ele>143.97</ele>
        <time>2015-06-14T07:21:35Z</time>
      </trkpt>
      <trkpt lat="49.39374" lon="1.48439">
        <ele>144.13</ele>
        <time>2015-06-14T07:21:36Z</time>
      </trkpt>
      <trkpt lat="49.39386" lon="1.48516">
        <ele>143.94</ele>
        <time>2015-06-14T07:21:49Z</time>
      </trkpt>
      <trkpt lat="49.39396" lon="1.48591">
        <ele>144.26</ele>
        <time>2015-06-14T07:22:02Z</time>
      </trkpt>
      <trkpt lat="49.39406" lon="1.48662">
        <ele>144.77</ele>
        <time>2015-06-14T07:22:16Z</time>
      </trkpt>
      <trkpt lat="49.39407" lon="1.48668">
        <ele>144.84</ele>
        <time>2015-06-14T07:22:17Z</time>
      </trkpt>
      <trkpt lat="49.39413" lon="1.48753">
        <ele>143.21</ele>
        <time>2015-06-14T07:22:28Z</time>
      </trkpt>
      <trkpt lat="49.39417" lon="1.48787">
        <ele>142.72</ele>
        <time>2015-06-14T07:22:32Z</time>
      </trkpt>
      <trkpt lat="49.39418" lon="1.48795">
        <ele>142.33</ele>
        <time>2015-06-14T07:22:33Z</time>
      </trkpt>
      <trkpt lat="49.39416" lon="1.4884">
        <ele>140.82</ele>
        <time>2015-06-14T07:22:39Z</time>
      </trkpt>
      <trkpt lat="49.39415" lon="1.48847">
        <ele>139.97</ele>
        <time>2015-06-14T07:22:40Z</time>
      </trkpt>
      <trkpt lat="49.39413" lon="1.48867">
        <ele>138.6</ele>
        <time>2015-06-14T07:22:43Z</time>
      </trkpt>
      <trkpt lat="49.39414" lon="1.48874">
        <ele>137.53</ele>
        <time>2015-06-14T07:22:44Z</time>
      </trkpt>
      <trkpt lat="49.39415" lon="1.4888">
        <ele>136.21</ele>
        <time>2015-06-14T07:22:45Z</time>
      </trkpt>
      <trkpt lat="49.39416" lon="1.48885">
        <ele>135.57</ele>
        <time>2015-06-14T07:22:46Z</time>
      </trkpt>
      <trkpt lat="49.39417" lon="1.48888">
        <ele>134.64</ele>
        <time>2015-06-14T07:22:47Z</time>
      </trkpt>
      <trkpt lat="49.39417" lon="1.48891">
        <ele>134.12</ele>
        <time>2015-06-14T07:22:48Z</time>
      </trkpt>
      <trkpt lat="49.39418" lon="1.489">
        <ele>131.43</ele>
        <time>2015-06-14T07:22:53Z</time>
      </trkpt>
      <trkpt lat="49.39417" lon="1.48903">
        <ele>130.94</ele>
        <time>2015-06-14T07:22:54Z</time>
      </trkpt>
      <trkpt lat="49.39415" lon="1.48906">
        <ele>130.31</ele>
        <time>2015-06-14T07:22:55Z</time>
      </trkpt>
      <trkpt lat="49.39414" lon="1.48909">
        <ele>129.69</ele>
        <time>2015-06-14T07:22:56Z</time>
      </trkpt>
      <trkpt lat="49.39413" lon="1.48911">
        <ele>129.3</ele>
        <time>2015-06-14T07:22:57Z</time>
      </trkpt>
      <trkpt lat="49.39413" lon="1.48912">
        <ele>129</ele>
        <time>2015-06-14T07:22:58Z</time>
      </trkpt>
      <trkpt lat="49.39416" lon="1.48917">
        <ele>129.92</ele>
        <time>2015-06-14T07:23:03Z</time>
      </trkpt>
      <trkpt lat="49.39417" lon="1.48918">
        <ele>133.19</ele>
        <time>2015-06-14T07:23:13Z</time>
      </trkpt>
      <trkpt lat="49.3942" lon="1.48922">
        <ele>136.08</ele>
        <time>2015-06-14T07:23:23Z</time>
      </trkpt>
      <trkpt lat="49.39421" lon="1.48923">
        <ele>136.42</ele>
        <time>2015-06-14T07:23:24Z</time>
      </trkpt>
      <trkpt lat="49.39422" lon="1.48923">
        <ele>136.62</ele>
        <time>2015-06-14T07:23:25Z</time>
      </trkpt>
      <trkpt lat="49.39424" lon="1.4893">
        <ele>137.18</ele>
        <time>2015-06-14T07:23:29Z</time>
      </trkpt>
      <trkpt lat="49.39425" lon="1.48933">
        <ele>137.46</ele>
        <time>2015-06-14T07:23:30Z</time>
      </trkpt>
      <trkpt lat="49.39425" lon="1.48935">
        <ele>137.59</ele>
        <time>2015-06-14T07:23:31Z</time>
      </trkpt>
      <trkpt lat="49.39425" lon="1.48938">
        <ele>137.77</ele>
        <time>2015-06-14T07:23:32Z</time>
      </trkpt>
      <trkpt lat="49.39425" lon="1.48941">
        <ele>138.05</ele>
        <time>2015-06-14T07:23:33Z</time>
      </trkpt>
      <trkpt lat="49.39425" lon="1.48944">
        <ele>138.35</ele>
        <time>2015-06-14T07:23:34Z</time>
      </trkpt>
      <trkpt lat="49.39424" lon="1.48947">
        <ele>138.66</ele>
        <time>2015-06-14T07:23:35Z</time>
      </trkpt>
      <trkpt lat="49.39423" lon="1.48952">
        <ele>138.87</ele>
        <time>2015-06-14T07:23:36Z</time>
      </trkpt>
      <trkpt lat="49.39423" lon="1.48954">
        <ele>139.03</ele>
        <time>2015-06-14T07:23:37Z</time>
      </trkpt>
      <trkpt lat="49.3942" lon="1.48965">
        <ele>139.3</ele>
        <time>2015-06-14T07:23:42Z</time>
      </trkpt>
      <trkpt lat="49.3942" lon="1.48968">
        <ele>139.4</ele>
        <time>2015-06-14T07:23:43Z</time>
      </trkpt>
      <trkpt lat="49.39442" lon="1.49038">
        <ele>141.59</ele>
        <time>2015-06-14T07:24:00Z</time>
      </trkpt>
      <trkpt lat="49.39487" lon="1.49073">
        <ele>142.67</ele>
        <time>2015-06-14T07:24:19Z</time>
      </trkpt>
      <trkpt lat="49.39489" lon="1.49075">
        <ele>142.76</ele>
        <time>2015-06-14T07:24:20Z</time>
      </trkpt>
      <trkpt lat="49.39491" lon="1.49076">
        <ele>142.93</ele>
        <time>2015-06-14T07:24:21Z</time>
      </trkpt>
      <trkpt lat="49.39494" lon="1.49077">
        <ele>142.85</ele>
        <time>2015-06-14T07:24:22Z</time>
      </trkpt>
      <trkpt lat="49.39496" lon="1.49077">
        <ele>142.95</ele>
        <time>2015-06-14T07:24:23Z</time>
      </trkpt>
      <trkpt lat="49.39499" lon="1.49076">
        <ele>143.05</ele>
        <time>2015-06-14T07:24:24Z</time>
      </trkpt>
      <trkpt lat="49.39501" lon="1.49075">
        <ele>143.12</ele>
        <time>2015-06-14T07:24:25Z</time>
      </trkpt>
      <trkpt lat="49.39504" lon="1.49075">
        <ele>143.04</ele>
        <time>2015-06-14T07:24:26Z</time>
      </trkpt>
      <trkpt lat="49.39507" lon="1.49074">
        <ele>143.03</ele>
        <time>2015-06-14T07:24:27Z</time>
      </trkpt>
      <trkpt lat="49.39509" lon="1.49074">
        <ele>143.03</ele>
        <time>2015-06-14T07:24:28Z</time>
      </trkpt>
      <trkpt lat="49.39512" lon="1.49074">
        <ele>142.93</ele>
        <time>2015-06-14T07:24:29Z</time>
      </trkpt>
      <trkpt lat="49.39563" lon="1.4907">
        <ele>142.41</ele>
        <time>2015-06-14T07:24:48Z</time>
      </trkpt>
      <trkpt lat="49.39619" lon="1.49043">
        <ele>142.41</ele>
        <time>2015-06-14T07:25:07Z</time>
      </trkpt>
      <trkpt lat="49.39679" lon="1.49025">
        <ele>141.74</ele>
        <time>2015-06-14T07:25:23Z</time>
      </trkpt>
      <trkpt lat="49.39747" lon="1.49016">
        <ele>141.81</ele>
        <time>2015-06-14T07:25:38Z</time>
      </trkpt>
      <trkpt lat="49.39807" lon="1.49001">
        <ele>140.18</ele>
        <time>2015-06-14T07:25:54Z</time>
      </trkpt>
      <trkpt lat="49.39863" lon="1.48993">
        <ele>139.95</ele>
        <time>2015-06-14T07:26:08Z</time>
      </trkpt>
      <trkpt lat="49.39877" lon="1.48992">
        <ele>139.71</ele>
        <time>2015-06-14T07:26:12Z</time>
      </trkpt>
      <trkpt lat="49.3988" lon="1.48989">
        <ele>139.95</ele>
        <time>2015-06-14T07:26:13Z</time>
      </trkpt>
      <trkpt lat="49.39881" lon="1.48985">
        <ele>139.68</ele>
        <time>2015-06-14T07:26:14Z</time>
      </trkpt>
      <trkpt lat="49.39891" lon="1.48969">
        <ele>139.6</ele>
        <time>2015-06-14T07:26:18Z</time>
      </trkpt>
      <trkpt lat="49.39895" lon="1.48968">
        <ele>139.65</ele>
        <time>2015-06-14T07:26:19Z</time>
      </trkpt>
      <trkpt lat="49.39899" lon="1.48969">
        <ele>139.72</ele>
        <time>2015-06-14T07:26:20Z</time>
      </trkpt>
      <trkpt lat="49.39904" lon="1.4897">
        <ele>139.55</ele>
        <time>2015-06-14T07:26:21Z</time>
      </trkpt>
      <trkpt lat="49.39909" lon="1.48972">
        <ele>139.32</ele>
        <time>2015-06-14T07:26:22Z</time>
      </trkpt>
      <trkpt lat="49.39914" lon="1.48974">
        <ele>139.21</ele>
        <time>2015-06-14T07:26:23Z</time>
      </trkpt>
      <trkpt lat="49.39919" lon="1.48975">
        <ele>139.17</ele>
        <time>2015-06-14T07:26:24Z</time>
      </trkpt>
      <trkpt lat="49.39925" lon="1.48976">
        <ele>138.86</ele>
        <time>2015-06-14T07:26:25Z</time>
      </trkpt>
      <trkpt lat="49.3993" lon="1.48977">
        <ele>138.95</ele>
        <time>2015-06-14T07:26:26Z</time>
      </trkpt>
      <trkpt lat="49.39954" lon="1.4898">
        <ele>138.3</ele>
        <time>2015-06-14T07:26:30Z</time>
      </trkpt>
      <trkpt lat="49.39991" lon="1.48982">
        <ele>137.78</ele>
        <time>2015-06-14T07:26:36Z</time>
      </trkpt>
      <trkpt lat="49.39995" lon="1.48984">
        <ele>137.38</ele>
        <time>2015-06-14T07:26:37Z</time>
      </trkpt>
      <trkpt lat="49.39998" lon="1.48987">
        <ele>136.88</ele>
        <time>2015-06-14T07:26:38Z</time>
      </trkpt>
      <trkpt lat="49.4" lon="1.48991">
        <ele>136.56</ele>
        <time>2015-06-14T07:26:39Z</time>
      </trkpt>
      <trkpt lat="49.40001" lon="1.48996">
        <ele>136.34</ele>
        <time>2015-06-14T07:26:40Z</time>
      </trkpt>
      <trkpt lat="49.40001" lon="1.49002">
        <ele>136.26</ele>
        <time>2015-06-14T07:26:41Z</time>
      </trkpt>
      <trkpt lat="49.4" lon="1.49007">
        <ele>136.09</ele>
        <time>2015-06-14T07:26:42Z</time>
      </trkpt>
      <trkpt lat="49.40001" lon="1.49013">
        <ele>136.17</ele>
        <time>2015-06-14T07:26:43Z</time>
      </trkpt>
      <trkpt lat="49.40002" lon="1.49018">
        <ele>136.62</ele>
        <time>2015-06-14T07:26:44Z</time>
      </trkpt>
      <trkpt lat="49.40004" lon="1.49022">
        <ele>136.83</ele>
        <time>2015-06-14T07:26:45Z</time>
      </trkpt>
      <trkpt lat="49.40005" lon="1.49026">
        <ele>137.01</ele>
        <time>2015-06-14T07:26:46Z</time>
      </trkpt>
      <trkpt lat="49.40006" lon="1.49032">
        <ele>136.75</ele>
        <time>2015-06-14T07:26:47Z</time>
      </trkpt>
      <trkpt lat="49.40007" lon="1.49037">
        <ele>135.95</ele>
        <time>2015-06-14T07:26:48Z</time>
      </trkpt>
      <trkpt lat="49.40008" lon="1.49042">
        <ele>135.27</ele>
        <time>2015-06-14T07:26:49Z</time>
      </trkpt>
      <trkpt lat="49.40009" lon="1.49048">
        <ele>135.03</ele>
        <time>2015-06-14T07:26:50Z</time>
      </trkpt>
      <trkpt lat="49.40013" lon="1.49073">
        <ele>135.64</ele>
        <time>2015-06-14T07:26:54Z</time>
      </trkpt>
      <trkpt lat="49.40021" lon="1.49129">
        <ele>132.94</ele>
        <time>2015-06-14T07:27:01Z</time>
      </trkpt>
      <trkpt lat="49.40022" lon="1.49136">
        <ele>133</ele>
        <time>2015-06-14T07:27:02Z</time>
      </trkpt>
      <trkpt lat="49.40024" lon="1.49142">
        <ele>133.05</ele>
        <time>2015-06-14T07:27:03Z</time>
      </trkpt>
      <trkpt lat="49.40025" lon="1.49149">
        <ele>132.89</ele>
        <time>2015-06-14T07:27:04Z</time>
      </trkpt>
      <trkpt lat="49.40027" lon="1.49156">
        <ele>132.83</ele>
        <time>2015-06-14T07:27:05Z</time>
      </trkpt>
      <trkpt lat="49.40036" lon="1.49231">
        <ele>130.87</ele>
        <time>2015-06-14T07:27:18Z</time>
      </trkpt>
      <trkpt lat="49.40043" lon="1.49307">
        <ele>127.46</ele>
        <time>2015-06-14T07:27:31Z</time>
      </trkpt>
      <trkpt lat="49.40043" lon="1.49314">
        <ele>127.69</ele>
        <time>2015-06-14T07:27:32Z</time>
      </trkpt>
      <trkpt lat="49.40039" lon="1.4938">
        <ele>125.38</ele>
        <time>2015-06-14T07:27:41Z</time>
      </trkpt>
      <trkpt lat="49.40045" lon="1.4944">
        <ele>123.79</ele>
        <time>2015-06-14T07:27:55Z</time>
      </trkpt>
      <trkpt lat="49.40054" lon="1.4944">
        <ele>121.8</ele>
        <time>2015-06-14T07:27:58Z</time>
      </trkpt>
      <trkpt lat="49.40063" lon="1.49445">
        <ele>118.3</ele>
        <time>2015-06-14T07:28:01Z</time>
      </trkpt>
      <trkpt lat="49.40111" lon="1.4949">
        <ele>119.68</ele>
        <time>2015-06-14T07:28:17Z</time>
      </trkpt>
      <trkpt lat="49.40127" lon="1.49538">
        <ele>122.8</ele>
        <time>2015-06-14T07:28:29Z</time>
      </trkpt>
      <trkpt lat="49.4013" lon="1.49561">
        <ele>123.66</ele>
        <time>2015-06-14T07:28:34Z</time>
      </trkpt>
      <trkpt lat="49.40131" lon="1.49565">
        <ele>123.95</ele>
        <time>2015-06-14T07:28:35Z</time>
      </trkpt>
      <trkpt lat="49.40131" lon="1.4957">
        <ele>124.1</ele>
        <time>2015-06-14T07:28:36Z</time>
      </trkpt>
      <trkpt lat="49.40132" lon="1.49575">
        <ele>124.25</ele>
        <time>2015-06-14T07:28:37Z</time>
      </trkpt>
      <trkpt lat="49.40133" lon="1.49584">
        <ele>124.26</ele>
        <time>2015-06-14T07:28:39Z</time>
      </trkpt>
      <trkpt lat="49.40122" lon="1.49652">
        <ele>127.38</ele>
        <time>2015-06-14T07:28:56Z</time>
      </trkpt>
      <trkpt lat="49.4012" lon="1.49655">
        <ele>127.59</ele>
        <time>2015-06-14T07:28:57Z</time>
      </trkpt>
      <trkpt lat="49.40118" lon="1.49657">
        <ele>127.93</ele>
        <time>2015-06-14T07:28:58Z</time>
      </trkpt>
      <trkpt lat="49.40078" lon="1.49709">
        <ele>130.48</ele>
        <time>2015-06-14T07:29:14Z</time>
      </trkpt>
      <trkpt lat="49.40051" lon="1.49775">
        <ele>129.03</ele>
        <time>2015-06-14T07:29:25Z</time>
      </trkpt>
      <trkpt lat="49.40045" lon="1.49789">
        <ele>128.81</ele>
        <time>2015-06-14T07:29:27Z</time>
      </trkpt>
      <trkpt lat="49.40027" lon="1.49829">
        <ele>129.39</ele>
        <time>2015-06-14T07:29:35Z</time>
      </trkpt>
      <trkpt lat="49.40026" lon="1.49832">
        <ele>129.56</ele>
        <time>2015-06-14T07:29:36Z</time>
      </trkpt>
      <trkpt lat="49.39999" lon="1.49899">
        <ele>130.29</ele>
        <time>2015-06-14T07:29:50Z</time>
      </trkpt>
      <trkpt lat="49.39999" lon="1.49942">
        <ele>131</ele>
        <time>2015-06-14T07:29:59Z</time>
      </trkpt>
      <trkpt lat="49.40002" lon="1.49946">
        <ele>130.34</ele>
        <time>2015-06-14T07:30:00Z</time>
      </trkpt>
      <trkpt lat="49.40006" lon="1.4995">
        <ele>130.02</ele>
        <time>2015-06-14T07:30:01Z</time>
      </trkpt>
      <trkpt lat="49.4001" lon="1.49953">
        <ele>129.79</ele>
        <time>2015-06-14T07:30:02Z</time>
      </trkpt>
      <trkpt lat="49.40013" lon="1.49958">
        <ele>129.42</ele>
        <time>2015-06-14T07:30:03Z</time>
      </trkpt>
      <trkpt lat="49.40013" lon="1.49963">
        <ele>127.84</ele>
        <time>2015-06-14T07:30:04Z</time>
      </trkpt>
      <trkpt lat="49.40016" lon="1.49969">
        <ele>126.07</ele>
        <time>2015-06-14T07:30:05Z</time>
      </trkpt>
      <trkpt lat="49.40043" lon="1.49994">
        <ele>122.57</ele>
        <time>2015-06-14T07:30:10Z</time>
      </trkpt>
      <trkpt lat="49.4006" lon="1.50007">
        <ele>119.14</ele>
        <time>2015-06-14T07:30:13Z</time>
      </trkpt>
      <trkpt lat="49.40064" lon="1.50011">
        <ele>117.51</ele>
        <time>2015-06-14T07:30:14Z</time>
      </trkpt>
      <trkpt lat="49.40069" lon="1.50014">
        <ele>116.79</ele>
        <time>2015-06-14T07:30:15Z</time>
      </trkpt>
      <trkpt lat="49.40073" lon="1.50018">
        <ele>116.31</ele>
        <time>2015-06-14T07:30:16Z</time>
      </trkpt>
      <trkpt lat="49.40076" lon="1.50023">
        <ele>116.25</ele>
        <time>2015-06-14T07:30:17Z</time>
      </trkpt>
      <trkpt lat="49.4008" lon="1.50028">
        <ele>115.95</ele>
        <time>2015-06-14T07:30:18Z</time>
      </trkpt>
      <trkpt lat="49.40088" lon="1.50038">
        <ele>114.29</ele>
        <time>2015-06-14T07:30:20Z</time>
      </trkpt>
      <trkpt lat="49.40097" lon="1.50047">
        <ele>112.5</ele>
        <time>2015-06-14T07:30:22Z</time>
      </trkpt>
      <trkpt lat="49.40102" lon="1.50053">
        <ele>111.45</ele>
        <time>2015-06-14T07:30:23Z</time>
      </trkpt>
      <trkpt lat="49.40115" lon="1.50069">
        <ele>109.34</ele>
        <time>2015-06-14T07:30:26Z</time>
      </trkpt>
      <trkpt lat="49.40118" lon="1.50071">
        <ele>109.6</ele>
        <time>2015-06-14T07:30:27Z</time>
      </trkpt>
      <trkpt lat="49.40121" lon="1.5007">
        <ele>109.64</ele>
        <time>2015-06-14T07:30:28Z</time>
      </trkpt>
      <trkpt lat="49.40122" lon="1.50067">
        <ele>109.47</ele>
        <time>2015-06-14T07:30:29Z</time>
      </trkpt>
      <trkpt lat="49.40124" lon="1.50063">
        <ele>109.55</ele>
        <time>2015-06-14T07:30:30Z</time>
      </trkpt>
      <trkpt lat="49.40143" lon="1.49993">
        <ele>109.69</ele>
        <time>2015-06-14T07:30:42Z</time>
      </trkpt>
      <trkpt lat="49.40161" lon="1.49953">
        <ele>108.25</ele>
        <time>2015-06-14T07:30:48Z</time>
      </trkpt>
      <trkpt lat="49.4017" lon="1.4994">
        <ele>108.04</ele>
        <time>2015-06-14T07:30:50Z</time>
      </trkpt>
      <trkpt lat="49.40174" lon="1.49934">
        <ele>107.87</ele>
        <time>2015-06-14T07:30:51Z</time>
      </trkpt>
      <trkpt lat="49.40214" lon="1.49888">
        <ele>105.48</ele>
        <time>2015-06-14T07:30:59Z</time>
      </trkpt>
      <trkpt lat="49.40256" lon="1.4984">
        <ele>104.55</ele>
        <time>2015-06-14T07:31:07Z</time>
      </trkpt>
      <trkpt lat="49.4026" lon="1.49833">
        <ele>104.29</ele>
        <time>2015-06-14T07:31:08Z</time>
      </trkpt>
      <trkpt lat="49.40298" lon="1.49776">
        <ele>102.69</ele>
        <time>2015-06-14T07:31:17Z</time>
      </trkpt>
      <trkpt lat="49.4031" lon="1.49756">
        <ele>101.91</ele>
        <time>2015-06-14T07:31:20Z</time>
      </trkpt>
      <trkpt lat="49.40317" lon="1.49741">
        <ele>101.51</ele>
        <time>2015-06-14T07:31:22Z</time>
      </trkpt>
      <trkpt lat="49.4032" lon="1.49732">
        <ele>101.35</ele>
        <time>2015-06-14T07:31:23Z</time>
      </trkpt>
      <trkpt lat="49.40325" lon="1.49716">
        <ele>100.72</ele>
        <time>2015-06-14T07:31:25Z</time>
      </trkpt>
      <trkpt lat="49.40337" lon="1.49661">
        <ele>99.4</ele>
        <time>2015-06-14T07:31:31Z</time>
      </trkpt>
      <trkpt lat="49.40338" lon="1.49652">
        <ele>99.32</ele>
        <time>2015-06-14T07:31:32Z</time>
      </trkpt>
      <trkpt lat="49.40339" lon="1.49643">
        <ele>99.11</ele>
        <time>2015-06-14T07:31:33Z</time>
      </trkpt>
      <trkpt lat="49.40341" lon="1.49633">
        <ele>98.86</ele>
        <time>2015-06-14T07:31:34Z</time>
      </trkpt>
      <trkpt lat="49.40342" lon="1.49624">
        <ele>98.49</ele>
        <time>2015-06-14T07:31:35Z</time>
      </trkpt>
      <trkpt lat="49.40343" lon="1.49616">
        <ele>98.47</ele>
        <time>2015-06-14T07:31:36Z</time>
      </trkpt>
      <trkpt lat="49.40343" lon="1.49567">
        <ele>98.92</ele>
        <time>2015-06-14T07:31:44Z</time>
      </trkpt>
      <trkpt lat="49.40332" lon="1.49523">
        <ele>98.51</ele>
        <time>2015-06-14T07:31:50Z</time>
      </trkpt>
      <trkpt lat="49.40296" lon="1.49463">
        <ele>96.02</ele>
        <time>2015-06-14T07:31:59Z</time>
      </trkpt>
      <trkpt lat="49.40288" lon="1.49448">
        <ele>95.23</ele>
        <time>2015-06-14T07:32:01Z</time>
      </trkpt>
      <trkpt lat="49.40276" lon="1.49369">
        <ele>95.19</ele>
        <time>2015-06-14T07:32:16Z</time>
      </trkpt>
      <trkpt lat="49.40278" lon="1.49362">
        <ele>95.2</ele>
        <time>2015-06-14T07:32:17Z</time>
      </trkpt>
      <trkpt lat="49.4028" lon="1.49356">
        <ele>95.19</ele>
        <time>2015-06-14T07:32:18Z</time>
      </trkpt>
      <trkpt lat="49.40283" lon="1.4935">
        <ele>94.79</ele>
        <time>2015-06-14T07:32:19Z</time>
      </trkpt>
      <trkpt lat="49.40287" lon="1.49345">
        <ele>94.48</ele>
        <time>2015-06-14T07:32:20Z</time>
      </trkpt>
      <trkpt lat="49.4029" lon="1.4934">
        <ele>94.15</ele>
        <time>2015-06-14T07:32:21Z</time>
      </trkpt>
      <trkpt lat="49.40295" lon="1.49335">
        <ele>93.81</ele>
        <time>2015-06-14T07:32:22Z</time>
      </trkpt>
      <trkpt lat="49.40298" lon="1.49331">
        <ele>93.68</ele>
        <time>2015-06-14T07:32:23Z</time>
      </trkpt>
      <trkpt lat="49.40328" lon="1.49307">
        <ele>94.24</ele>
        <time>2015-06-14T07:32:31Z</time>
      </trkpt>
      <trkpt lat="49.40332" lon="1.49304">
        <ele>94.3</ele>
        <time>2015-06-14T07:32:32Z</time>
      </trkpt>
      <trkpt lat="49.40337" lon="1.49301">
        <ele>94.36</ele>
        <time>2015-06-14T07:32:33Z</time>
      </trkpt>
      <trkpt lat="49.40391" lon="1.49262">
        <ele>93.34</ele>
        <time>2015-06-14T07:32:43Z</time>
      </trkpt>
      <trkpt lat="49.40413" lon="1.49241">
        <ele>92.88</ele>
        <time>2015-06-14T07:32:47Z</time>
      </trkpt>
      <trkpt lat="49.4043" lon="1.49221">
        <ele>92.7</ele>
        <time>2015-06-14T07:32:50Z</time>
      </trkpt>
      <trkpt lat="49.40435" lon="1.49214">
        <ele>92.67</ele>
        <time>2015-06-14T07:32:51Z</time>
      </trkpt>
      <trkpt lat="49.40464" lon="1.49144">
        <ele>89.37</ele>
        <time>2015-06-14T07:32:59Z</time>
      </trkpt>
      <trkpt lat="49.40478" lon="1.49062">
        <ele>87.53</ele>
        <time>2015-06-14T07:33:07Z</time>
      </trkpt>
      <trkpt lat="49.40485" lon="1.49012">
        <ele>88.15</ele>
        <time>2015-06-14T07:33:12Z</time>
      </trkpt>
      <trkpt lat="49.4049" lon="1.48963">
        <ele>86.51</ele>
        <time>2015-06-14T07:33:17Z</time>
      </trkpt>
      <trkpt lat="49.40491" lon="1.48956">
        <ele>85.78</ele>
        <time>2015-06-14T07:33:18Z</time>
      </trkpt>
      <trkpt lat="49.40493" lon="1.48949">
        <ele>85.35</ele>
        <time>2015-06-14T07:33:19Z</time>
      </trkpt>
      <trkpt lat="49.40495" lon="1.48945">
        <ele>85.11</ele>
        <time>2015-06-14T07:33:20Z</time>
      </trkpt>
      <trkpt lat="49.40499" lon="1.48941">
        <ele>85.11</ele>
        <time>2015-06-14T07:33:23Z</time>
      </trkpt>
      <trkpt lat="49.405" lon="1.48943">
        <ele>85.16</ele>
        <time>2015-06-14T07:33:24Z</time>
      </trkpt>
      <trkpt lat="49.40501" lon="1.48945">
        <ele>85.22</ele>
        <time>2015-06-14T07:33:25Z</time>
      </trkpt>
      <trkpt lat="49.40502" lon="1.48947">
        <ele>85.44</ele>
        <time>2015-06-14T07:33:26Z</time>
      </trkpt>
      <trkpt lat="49.40503" lon="1.48951">
        <ele>85.64</ele>
        <time>2015-06-14T07:33:27Z</time>
      </trkpt>
      <trkpt lat="49.40504" lon="1.48954">
        <ele>85.95</ele>
        <time>2015-06-14T07:33:28Z</time>
      </trkpt>
      <trkpt lat="49.40508" lon="1.48979">
        <ele>88.95</ele>
        <time>2015-06-14T07:33:39Z</time>
      </trkpt>
      <trkpt lat="49.40509" lon="1.48988">
        <ele>90.47</ele>
        <time>2015-06-14T07:33:43Z</time>
      </trkpt>
      <trkpt lat="49.40511" lon="1.49021">
        <ele>93.57</ele>
        <time>2015-06-14T07:33:55Z</time>
      </trkpt>
      <trkpt lat="49.40513" lon="1.49029">
        <ele>94.55</ele>
        <time>2015-06-14T07:33:59Z</time>
      </trkpt>
      <trkpt lat="49.40524" lon="1.49053">
        <ele>97.61</ele>
        <time>2015-06-14T07:34:09Z</time>
      </trkpt>
      <trkpt lat="49.40541" lon="1.49082">
        <ele>100.78</ele>
        <time>2015-06-14T07:34:21Z</time>
      </trkpt>
      <trkpt lat="49.40563" lon="1.49122">
        <ele>103.84</ele>
        <time>2015-06-14T07:34:35Z</time>
      </trkpt>
      <trkpt lat="49.40591" lon="1.49165">
        <ele>107.12</ele>
        <time>2015-06-14T07:34:51Z</time>
      </trkpt>
      <trkpt lat="49.40595" lon="1.4917">
        <ele>107.62</ele>
        <time>2015-06-14T07:34:53Z</time>
      </trkpt>
      <trkpt lat="49.40597" lon="1.49173">
        <ele>107.77</ele>
        <time>2015-06-14T07:34:54Z</time>
      </trkpt>
      <trkpt lat="49.40632" lon="1.49234">
        <ele>110.84</ele>
        <time>2015-06-14T07:35:15Z</time>
      </trkpt>
      <trkpt lat="49.40655" lon="1.49293">
        <ele>113.94</ele>
        <time>2015-06-14T07:35:31Z</time>
      </trkpt>
      <trkpt lat="49.40682" lon="1.4936">
        <ele>116.98</ele>
        <time>2015-06-14T07:35:49Z</time>
      </trkpt>
      <trkpt lat="49.40719" lon="1.49435">
        <ele>119.8</ele>
        <time>2015-06-14T07:36:10Z</time>
      </trkpt>
      <trkpt lat="49.40748" lon="1.49507">
        <ele>121.67</ele>
        <time>2015-06-14T07:36:27Z</time>
      </trkpt>
      <trkpt lat="49.40773" lon="1.49584">
        <ele>123.31</ele>
        <time>2015-06-14T07:36:45Z</time>
      </trkpt>
      <trkpt lat="49.40797" lon="1.49665">
        <ele>123.46</ele>
        <time>2015-06-14T07:37:02Z</time>
      </trkpt>
      <trkpt lat="49.40806" lon="1.49751">
        <ele>126.04</ele>
        <time>2015-06-14T07:37:18Z</time>
      </trkpt>
      <trkpt lat="49.40817" lon="1.49829">
        <ele>127.97</ele>
        <time>2015-06-14T07:37:34Z</time>
      </trkpt>
      <trkpt lat="49.40826" lon="1.49908">
        <ele>130.71</ele>
        <time>2015-06-14T07:37:50Z</time>
      </trkpt>
      <trkpt lat="49.40842" lon="1.49983">
        <ele>131.75</ele>
        <time>2015-06-14T07:38:04Z</time>
      </trkpt>
      <trkpt lat="49.40845" lon="1.49995">
        <ele>131.22</ele>
        <time>2015-06-14T07:38:06Z</time>
      </trkpt>
      <trkpt lat="49.40853" lon="1.50023">
        <ele>131.88</ele>
        <time>2015-06-14T07:38:11Z</time>
      </trkpt>
      <trkpt lat="49.40881" lon="1.50093">
        <ele>132.13</ele>
        <time>2015-06-14T07:38:24Z</time>
      </trkpt>
      <trkpt lat="49.40913" lon="1.50158">
        <ele>131.3</ele>
        <time>2015-06-14T07:38:36Z</time>
      </trkpt>
      <trkpt lat="49.40933" lon="1.50232">
        <ele>131.26</ele>
        <time>2015-06-14T07:38:48Z</time>
      </trkpt>
      <trkpt lat="49.40953" lon="1.50301">
        <ele>132.88</ele>
        <time>2015-06-14T07:39:02Z</time>
      </trkpt>
      <trkpt lat="49.4097" lon="1.50358">
        <ele>135.93</ele>
        <time>2015-06-14T07:39:15Z</time>
      </trkpt>
      <trkpt lat="49.40998" lon="1.50414">
        <ele>139.06</ele>
        <time>2015-06-14T07:39:28Z</time>
      </trkpt>
      <trkpt lat="49.41036" lon="1.50463">
        <ele>140.1</ele>
        <time>2015-06-14T07:39:40Z</time>
      </trkpt>
      <trkpt lat="49.41039" lon="1.50467">
        <ele>140.16</ele>
        <time>2015-06-14T07:39:41Z</time>
      </trkpt>
      <trkpt lat="49.41069" lon="1.50491">
        <ele>140.37</ele>
        <time>2015-06-14T07:39:48Z</time>
      </trkpt>
      <trkpt lat="49.41073" lon="1.50494">
        <ele>140.19</ele>
        <time>2015-06-14T07:39:49Z</time>
      </trkpt>
      <trkpt lat="49.41086" lon="1.50503">
        <ele>140.15</ele>
        <time>2015-06-14T07:39:52Z</time>
      </trkpt>
      <trkpt lat="49.41098" lon="1.50514">
        <ele>140.26</ele>
        <time>2015-06-14T07:39:55Z</time>
      </trkpt>
      <trkpt lat="49.41113" lon="1.50537">
        <ele>140.37</ele>
        <time>2015-06-14T07:39:59Z</time>
      </trkpt>
      <trkpt lat="49.41116" lon="1.50544">
        <ele>140.37</ele>
        <time>2015-06-14T07:40:00Z</time>
      </trkpt>
      <trkpt lat="49.41124" lon="1.50564">
        <ele>140.31</ele>
        <time>2015-06-14T07:40:03Z</time>
      </trkpt>
      <trkpt lat="49.4113" lon="1.50583">
        <ele>140.37</ele>
        <time>2015-06-14T07:40:06Z</time>
      </trkpt>
      <trkpt lat="49.41135" lon="1.50617">
        <ele>141.03</ele>
        <time>2015-06-14T07:40:11Z</time>
      </trkpt>
      <trkpt lat="49.41136" lon="1.50625">
        <ele>141.35</ele>
        <time>2015-06-14T07:40:12Z</time>
      </trkpt>
      <trkpt lat="49.41149" lon="1.50703">
        <ele>141.69</ele>
        <time>2015-06-14T07:40:22Z</time>
      </trkpt>
      <trkpt lat="49.41167" lon="1.50772">
        <ele>141.93</ele>
        <time>2015-06-14T07:40:32Z</time>
      </trkpt>
      <trkpt lat="49.41169" lon="1.50779">
        <ele>141.82</ele>
        <time>2015-06-14T07:40:33Z</time>
      </trkpt>
      <trkpt lat="49.41189" lon="1.50845">
        <ele>141.94</ele>
        <time>2015-06-14T07:40:43Z</time>
      </trkpt>
      <trkpt lat="49.4119" lon="1.50859">
        <ele>141.71</ele>
        <time>2015-06-14T07:40:46Z</time>
      </trkpt>
      <trkpt lat="49.4119" lon="1.50863">
        <ele>141.67</ele>
        <time>2015-06-14T07:41:06Z</time>
      </trkpt>
      <trkpt lat="49.4119" lon="1.50866">
        <ele>141.7</ele>
        <time>2015-06-14T07:41:07Z</time>
      </trkpt>
      <trkpt lat="49.41213" lon="1.50936">
        <ele>141.66</ele>
        <time>2015-06-14T07:41:21Z</time>
      </trkpt>
      <trkpt lat="49.41234" lon="1.51012">
        <ele>141.48</ele>
        <time>2015-06-14T07:41:30Z</time>
      </trkpt>
      <trkpt lat="49.41255" lon="1.51079">
        <ele>141.4</ele>
        <time>2015-06-14T07:41:39Z</time>
      </trkpt>
      <trkpt lat="49.41271" lon="1.51137">
        <ele>140.77</ele>
        <time>2015-06-14T07:41:48Z</time>
      </trkpt>
      <trkpt lat="49.41272" lon="1.51137">
        <ele>140.7</ele>
        <time>2015-06-14T07:41:49Z</time>
      </trkpt>
      <trkpt lat="49.41273" lon="1.51134">
        <ele>140.52</ele>
        <time>2015-06-14T07:41:50Z</time>
      </trkpt>
      <trkpt lat="49.41275" lon="1.51131">
        <ele>140.34</ele>
        <time>2015-06-14T07:41:51Z</time>
      </trkpt>
      <trkpt lat="49.41277" lon="1.51127">
        <ele>140.24</ele>
        <time>2015-06-14T07:41:52Z</time>
      </trkpt>
      <trkpt lat="49.4131" lon="1.51061">
        <ele>136.14</ele>
        <time>2015-06-14T07:42:01Z</time>
      </trkpt>
      <trkpt lat="49.41314" lon="1.51052">
        <ele>135.12</ele>
        <time>2015-06-14T07:42:02Z</time>
      </trkpt>
      <trkpt lat="49.41317" lon="1.51042">
        <ele>133.97</ele>
        <time>2015-06-14T07:42:03Z</time>
      </trkpt>
      <trkpt lat="49.41325" lon="1.5101">
        <ele>130.24</ele>
        <time>2015-06-14T07:42:06Z</time>
      </trkpt>
      <trkpt lat="49.41332" lon="1.5096">
        <ele>126.94</ele>
        <time>2015-06-14T07:42:10Z</time>
      </trkpt>
      <trkpt lat="49.41334" lon="1.50947">
        <ele>125.6</ele>
        <time>2015-06-14T07:42:11Z</time>
      </trkpt>
      <trkpt lat="49.41343" lon="1.50912">
        <ele>122</ele>
        <time>2015-06-14T07:42:14Z</time>
      </trkpt>
      <trkpt lat="49.41354" lon="1.5088">
        <ele>118.09</ele>
        <time>2015-06-14T07:42:17Z</time>
      </trkpt>
      <trkpt lat="49.41366" lon="1.50834">
        <ele>114.13</ele>
        <time>2015-06-14T07:42:21Z</time>
      </trkpt>
      <trkpt lat="49.41375" lon="1.50786">
        <ele>110.56</ele>
        <time>2015-06-14T07:42:25Z</time>
      </trkpt>
      <trkpt lat="49.41384" lon="1.50752">
        <ele>107.48</ele>
        <time>2015-06-14T07:42:28Z</time>
      </trkpt>
      <trkpt lat="49.41388" lon="1.50741">
        <ele>107.48</ele>
        <time>2015-06-14T07:42:29Z</time>
      </trkpt>
      <trkpt lat="49.41405" lon="1.50711">
        <ele>104.2</ele>
        <time>2015-06-14T07:42:32Z</time>
      </trkpt>
      <trkpt lat="49.41423" lon="1.50685">
        <ele>99.75</ele>
        <time>2015-06-14T07:42:35Z</time>
      </trkpt>
      <trkpt lat="49.41452" lon="1.50653">
        <ele>96.28</ele>
        <time>2015-06-14T07:42:39Z</time>
      </trkpt>
      <trkpt lat="49.41468" lon="1.50636">
        <ele>92.98</ele>
        <time>2015-06-14T07:42:41Z</time>
      </trkpt>
      <trkpt lat="49.41476" lon="1.50626">
        <ele>92.01</ele>
        <time>2015-06-14T07:42:42Z</time>
      </trkpt>
      <trkpt lat="49.41497" lon="1.50588">
        <ele>89.12</ele>
        <time>2015-06-14T07:42:46Z</time>
      </trkpt>
      <trkpt lat="49.41511" lon="1.50557">
        <ele>87.23</ele>
        <time>2015-06-14T07:42:50Z</time>
      </trkpt>
      <trkpt lat="49.41518" lon="1.50541">
        <ele>86.73</ele>
        <time>2015-06-14T07:42:52Z</time>
      </trkpt>
      <trkpt lat="49.41522" lon="1.50534">
        <ele>86.59</ele>
        <time>2015-06-14T07:42:53Z</time>
      </trkpt>
      <trkpt lat="49.41527" lon="1.50527">
        <ele>86.45</ele>
        <time>2015-06-14T07:42:54Z</time>
      </trkpt>
      <trkpt lat="49.41532" lon="1.50522">
        <ele>86.37</ele>
        <time>2015-06-14T07:42:55Z</time>
      </trkpt>
      <trkpt lat="49.41537" lon="1.50518">
        <ele>86.39</ele>
        <time>2015-06-14T07:42:56Z</time>
      </trkpt>
      <trkpt lat="49.41542" lon="1.50514">
        <ele>86.46</ele>
        <time>2015-06-14T07:42:57Z</time>
      </trkpt>
      <trkpt lat="49.41547" lon="1.5051">
        <ele>86.53</ele>
        <time>2015-06-14T07:42:58Z</time>
      </trkpt>
      <trkpt lat="49.41596" lon="1.50476">
        <ele>87.15</ele>
        <time>2015-06-14T07:43:08Z</time>
      </trkpt>
      <trkpt lat="49.41642" lon="1.50445">
        <ele>87.88</ele>
        <time>2015-06-14T07:43:19Z</time>
      </trkpt>
      <trkpt lat="49.41686" lon="1.50463">
        <ele>89.95</ele>
        <time>2015-06-14T07:43:33Z</time>
      </trkpt>
      <trkpt lat="49.41736" lon="1.50477">
        <ele>89.93</ele>
        <time>2015-06-14T07:43:45Z</time>
      </trkpt>
      <trkpt lat="49.41786" lon="1.50476">
        <ele>90.37</ele>
        <time>2015-06-14T07:43:55Z</time>
      </trkpt>
      <trkpt lat="49.41825" lon="1.50473">
        <ele>90.33</ele>
        <time>2015-06-14T07:44:03Z</time>
      </trkpt>
      <trkpt lat="49.41829" lon="1.50473">
        <ele>90.53</ele>
        <time>2015-06-14T07:44:04Z</time>
      </trkpt>
      <trkpt lat="49.41834" lon="1.50473">
        <ele>90.59</ele>
        <time>2015-06-14T07:44:05Z</time>
      </trkpt>
      <trkpt lat="49.41879" lon="1.50467">
        <ele>90.58</ele>
        <time>2015-06-14T07:44:15Z</time>
      </trkpt>
      <trkpt lat="49.41931" lon="1.50462">
        <ele>90.74</ele>
        <time>2015-06-14T07:44:26Z</time>
      </trkpt>
      <trkpt lat="49.41979" lon="1.5044">
        <ele>90.76</ele>
        <time>2015-06-14T07:44:36Z</time>
      </trkpt>
      <trkpt lat="49.42015" lon="1.50392">
        <ele>91.84</ele>
        <time>2015-06-14T07:44:46Z</time>
      </trkpt>
      <trkpt lat="49.42041" lon="1.50323">
        <ele>93.26</ele>
        <time>2015-06-14T07:44:57Z</time>
      </trkpt>
      <trkpt lat="49.42069" lon="1.50257">
        <ele>94.93</ele>
        <time>2015-06-14T07:45:08Z</time>
      </trkpt>
      <trkpt lat="49.42094" lon="1.50192">
        <ele>95.62</ele>
        <time>2015-06-14T07:45:19Z</time>
      </trkpt>
      <trkpt lat="49.421" lon="1.50173">
        <ele>95.39</ele>
        <time>2015-06-14T07:45:22Z</time>
      </trkpt>
      <trkpt lat="49.4211" lon="1.50134">
        <ele>93.87</ele>
        <time>2015-06-14T07:45:27Z</time>
      </trkpt>
      <trkpt lat="49.42112" lon="1.50127">
        <ele>93.73</ele>
        <time>2015-06-14T07:45:28Z</time>
      </trkpt>
      <trkpt lat="49.42116" lon="1.5012">
        <ele>93.65</ele>
        <time>2015-06-14T07:45:29Z</time>
      </trkpt>
      <trkpt lat="49.42151" lon="1.50059">
        <ele>92.09</ele>
        <time>2015-06-14T07:45:49Z</time>
      </trkpt>
      <trkpt lat="49.4219" lon="1.50015">
        <ele>92.82</ele>
        <time>2015-06-14T07:46:00Z</time>
      </trkpt>
      <trkpt lat="49.42233" lon="1.49984">
        <ele>94.74</ele>
        <time>2015-06-14T07:46:13Z</time>
      </trkpt>
      <trkpt lat="49.42279" lon="1.49954">
        <ele>95.34</ele>
        <time>2015-06-14T07:46:26Z</time>
      </trkpt>
      <trkpt lat="49.42288" lon="1.49952">
        <ele>94.87</ele>
        <time>2015-06-14T07:46:28Z</time>
      </trkpt>
      <trkpt lat="49.42336" lon="1.49953">
        <ele>94.41</ele>
        <time>2015-06-14T07:46:39Z</time>
      </trkpt>
      <trkpt lat="49.42345" lon="1.49953">
        <ele>94.36</ele>
        <time>2015-06-14T07:46:41Z</time>
      </trkpt>
      <trkpt lat="49.42349" lon="1.49953">
        <ele>94.33</ele>
        <time>2015-06-14T07:46:42Z</time>
      </trkpt>
      <trkpt lat="49.42385" lon="1.49952">
        <ele>94.45</ele>
        <time>2015-06-14T07:46:50Z</time>
      </trkpt>
      <trkpt lat="49.42431" lon="1.49936">
        <ele>95.97</ele>
        <time>2015-06-14T07:47:02Z</time>
      </trkpt>
      <trkpt lat="49.42466" lon="1.49906">
        <ele>96.38</ele>
        <time>2015-06-14T07:47:12Z</time>
      </trkpt>
      <trkpt lat="49.42505" lon="1.49857">
        <ele>96.87</ele>
        <time>2015-06-14T07:47:24Z</time>
      </trkpt>
      <trkpt lat="49.42543" lon="1.49818">
        <ele>97.51</ele>
        <time>2015-06-14T07:47:36Z</time>
      </trkpt>
      <trkpt lat="49.42586" lon="1.49792">
        <ele>97.78</ele>
        <time>2015-06-14T07:47:48Z</time>
      </trkpt>
      <trkpt lat="49.42637" lon="1.49792">
        <ele>97.75</ele>
        <time>2015-06-14T07:48:01Z</time>
      </trkpt>
      <trkpt lat="49.42684" lon="1.49805">
        <ele>97.93</ele>
        <time>2015-06-14T07:48:13Z</time>
      </trkpt>
      <trkpt lat="49.42726" lon="1.49802">
        <ele>97.4</ele>
        <time>2015-06-14T07:48:23Z</time>
      </trkpt>
      <trkpt lat="49.42771" lon="1.49782">
        <ele>98.42</ele>
        <time>2015-06-14T07:48:36Z</time>
      </trkpt>
      <trkpt lat="49.42778" lon="1.49778">
        <ele>98.47</ele>
        <time>2015-06-14T07:48:40Z</time>
      </trkpt>
      <trkpt lat="49.42781" lon="1.49783">
        <ele>99.45</ele>
        <time>2015-06-14T07:49:27Z</time>
      </trkpt>
      <trkpt lat="49.42782" lon="1.49784">
        <ele>99.53</ele>
        <time>2015-06-14T07:49:29Z</time>
      </trkpt>
      <trkpt lat="49.42782" lon="1.49779">
        <ele>98.73</ele>
        <time>2015-06-14T07:49:47Z</time>
      </trkpt>
      <trkpt lat="49.42828" lon="1.49747">
        <ele>100.1</ele>
        <time>2015-06-14T07:50:07Z</time>
      </trkpt>
      <trkpt lat="49.4288" lon="1.49735">
        <ele>101.37</ele>
        <time>2015-06-14T07:50:21Z</time>
      </trkpt>
      <trkpt lat="49.42889" lon="1.49734">
        <ele>100.92</ele>
        <time>2015-06-14T07:50:23Z</time>
      </trkpt>
      <trkpt lat="49.42902" lon="1.49735">
        <ele>101.05</ele>
        <time>2015-06-14T07:50:26Z</time>
      </trkpt>
      <trkpt lat="49.42918" lon="1.49739">
        <ele>101.09</ele>
        <time>2015-06-14T07:50:30Z</time>
      </trkpt>
      <trkpt lat="49.42931" lon="1.49742">
        <ele>100.64</ele>
        <time>2015-06-14T07:50:33Z</time>
      </trkpt>
      <trkpt lat="49.42955" lon="1.49753">
        <ele>100.34</ele>
        <time>2015-06-14T07:50:39Z</time>
      </trkpt>
      <trkpt lat="49.43003" lon="1.49775">
        <ele>100.26</ele>
        <time>2015-06-14T07:50:51Z</time>
      </trkpt>
      <trkpt lat="49.43011" lon="1.49776">
        <ele>99.91</ele>
        <time>2015-06-14T07:50:53Z</time>
      </trkpt>
      <trkpt lat="49.43057" lon="1.49784">
        <ele>100.16</ele>
        <time>2015-06-14T07:51:05Z</time>
      </trkpt>
      <trkpt lat="49.43108" lon="1.49783">
        <ele>100.79</ele>
        <time>2015-06-14T07:51:18Z</time>
      </trkpt>
      <trkpt lat="49.43153" lon="1.49796">
        <ele>100.21</ele>
        <time>2015-06-14T07:51:36Z</time>
      </trkpt>
      <trkpt lat="49.43154" lon="1.49799">
        <ele>100.12</ele>
        <time>2015-06-14T07:51:37Z</time>
      </trkpt>
      <trkpt lat="49.43156" lon="1.49803">
        <ele>100.17</ele>
        <time>2015-06-14T07:51:38Z</time>
      </trkpt>
      <trkpt lat="49.43157" lon="1.49808">
        <ele>100.27</ele>
        <time>2015-06-14T07:51:39Z</time>
      </trkpt>
      <trkpt lat="49.43157" lon="1.49812">
        <ele>100.45</ele>
        <time>2015-06-14T07:51:40Z</time>
      </trkpt>
      <trkpt lat="49.43158" lon="1.49818">
        <ele>100.78</ele>
        <time>2015-06-14T07:51:41Z</time>
      </trkpt>
      <trkpt lat="49.43159" lon="1.49822">
        <ele>101.09</ele>
        <time>2015-06-14T07:51:42Z</time>
      </trkpt>
      <trkpt lat="49.43161" lon="1.49832">
        <ele>101.09</ele>
        <time>2015-06-14T07:51:44Z</time>
      </trkpt>
      <trkpt lat="49.43154" lon="1.49904">
        <ele>101.22</ele>
        <time>2015-06-14T07:52:01Z</time>
      </trkpt>
      <trkpt lat="49.43143" lon="1.49949">
        <ele>102.98</ele>
        <time>2015-06-14T07:53:06Z</time>
      </trkpt>
      <trkpt lat="49.43144" lon="1.49945">
        <ele>103.26</ele>
        <time>2015-06-14T07:53:31Z</time>
      </trkpt>
      <trkpt lat="49.43138" lon="1.50007">
        <ele>104</ele>
        <time>2015-06-14T07:54:20Z</time>
      </trkpt>
      <trkpt lat="49.43165" lon="1.50073">
        <ele>103.19</ele>
        <time>2015-06-14T07:54:36Z</time>
      </trkpt>
      <trkpt lat="49.43221" lon="1.50087">
        <ele>103.64</ele>
        <time>2015-06-14T07:54:50Z</time>
      </trkpt>
      <trkpt lat="49.43286" lon="1.5008">
        <ele>103.88</ele>
        <time>2015-06-14T07:55:04Z</time>
      </trkpt>
      <trkpt lat="49.43344" lon="1.50073">
        <ele>105.48</ele>
        <time>2015-06-14T07:55:19Z</time>
      </trkpt>
      <trkpt lat="49.43404" lon="1.50085">
        <ele>106.45</ele>
        <time>2015-06-14T07:55:34Z</time>
      </trkpt>
      <trkpt lat="49.43465" lon="1.50124">
        <ele>106.99</ele>
        <time>2015-06-14T07:55:49Z</time>
      </trkpt>
      <trkpt lat="49.4353" lon="1.50163">
        <ele>107.78</ele>
        <time>2015-06-14T07:56:03Z</time>
      </trkpt>
      <trkpt lat="49.43582" lon="1.50192">
        <ele>110.9</ele>
        <time>2015-06-14T07:56:18Z</time>
      </trkpt>
      <trkpt lat="49.43616" lon="1.50216">
        <ele>111.22</ele>
        <time>2015-06-14T07:56:26Z</time>
      </trkpt>
      <trkpt lat="49.43674" lon="1.50252">
        <ele>111.25</ele>
        <time>2015-06-14T07:56:37Z</time>
      </trkpt>
      <trkpt lat="49.43727" lon="1.5029">
        <ele>110.67</ele>
        <time>2015-06-14T07:56:48Z</time>
      </trkpt>
      <trkpt lat="49.4377" lon="1.50319">
        <ele>110.21</ele>
        <time>2015-06-14T07:56:57Z</time>
      </trkpt>
      <trkpt lat="49.43785" lon="1.50328">
        <ele>109.71</ele>
        <time>2015-06-14T07:57:01Z</time>
      </trkpt>
      <trkpt lat="49.43789" lon="1.5033">
        <ele>109.55</ele>
        <time>2015-06-14T07:57:03Z</time>
      </trkpt>
      <trkpt lat="49.43791" lon="1.50331">
        <ele>109.51</ele>
        <time>2015-06-14T07:57:04Z</time>
      </trkpt>
      <trkpt lat="49.43793" lon="1.50334">
        <ele>109.52</ele>
        <time>2015-06-14T07:57:05Z</time>
      </trkpt>
      <trkpt lat="49.43795" lon="1.50336">
        <ele>109.59</ele>
        <time>2015-06-14T07:57:06Z</time>
      </trkpt>
      <trkpt lat="49.43798" lon="1.50338">
        <ele>109.8</ele>
        <time>2015-06-14T07:57:07Z</time>
      </trkpt>
      <trkpt lat="49.43801" lon="1.50339">
        <ele>109.81</ele>
        <time>2015-06-14T07:57:08Z</time>
      </trkpt>
      <trkpt lat="49.43804" lon="1.50341">
        <ele>109.61</ele>
        <time>2015-06-14T07:57:09Z</time>
      </trkpt>
      <trkpt lat="49.43807" lon="1.50344">
        <ele>109.43</ele>
        <time>2015-06-14T07:57:10Z</time>
      </trkpt>
      <trkpt lat="49.4381" lon="1.50347">
        <ele>109.36</ele>
        <time>2015-06-14T07:57:11Z</time>
      </trkpt>
      <trkpt lat="49.4383" lon="1.50369">
        <ele>109.64</ele>
        <time>2015-06-14T07:57:20Z</time>
      </trkpt>
      <trkpt lat="49.43832" lon="1.50369">
        <ele>109.4</ele>
        <time>2015-06-14T07:57:21Z</time>
      </trkpt>
      <trkpt lat="49.43834" lon="1.50369">
        <ele>109.43</ele>
        <time>2015-06-14T07:57:22Z</time>
      </trkpt>
      <trkpt lat="49.43835" lon="1.50369">
        <ele>109.7</ele>
        <time>2015-06-14T07:57:23Z</time>
      </trkpt>
      <trkpt lat="49.43838" lon="1.50371">
        <ele>110.02</ele>
        <time>2015-06-14T07:57:25Z</time>
      </trkpt>
      <trkpt lat="49.43841" lon="1.50374">
        <ele>110.13</ele>
        <time>2015-06-14T07:57:27Z</time>
      </trkpt>
      <trkpt lat="49.43842" lon="1.50377">
        <ele>110.13</ele>
        <time>2015-06-14T07:57:28Z</time>
      </trkpt>
      <trkpt lat="49.43842" lon="1.5038">
        <ele>110.4</ele>
        <time>2015-06-14T07:57:29Z</time>
      </trkpt>
      <trkpt lat="49.43842" lon="1.50383">
        <ele>110.51</ele>
        <time>2015-06-14T07:57:30Z</time>
      </trkpt>
      <trkpt lat="49.43842" lon="1.50387">
        <ele>110.62</ele>
        <time>2015-06-14T07:57:31Z</time>
      </trkpt>
      <trkpt lat="49.43842" lon="1.5039">
        <ele>111.01</ele>
        <time>2015-06-14T07:57:32Z</time>
      </trkpt>
      <trkpt lat="49.43842" lon="1.50393">
        <ele>111.44</ele>
        <time>2015-06-14T07:57:33Z</time>
      </trkpt>
      <trkpt lat="49.43842" lon="1.50396">
        <ele>111.46</ele>
        <time>2015-06-14T07:57:34Z</time>
      </trkpt>
      <trkpt lat="49.43852" lon="1.50435">
        <ele>114.48</ele>
        <time>2015-06-14T07:57:49Z</time>
      </trkpt>
      <trkpt lat="49.43883" lon="1.50472">
        <ele>117.53</ele>
        <time>2015-06-14T07:58:08Z</time>
      </trkpt>
      <trkpt lat="49.43917" lon="1.50495">
        <ele>119.62</ele>
        <time>2015-06-14T07:58:26Z</time>
      </trkpt>
      <trkpt lat="49.43921" lon="1.50496">
        <ele>119.68</ele>
        <time>2015-06-14T07:58:27Z</time>
      </trkpt>
      <trkpt lat="49.43923" lon="1.50498">
        <ele>119.87</ele>
        <time>2015-06-14T07:58:28Z</time>
      </trkpt>
      <trkpt lat="49.43927" lon="1.50499">
        <ele>119.9</ele>
        <time>2015-06-14T07:58:29Z</time>
      </trkpt>
      <trkpt lat="49.4393" lon="1.505">
        <ele>119.89</ele>
        <time>2015-06-14T07:58:30Z</time>
      </trkpt>
      <trkpt lat="49.43932" lon="1.50502">
        <ele>120.06</ele>
        <time>2015-06-14T07:58:31Z</time>
      </trkpt>
      <trkpt lat="49.43934" lon="1.50504">
        <ele>120.27</ele>
        <time>2015-06-14T07:58:32Z</time>
      </trkpt>
      <trkpt lat="49.43973" lon="1.50559">
        <ele>123.4</ele>
        <time>2015-06-14T07:58:50Z</time>
      </trkpt>
      <trkpt lat="49.44002" lon="1.5062">
        <ele>126.41</ele>
        <time>2015-06-14T07:59:05Z</time>
      </trkpt>
      <trkpt lat="49.44004" lon="1.50627">
        <ele>127.27</ele>
        <time>2015-06-14T07:59:07Z</time>
      </trkpt>
      <trkpt lat="49.44039" lon="1.50676">
        <ele>130.27</ele>
        <time>2015-06-14T07:59:24Z</time>
      </trkpt>
      <trkpt lat="49.44099" lon="1.50701">
        <ele>133.14</ele>
        <time>2015-06-14T07:59:50Z</time>
      </trkpt>
      <trkpt lat="49.44142" lon="1.50722">
        <ele>136.39</ele>
        <time>2015-06-14T08:00:06Z</time>
      </trkpt>
      <trkpt lat="49.44178" lon="1.50727">
        <ele>139.54</ele>
        <time>2015-06-14T08:00:18Z</time>
      </trkpt>
      <trkpt lat="49.44238" lon="1.50749">
        <ele>142.33</ele>
        <time>2015-06-14T08:00:40Z</time>
      </trkpt>
      <trkpt lat="49.44271" lon="1.50787">
        <ele>145.42</ele>
        <time>2015-06-14T08:00:55Z</time>
      </trkpt>
      <trkpt lat="49.44329" lon="1.5083">
        <ele>147.56</ele>
        <time>2015-06-14T08:01:10Z</time>
      </trkpt>
      <trkpt lat="49.44332" lon="1.50832">
        <ele>147.68</ele>
        <time>2015-06-14T08:01:11Z</time>
      </trkpt>
      <trkpt lat="49.44336" lon="1.50834">
        <ele>147.69</ele>
        <time>2015-06-14T08:01:12Z</time>
      </trkpt>
      <trkpt lat="49.44339" lon="1.50837">
        <ele>147.54</ele>
        <time>2015-06-14T08:01:13Z</time>
      </trkpt>
      <trkpt lat="49.44342" lon="1.5084">
        <ele>147.49</ele>
        <time>2015-06-14T08:01:14Z</time>
      </trkpt>
      <trkpt lat="49.44397" lon="1.50897">
        <ele>149.58</ele>
        <time>2015-06-14T08:01:32Z</time>
      </trkpt>
      <trkpt lat="49.4441" lon="1.50906">
        <ele>149.6</ele>
        <time>2015-06-14T08:01:36Z</time>
      </trkpt>
      <trkpt lat="49.44412" lon="1.50905">
        <ele>149.54</ele>
        <time>2015-06-14T08:01:37Z</time>
      </trkpt>
      <trkpt lat="49.44414" lon="1.50902">
        <ele>149.63</ele>
        <time>2015-06-14T08:01:38Z</time>
      </trkpt>
      <trkpt lat="49.44441" lon="1.50874">
        <ele>150.23</ele>
        <time>2015-06-14T08:01:46Z</time>
      </trkpt>
      <trkpt lat="49.44443" lon="1.5087">
        <ele>149.86</ele>
        <time>2015-06-14T08:01:47Z</time>
      </trkpt>
      <trkpt lat="49.44465" lon="1.50804">
        <ele>149.76</ele>
        <time>2015-06-14T08:02:00Z</time>
      </trkpt>
      <trkpt lat="49.44483" lon="1.50732">
        <ele>151.4</ele>
        <time>2015-06-14T08:02:14Z</time>
      </trkpt>
      <trkpt lat="49.44495" lon="1.50649">
        <ele>150.43</ele>
        <time>2015-06-14T08:02:27Z</time>
      </trkpt>
      <trkpt lat="49.4449" lon="1.50567">
        <ele>147.94</ele>
        <time>2015-06-14T08:02:37Z</time>
      </trkpt>
      <trkpt lat="49.44487" lon="1.50543">
        <ele>146.55</ele>
        <time>2015-06-14T08:02:40Z</time>
      </trkpt>
      <trkpt lat="49.44484" lon="1.50535">
        <ele>146.29</ele>
        <time>2015-06-14T08:02:41Z</time>
      </trkpt>
      <trkpt lat="49.44481" lon="1.50528">
        <ele>146.07</ele>
        <time>2015-06-14T08:02:42Z</time>
      </trkpt>
      <trkpt lat="49.44477" lon="1.50521">
        <ele>145.8</ele>
        <time>2015-06-14T08:02:43Z</time>
      </trkpt>
      <trkpt lat="49.44473" lon="1.50514">
        <ele>145.55</ele>
        <time>2015-06-14T08:02:44Z</time>
      </trkpt>
      <trkpt lat="49.44463" lon="1.50493">
        <ele>144.18</ele>
        <time>2015-06-14T08:02:47Z</time>
      </trkpt>
      <trkpt lat="49.44463" lon="1.50487">
        <ele>143.49</ele>
        <time>2015-06-14T08:02:48Z</time>
      </trkpt>
      <trkpt lat="49.44463" lon="1.50482">
        <ele>142.87</ele>
        <time>2015-06-14T08:02:49Z</time>
      </trkpt>
      <trkpt lat="49.44464" lon="1.50477">
        <ele>142.4</ele>
        <time>2015-06-14T08:02:50Z</time>
      </trkpt>
      <trkpt lat="49.44465" lon="1.50473">
        <ele>142.1</ele>
        <time>2015-06-14T08:02:51Z</time>
      </trkpt>
      <trkpt lat="49.44468" lon="1.5047">
        <ele>141.5</ele>
        <time>2015-06-14T08:02:52Z</time>
      </trkpt>
      <trkpt lat="49.44473" lon="1.5047">
        <ele>141.1</ele>
        <time>2015-06-14T08:02:53Z</time>
      </trkpt>
      <trkpt lat="49.44478" lon="1.5047">
        <ele>140.93</ele>
        <time>2015-06-14T08:02:54Z</time>
      </trkpt>
      <trkpt lat="49.44484" lon="1.50472">
        <ele>140.39</ele>
        <time>2015-06-14T08:02:55Z</time>
      </trkpt>
      <trkpt lat="49.4449" lon="1.50475">
        <ele>139.97</ele>
        <time>2015-06-14T08:02:56Z</time>
      </trkpt>
      <trkpt lat="49.44496" lon="1.50478">
        <ele>139.7</ele>
        <time>2015-06-14T08:02:57Z</time>
      </trkpt>
      <trkpt lat="49.44524" lon="1.5049">
        <ele>136.48</ele>
        <time>2015-06-14T08:03:02Z</time>
      </trkpt>
      <trkpt lat="49.44552" lon="1.50494">
        <ele>133.84</ele>
        <time>2015-06-14T08:03:07Z</time>
      </trkpt>
      <trkpt lat="49.44555" lon="1.50492">
        <ele>133.5</ele>
        <time>2015-06-14T08:03:08Z</time>
      </trkpt>
      <trkpt lat="49.44557" lon="1.50488">
        <ele>132.72</ele>
        <time>2015-06-14T08:03:09Z</time>
      </trkpt>
      <trkpt lat="49.44559" lon="1.50484">
        <ele>131.2</ele>
        <time>2015-06-14T08:03:10Z</time>
      </trkpt>
      <trkpt lat="49.44561" lon="1.50462">
        <ele>130.19</ele>
        <time>2015-06-14T08:03:13Z</time>
      </trkpt>
      <trkpt lat="49.4456" lon="1.50454">
        <ele>128.58</ele>
        <time>2015-06-14T08:03:14Z</time>
      </trkpt>
      <trkpt lat="49.44561" lon="1.50438">
        <ele>125.5</ele>
        <time>2015-06-14T08:03:17Z</time>
      </trkpt>
      <trkpt lat="49.44565" lon="1.50431">
        <ele>125.27</ele>
        <time>2015-06-14T08:03:19Z</time>
      </trkpt>
      <trkpt lat="49.44577" lon="1.50389">
        <ele>128.56</ele>
        <time>2015-06-14T08:03:31Z</time>
      </trkpt>
      <trkpt lat="49.44583" lon="1.50349">
        <ele>132.01</ele>
        <time>2015-06-14T08:03:44Z</time>
      </trkpt>
      <trkpt lat="49.44592" lon="1.50321">
        <ele>135.06</ele>
        <time>2015-06-14T08:03:55Z</time>
      </trkpt>
      <trkpt lat="49.44601" lon="1.50293">
        <ele>138.19</ele>
        <time>2015-06-14T08:04:05Z</time>
      </trkpt>
      <trkpt lat="49.44602" lon="1.50285">
        <ele>140.32</ele>
        <time>2015-06-14T08:04:09Z</time>
      </trkpt>
      <trkpt lat="49.44605" lon="1.50269">
        <ele>143.39</ele>
        <time>2015-06-14T08:04:16Z</time>
      </trkpt>
      <trkpt lat="49.44606" lon="1.50267">
        <ele>143.67</ele>
        <time>2015-06-14T08:04:17Z</time>
      </trkpt>
      <trkpt lat="49.44609" lon="1.5022">
        <ele>146.76</ele>
        <time>2015-06-14T08:04:33Z</time>
      </trkpt>
      <trkpt lat="49.44627" lon="1.50177">
        <ele>149.63</ele>
        <time>2015-06-14T08:04:49Z</time>
      </trkpt>
      <trkpt lat="49.44629" lon="1.50174">
        <ele>149.74</ele>
        <time>2015-06-14T08:04:50Z</time>
      </trkpt>
      <trkpt lat="49.4463" lon="1.5017">
        <ele>149.86</ele>
        <time>2015-06-14T08:04:51Z</time>
      </trkpt>
      <trkpt lat="49.44637" lon="1.50148">
        <ele>151</ele>
        <time>2015-06-14T08:04:59Z</time>
      </trkpt>
      <trkpt lat="49.44638" lon="1.50145">
        <ele>151.08</ele>
        <time>2015-06-14T08:05:00Z</time>
      </trkpt>
      <trkpt lat="49.44638" lon="1.50141">
        <ele>151.04</ele>
        <time>2015-06-14T08:05:01Z</time>
      </trkpt>
      <trkpt lat="49.44639" lon="1.50136">
        <ele>150.99</ele>
        <time>2015-06-14T08:05:02Z</time>
      </trkpt>
      <trkpt lat="49.44639" lon="1.50132">
        <ele>150.95</ele>
        <time>2015-06-14T08:05:03Z</time>
      </trkpt>
      <trkpt lat="49.4464" lon="1.50128">
        <ele>150.97</ele>
        <time>2015-06-14T08:05:04Z</time>
      </trkpt>
      <trkpt lat="49.44641" lon="1.50125">
        <ele>151</ele>
        <time>2015-06-14T08:05:05Z</time>
      </trkpt>
      <trkpt lat="49.44642" lon="1.50121">
        <ele>151.05</ele>
        <time>2015-06-14T08:05:06Z</time>
      </trkpt>
      <trkpt lat="49.44644" lon="1.50118">
        <ele>151.14</ele>
        <time>2015-06-14T08:05:07Z</time>
      </trkpt>
      <trkpt lat="49.44674" lon="1.50049">
        <ele>152.4</ele>
        <time>2015-06-14T08:05:24Z</time>
      </trkpt>
      <trkpt lat="49.447" lon="1.49981">
        <ele>152.93</ele>
        <time>2015-06-14T08:05:37Z</time>
      </trkpt>
      <trkpt lat="49.44728" lon="1.49918">
        <ele>153.01</ele>
        <time>2015-06-14T08:05:48Z</time>
      </trkpt>
      <trkpt lat="49.44755" lon="1.49849">
        <ele>153.38</ele>
        <time>2015-06-14T08:05:59Z</time>
      </trkpt>
      <trkpt lat="49.44785" lon="1.49776">
        <ele>152.13</ele>
        <time>2015-06-14T08:06:09Z</time>
      </trkpt>
      <trkpt lat="49.44809" lon="1.4972">
        <ele>151.54</ele>
        <time>2015-06-14T08:06:16Z</time>
      </trkpt>
      <trkpt lat="49.44837" lon="1.49654">
        <ele>151.66</ele>
        <time>2015-06-14T08:06:25Z</time>
      </trkpt>
      <trkpt lat="49.44863" lon="1.49591">
        <ele>152.81</ele>
        <time>2015-06-14T08:06:34Z</time>
      </trkpt>
      <trkpt lat="49.44868" lon="1.49578">
        <ele>153.11</ele>
        <time>2015-06-14T08:06:36Z</time>
      </trkpt>
      <trkpt lat="49.44895" lon="1.49506">
        <ele>153.97</ele>
        <time>2015-06-14T08:06:46Z</time>
      </trkpt>
      <trkpt lat="49.44919" lon="1.49443">
        <ele>154.46</ele>
        <time>2015-06-14T08:06:55Z</time>
      </trkpt>
      <trkpt lat="49.44944" lon="1.49371">
        <ele>155.12</ele>
        <time>2015-06-14T08:07:05Z</time>
      </trkpt>
      <trkpt lat="49.44971" lon="1.49302">
        <ele>154.74</ele>
        <time>2015-06-14T08:07:14Z</time>
      </trkpt>
      <trkpt lat="49.44993" lon="1.49235">
        <ele>153.19</ele>
        <time>2015-06-14T08:07:22Z</time>
      </trkpt>
      <trkpt lat="49.45024" lon="1.49162">
        <ele>153.73</ele>
        <time>2015-06-14T08:07:31Z</time>
      </trkpt>
      <trkpt lat="49.45055" lon="1.49092">
        <ele>153.8</ele>
        <time>2015-06-14T08:07:40Z</time>
      </trkpt>
      <trkpt lat="49.45069" lon="1.49059">
        <ele>154.74</ele>
        <time>2015-06-14T08:07:44Z</time>
      </trkpt>
      <trkpt lat="49.45072" lon="1.49051">
        <ele>154.81</ele>
        <time>2015-06-14T08:07:45Z</time>
      </trkpt>
      <trkpt lat="49.45099" lon="1.48979">
        <ele>154.68</ele>
        <time>2015-06-14T08:07:55Z</time>
      </trkpt>
      <trkpt lat="49.45125" lon="1.48916">
        <ele>154.49</ele>
        <time>2015-06-14T08:08:04Z</time>
      </trkpt>
      <trkpt lat="49.45154" lon="1.48849">
        <ele>154.8</ele>
        <time>2015-06-14T08:08:13Z</time>
      </trkpt>
      <trkpt lat="49.45163" lon="1.48826">
        <ele>154.79</ele>
        <time>2015-06-14T08:08:16Z</time>
      </trkpt>
      <trkpt lat="49.45167" lon="1.48818">
        <ele>154.95</ele>
        <time>2015-06-14T08:08:17Z</time>
      </trkpt>
      <trkpt lat="49.45196" lon="1.48749">
        <ele>155.53</ele>
        <time>2015-06-14T08:08:26Z</time>
      </trkpt>
      <trkpt lat="49.45221" lon="1.48682">
        <ele>155.11</ele>
        <time>2015-06-14T08:08:34Z</time>
      </trkpt>
      <trkpt lat="49.45248" lon="1.48614">
        <ele>153.73</ele>
        <time>2015-06-14T08:08:41Z</time>
      </trkpt>
      <trkpt lat="49.45275" lon="1.48546">
        <ele>154.76</ele>
        <time>2015-06-14T08:08:49Z</time>
      </trkpt>
      <trkpt lat="49.45301" lon="1.48481">
        <ele>156.57</ele>
        <time>2015-06-14T08:08:58Z</time>
      </trkpt>
      <trkpt lat="49.45326" lon="1.48418">
        <ele>157.28</ele>
        <time>2015-06-14T08:09:07Z</time>
      </trkpt>
      <trkpt lat="49.45352" lon="1.48354">
        <ele>158.41</ele>
        <time>2015-06-14T08:09:16Z</time>
      </trkpt>
      <trkpt lat="49.45378" lon="1.48288">
        <ele>158.9</ele>
        <time>2015-06-14T08:09:25Z</time>
      </trkpt>
      <trkpt lat="49.45403" lon="1.48228">
        <ele>159.26</ele>
        <time>2015-06-14T08:09:33Z</time>
      </trkpt>
      <trkpt lat="49.45431" lon="1.48161">
        <ele>159.13</ele>
        <time>2015-06-14T08:09:42Z</time>
      </trkpt>
      <trkpt lat="49.45459" lon="1.48091">
        <ele>158.54</ele>
        <time>2015-06-14T08:09:51Z</time>
      </trkpt>
      <trkpt lat="49.45484" lon="1.4803">
        <ele>157.2</ele>
        <time>2015-06-14T08:09:59Z</time>
      </trkpt>
      <trkpt lat="49.45512" lon="1.47964">
        <ele>156.15</ele>
        <time>2015-06-14T08:10:07Z</time>
      </trkpt>
      <trkpt lat="49.45539" lon="1.47896">
        <ele>155.35</ele>
        <time>2015-06-14T08:10:15Z</time>
      </trkpt>
      <trkpt lat="49.45563" lon="1.47828">
        <ele>154.14</ele>
        <time>2015-06-14T08:10:23Z</time>
      </trkpt>
      <trkpt lat="49.45588" lon="1.47762">
        <ele>153.75</ele>
        <time>2015-06-14T08:10:31Z</time>
      </trkpt>
      <trkpt lat="49.45614" lon="1.47695">
        <ele>152.11</ele>
        <time>2015-06-14T08:10:39Z</time>
      </trkpt>
      <trkpt lat="49.45637" lon="1.47634">
        <ele>150.11</ele>
        <time>2015-06-14T08:10:47Z</time>
      </trkpt>
      <trkpt lat="49.45637" lon="1.4763">
        <ele>149.62</ele>
        <time>2015-06-14T08:10:48Z</time>
      </trkpt>
      <trkpt lat="49.45639" lon="1.47627">
        <ele>149.29</ele>
        <time>2015-06-14T08:10:49Z</time>
      </trkpt>
      <trkpt lat="49.4564" lon="1.47625">
        <ele>149.12</ele>
        <time>2015-06-14T08:10:50Z</time>
      </trkpt>
      <trkpt lat="49.45641" lon="1.47623">
        <ele>149.02</ele>
        <time>2015-06-14T08:10:51Z</time>
      </trkpt>
      <trkpt lat="49.45643" lon="1.47621">
        <ele>148.95</ele>
        <time>2015-06-14T08:10:52Z</time>
      </trkpt>
      <trkpt lat="49.45645" lon="1.47617">
        <ele>148.91</ele>
        <time>2015-06-14T08:10:53Z</time>
      </trkpt>
      <trkpt lat="49.45647" lon="1.47613">
        <ele>148.64</ele>
        <time>2015-06-14T08:10:54Z</time>
      </trkpt>
      <trkpt lat="49.45649" lon="1.4761">
        <ele>148.37</ele>
        <time>2015-06-14T08:10:55Z</time>
      </trkpt>
      <trkpt lat="49.45652" lon="1.47607">
        <ele>148.19</ele>
        <time>2015-06-14T08:10:56Z</time>
      </trkpt>
      <trkpt lat="49.45655" lon="1.47605">
        <ele>148.14</ele>
        <time>2015-06-14T08:10:57Z</time>
      </trkpt>
      <trkpt lat="49.45657" lon="1.47604">
        <ele>147.99</ele>
        <time>2015-06-14T08:10:58Z</time>
      </trkpt>
      <trkpt lat="49.4566" lon="1.47605">
        <ele>147.79</ele>
        <time>2015-06-14T08:10:59Z</time>
      </trkpt>
      <trkpt lat="49.45663" lon="1.47607">
        <ele>147.76</ele>
        <time>2015-06-14T08:11:00Z</time>
      </trkpt>
      <trkpt lat="49.45668" lon="1.47605">
        <ele>147.76</ele>
        <time>2015-06-14T08:11:08Z</time>
      </trkpt>
      <trkpt lat="49.45663" lon="1.47607">
        <ele>147.79</ele>
        <time>2015-06-14T08:11:45Z</time>
      </trkpt>
      <trkpt lat="49.45655" lon="1.47609">
        <ele>148.38</ele>
        <time>2015-06-14T08:12:14Z</time>
      </trkpt>
      <trkpt lat="49.45655" lon="1.47608">
        <ele>148.24</ele>
        <time>2015-06-14T08:12:16Z</time>
      </trkpt>
      <trkpt lat="49.45656" lon="1.47607">
        <ele>148.16</ele>
        <time>2015-06-14T08:12:17Z</time>
      </trkpt>
      <trkpt lat="49.45655" lon="1.47606">
        <ele>147.58</ele>
        <time>2015-06-14T08:12:53Z</time>
      </trkpt>
      <trkpt lat="49.45658" lon="1.47603">
        <ele>147.77</ele>
        <time>2015-06-14T08:13:11Z</time>
      </trkpt>
      <trkpt lat="49.45657" lon="1.47599">
        <ele>147.77</ele>
        <time>2015-06-14T08:13:13Z</time>
      </trkpt>
      <trkpt lat="49.45665" lon="1.4752">
        <ele>148.33</ele>
        <time>2015-06-14T08:13:28Z</time>
      </trkpt>
      <trkpt lat="49.45669" lon="1.47447">
        <ele>150.36</ele>
        <time>2015-06-14T08:13:44Z</time>
      </trkpt>
      <trkpt lat="49.45683" lon="1.47367">
        <ele>150.97</ele>
        <time>2015-06-14T08:13:59Z</time>
      </trkpt>
      <trkpt lat="49.45689" lon="1.47312">
        <ele>150.7</ele>
        <time>2015-06-14T08:14:07Z</time>
      </trkpt>
      <trkpt lat="49.45689" lon="1.47304">
        <ele>150.21</ele>
        <time>2015-06-14T08:14:08Z</time>
      </trkpt>
      <trkpt lat="49.45688" lon="1.47296">
        <ele>150.02</ele>
        <time>2015-06-14T08:14:09Z</time>
      </trkpt>
      <trkpt lat="49.45716" lon="1.47223">
        <ele>148.97</ele>
        <time>2015-06-14T08:14:21Z</time>
      </trkpt>
      <trkpt lat="49.4572" lon="1.47214">
        <ele>148.97</ele>
        <time>2015-06-14T08:14:22Z</time>
      </trkpt>
      <trkpt lat="49.45723" lon="1.47206">
        <ele>148.98</ele>
        <time>2015-06-14T08:14:23Z</time>
      </trkpt>
      <trkpt lat="49.45747" lon="1.47155">
        <ele>147.64</ele>
        <time>2015-06-14T08:14:30Z</time>
      </trkpt>
      <trkpt lat="49.45751" lon="1.47146">
        <ele>147.4</ele>
        <time>2015-06-14T08:14:31Z</time>
      </trkpt>
      <trkpt lat="49.45764" lon="1.47068">
        <ele>145.54</ele>
        <time>2015-06-14T08:14:39Z</time>
      </trkpt>
      <trkpt lat="49.45778" lon="1.4699">
        <ele>146.71</ele>
        <time>2015-06-14T08:14:48Z</time>
      </trkpt>
      <trkpt lat="49.4578" lon="1.46965">
        <ele>148.29</ele>
        <time>2015-06-14T08:14:52Z</time>
      </trkpt>
      <trkpt lat="49.4578" lon="1.46916">
        <ele>150.4</ele>
        <time>2015-06-14T08:15:00Z</time>
      </trkpt>
      <trkpt lat="49.45775" lon="1.46904">
        <ele>151.12</ele>
        <time>2015-06-14T08:15:02Z</time>
      </trkpt>
      <trkpt lat="49.45734" lon="1.46854">
        <ele>152.51</ele>
        <time>2015-06-14T08:15:16Z</time>
      </trkpt>
      <trkpt lat="49.45723" lon="1.46842">
        <ele>152.54</ele>
        <time>2015-06-14T08:15:19Z</time>
      </trkpt>
      <trkpt lat="49.45707" lon="1.46828">
        <ele>152.29</ele>
        <time>2015-06-14T08:15:23Z</time>
      </trkpt>
      <trkpt lat="49.45704" lon="1.46823">
        <ele>152.31</ele>
        <time>2015-06-14T08:15:24Z</time>
      </trkpt>
      <trkpt lat="49.45699" lon="1.46819">
        <ele>152.41</ele>
        <time>2015-06-14T08:15:25Z</time>
      </trkpt>
      <trkpt lat="49.45651" lon="1.46777">
        <ele>151.7</ele>
        <time>2015-06-14T08:15:35Z</time>
      </trkpt>
      <trkpt lat="49.45611" lon="1.46729">
        <ele>149.94</ele>
        <time>2015-06-14T08:15:43Z</time>
      </trkpt>
      <trkpt lat="49.45595" lon="1.46707">
        <ele>149.26</ele>
        <time>2015-06-14T08:15:46Z</time>
      </trkpt>
      <trkpt lat="49.45585" lon="1.46695">
        <ele>148.89</ele>
        <time>2015-06-14T08:15:47Z</time>
      </trkpt>
      <trkpt lat="49.45577" lon="1.4668">
        <ele>147.6</ele>
        <time>2015-06-14T08:15:49Z</time>
      </trkpt>
      <trkpt lat="49.4556" lon="1.46646">
        <ele>146.05</ele>
        <time>2015-06-14T08:15:53Z</time>
      </trkpt>
      <trkpt lat="49.45556" lon="1.46635">
        <ele>145.82</ele>
        <time>2015-06-14T08:15:54Z</time>
      </trkpt>
      <trkpt lat="49.45548" lon="1.46611">
        <ele>144.89</ele>
        <time>2015-06-14T08:15:56Z</time>
      </trkpt>
      <trkpt lat="49.45528" lon="1.46533">
        <ele>141.79</ele>
        <time>2015-06-14T08:16:02Z</time>
      </trkpt>
      <trkpt lat="49.45508" lon="1.46457">
        <ele>138.76</ele>
        <time>2015-06-14T08:16:08Z</time>
      </trkpt>
      <trkpt lat="49.45489" lon="1.46394">
        <ele>135.71</ele>
        <time>2015-06-14T08:16:13Z</time>
      </trkpt>
      <trkpt lat="49.45481" lon="1.46376">
        <ele>134.53</ele>
        <time>2015-06-14T08:16:15Z</time>
      </trkpt>
      <trkpt lat="49.45478" lon="1.46369">
        <ele>133.99</ele>
        <time>2015-06-14T08:16:16Z</time>
      </trkpt>
      <trkpt lat="49.45474" lon="1.46364">
        <ele>133.38</ele>
        <time>2015-06-14T08:16:17Z</time>
      </trkpt>
      <trkpt lat="49.45471" lon="1.46354">
        <ele>132.29</ele>
        <time>2015-06-14T08:16:20Z</time>
      </trkpt>
      <trkpt lat="49.45472" lon="1.46352">
        <ele>132.2</ele>
        <time>2015-06-14T08:16:21Z</time>
      </trkpt>
      <trkpt lat="49.45473" lon="1.46351">
        <ele>132.18</ele>
        <time>2015-06-14T08:16:22Z</time>
      </trkpt>
      <trkpt lat="49.45475" lon="1.4635">
        <ele>132.57</ele>
        <time>2015-06-14T08:16:23Z</time>
      </trkpt>
      <trkpt lat="49.45477" lon="1.46348">
        <ele>132.85</ele>
        <time>2015-06-14T08:16:24Z</time>
      </trkpt>
      <trkpt lat="49.45494" lon="1.46338">
        <ele>135.08</ele>
        <time>2015-06-14T08:16:30Z</time>
      </trkpt>
      <trkpt lat="49.45498" lon="1.46309">
        <ele>138.29</ele>
        <time>2015-06-14T08:16:38Z</time>
      </trkpt>
      <trkpt lat="49.45458" lon="1.46257">
        <ele>140.7</ele>
        <time>2015-06-14T08:16:53Z</time>
      </trkpt>
      <trkpt lat="49.4543" lon="1.46186">
        <ele>142.41</ele>
        <time>2015-06-14T08:17:07Z</time>
      </trkpt>
      <trkpt lat="49.45422" lon="1.46105">
        <ele>144.3</ele>
        <time>2015-06-14T08:17:20Z</time>
      </trkpt>
      <trkpt lat="49.45413" lon="1.46025">
        <ele>146.16</ele>
        <time>2015-06-14T08:17:33Z</time>
      </trkpt>
      <trkpt lat="49.45409" lon="1.45947">
        <ele>147.5</ele>
        <time>2015-06-14T08:17:46Z</time>
      </trkpt>
      <trkpt lat="49.4541" lon="1.45862">
        <ele>148.4</ele>
        <time>2015-06-14T08:17:59Z</time>
      </trkpt>
      <trkpt lat="49.45408" lon="1.45799">
        <ele>149.14</ele>
        <time>2015-06-14T08:18:08Z</time>
      </trkpt>
      <trkpt lat="49.45407" lon="1.45792">
        <ele>149.07</ele>
        <time>2015-06-14T08:18:09Z</time>
      </trkpt>
      <trkpt lat="49.4541" lon="1.45719">
        <ele>149.67</ele>
        <time>2015-06-14T08:18:22Z</time>
      </trkpt>
      <trkpt lat="49.45427" lon="1.45642">
        <ele>149.5</ele>
        <time>2015-06-14T08:18:34Z</time>
      </trkpt>
      <trkpt lat="49.45437" lon="1.45597">
        <ele>148.25</ele>
        <time>2015-06-14T08:18:40Z</time>
      </trkpt>
      <trkpt lat="49.45437" lon="1.45589">
        <ele>148.11</ele>
        <time>2015-06-14T08:18:41Z</time>
      </trkpt>
      <trkpt lat="49.45437" lon="1.45581">
        <ele>148.11</ele>
        <time>2015-06-14T08:18:42Z</time>
      </trkpt>
      <trkpt lat="49.45436" lon="1.45573">
        <ele>147.94</ele>
        <time>2015-06-14T08:18:43Z</time>
      </trkpt>
      <trkpt lat="49.45434" lon="1.45563">
        <ele>147.35</ele>
        <time>2015-06-14T08:18:44Z</time>
      </trkpt>
      <trkpt lat="49.45428" lon="1.45519">
        <ele>146.09</ele>
        <time>2015-06-14T08:18:49Z</time>
      </trkpt>
      <trkpt lat="49.4541" lon="1.45433">
        <ele>143.5</ele>
        <time>2015-06-14T08:18:57Z</time>
      </trkpt>
      <trkpt lat="49.45393" lon="1.45359">
        <ele>141.47</ele>
        <time>2015-06-14T08:19:05Z</time>
      </trkpt>
      <trkpt lat="49.45368" lon="1.45281">
        <ele>139.12</ele>
        <time>2015-06-14T08:19:14Z</time>
      </trkpt>
      <trkpt lat="49.45364" lon="1.45262">
        <ele>139.13</ele>
        <time>2015-06-14T08:19:16Z</time>
      </trkpt>
      <trkpt lat="49.45356" lon="1.45181">
        <ele>137.07</ele>
        <time>2015-06-14T08:19:24Z</time>
      </trkpt>
      <trkpt lat="49.45345" lon="1.45142">
        <ele>135.7</ele>
        <time>2015-06-14T08:19:28Z</time>
      </trkpt>
      <trkpt lat="49.45319" lon="1.45074">
        <ele>136.82</ele>
        <time>2015-06-14T08:19:36Z</time>
      </trkpt>
      <trkpt lat="49.45286" lon="1.45003">
        <ele>136.86</ele>
        <time>2015-06-14T08:19:45Z</time>
      </trkpt>
      <trkpt lat="49.45261" lon="1.44939">
        <ele>135.17</ele>
        <time>2015-06-14T08:19:52Z</time>
      </trkpt>
      <trkpt lat="49.45247" lon="1.44889">
        <ele>132.11</ele>
        <time>2015-06-14T08:19:58Z</time>
      </trkpt>
      <trkpt lat="49.45247" lon="1.44881">
        <ele>131.33</ele>
        <time>2015-06-14T08:19:59Z</time>
      </trkpt>
      <trkpt lat="49.45247" lon="1.44871">
        <ele>130.53</ele>
        <time>2015-06-14T08:20:00Z</time>
      </trkpt>
      <trkpt lat="49.45248" lon="1.44863">
        <ele>130.08</ele>
        <time>2015-06-14T08:20:01Z</time>
      </trkpt>
      <trkpt lat="49.4525" lon="1.44854">
        <ele>129.93</ele>
        <time>2015-06-14T08:20:02Z</time>
      </trkpt>
      <trkpt lat="49.45253" lon="1.44845">
        <ele>129.86</ele>
        <time>2015-06-14T08:20:03Z</time>
      </trkpt>
      <trkpt lat="49.45256" lon="1.44836">
        <ele>129.89</ele>
        <time>2015-06-14T08:20:04Z</time>
      </trkpt>
      <trkpt lat="49.4526" lon="1.44827">
        <ele>129.85</ele>
        <time>2015-06-14T08:20:05Z</time>
      </trkpt>
      <trkpt lat="49.45262" lon="1.44818">
        <ele>129.78</ele>
        <time>2015-06-14T08:20:06Z</time>
      </trkpt>
      <trkpt lat="49.45273" lon="1.44775">
        <ele>127.97</ele>
        <time>2015-06-14T08:20:11Z</time>
      </trkpt>
      <trkpt lat="49.45301" lon="1.4469">
        <ele>124.49</ele>
        <time>2015-06-14T08:20:19Z</time>
      </trkpt>
      <trkpt lat="49.45316" lon="1.44643">
        <ele>121.41</ele>
        <time>2015-06-14T08:20:24Z</time>
      </trkpt>
      <trkpt lat="49.45341" lon="1.44573">
        <ele>117.8</ele>
        <time>2015-06-14T08:20:31Z</time>
      </trkpt>
      <trkpt lat="49.45362" lon="1.44513">
        <ele>114.82</ele>
        <time>2015-06-14T08:20:37Z</time>
      </trkpt>
      <trkpt lat="49.45386" lon="1.44468">
        <ele>113.54</ele>
        <time>2015-06-14T08:20:44Z</time>
      </trkpt>
      <trkpt lat="49.45386" lon="1.44463">
        <ele>113.12</ele>
        <time>2015-06-14T08:20:45Z</time>
      </trkpt>
      <trkpt lat="49.45385" lon="1.44459">
        <ele>112.66</ele>
        <time>2015-06-14T08:20:46Z</time>
      </trkpt>
      <trkpt lat="49.45382" lon="1.44456">
        <ele>112.11</ele>
        <time>2015-06-14T08:20:47Z</time>
      </trkpt>
      <trkpt lat="49.45379" lon="1.44453">
        <ele>111.38</ele>
        <time>2015-06-14T08:20:48Z</time>
      </trkpt>
      <trkpt lat="49.45375" lon="1.44451">
        <ele>110.55</ele>
        <time>2015-06-14T08:20:49Z</time>
      </trkpt>
      <trkpt lat="49.4537" lon="1.44447">
        <ele>108.85</ele>
        <time>2015-06-14T08:20:50Z</time>
      </trkpt>
      <trkpt lat="49.45359" lon="1.44438">
        <ele>106.1</ele>
        <time>2015-06-14T08:20:52Z</time>
      </trkpt>
      <trkpt lat="49.45356" lon="1.44432">
        <ele>105.03</ele>
        <time>2015-06-14T08:20:53Z</time>
      </trkpt>
      <trkpt lat="49.45353" lon="1.44426">
        <ele>103.78</ele>
        <time>2015-06-14T08:20:54Z</time>
      </trkpt>
      <trkpt lat="49.4535" lon="1.44419">
        <ele>102.64</ele>
        <time>2015-06-14T08:20:55Z</time>
      </trkpt>
      <trkpt lat="49.45348" lon="1.44411">
        <ele>102.04</ele>
        <time>2015-06-14T08:20:56Z</time>
      </trkpt>
      <trkpt lat="49.45346" lon="1.44403">
        <ele>100.69</ele>
        <time>2015-06-14T08:20:57Z</time>
      </trkpt>
      <trkpt lat="49.45344" lon="1.44393">
        <ele>99.1</ele>
        <time>2015-06-14T08:20:58Z</time>
      </trkpt>
      <trkpt lat="49.45344" lon="1.44384">
        <ele>97.47</ele>
        <time>2015-06-14T08:20:59Z</time>
      </trkpt>
      <trkpt lat="49.45345" lon="1.44375">
        <ele>96.35</ele>
        <time>2015-06-14T08:21:00Z</time>
      </trkpt>
      <trkpt lat="49.45348" lon="1.44366">
        <ele>95.4</ele>
        <time>2015-06-14T08:21:01Z</time>
      </trkpt>
      <trkpt lat="49.45351" lon="1.44358">
        <ele>94.94</ele>
        <time>2015-06-14T08:21:02Z</time>
      </trkpt>
      <trkpt lat="49.45355" lon="1.44349">
        <ele>94.77</ele>
        <time>2015-06-14T08:21:03Z</time>
      </trkpt>
      <trkpt lat="49.45359" lon="1.4434">
        <ele>95.07</ele>
        <time>2015-06-14T08:21:04Z</time>
      </trkpt>
      <trkpt lat="49.45364" lon="1.44333">
        <ele>95.32</ele>
        <time>2015-06-14T08:21:05Z</time>
      </trkpt>
      <trkpt lat="49.45367" lon="1.44326">
        <ele>95.2</ele>
        <time>2015-06-14T08:21:06Z</time>
      </trkpt>
      <trkpt lat="49.4537" lon="1.44317">
        <ele>95.02</ele>
        <time>2015-06-14T08:21:07Z</time>
      </trkpt>
      <trkpt lat="49.45376" lon="1.443">
        <ele>93.87</ele>
        <time>2015-06-14T08:21:09Z</time>
      </trkpt>
      <trkpt lat="49.45378" lon="1.44293">
        <ele>93.4</ele>
        <time>2015-06-14T08:21:10Z</time>
      </trkpt>
      <trkpt lat="49.4538" lon="1.44285">
        <ele>93</ele>
        <time>2015-06-14T08:21:11Z</time>
      </trkpt>
      <trkpt lat="49.45378" lon="1.44277">
        <ele>92.71</ele>
        <time>2015-06-14T08:21:12Z</time>
      </trkpt>
      <trkpt lat="49.45376" lon="1.44271">
        <ele>91.99</ele>
        <time>2015-06-14T08:21:13Z</time>
      </trkpt>
      <trkpt lat="49.45375" lon="1.44266">
        <ele>91.03</ele>
        <time>2015-06-14T08:21:14Z</time>
      </trkpt>
      <trkpt lat="49.45374" lon="1.44262">
        <ele>90.64</ele>
        <time>2015-06-14T08:21:15Z</time>
      </trkpt>
      <trkpt lat="49.45373" lon="1.44257">
        <ele>90.3</ele>
        <time>2015-06-14T08:21:16Z</time>
      </trkpt>
      <trkpt lat="49.45375" lon="1.44254">
        <ele>90.14</ele>
        <time>2015-06-14T08:21:17Z</time>
      </trkpt>
      <trkpt lat="49.45377" lon="1.44251">
        <ele>90.08</ele>
        <time>2015-06-14T08:21:18Z</time>
      </trkpt>
      <trkpt lat="49.4538" lon="1.44248">
        <ele>90.07</ele>
        <time>2015-06-14T08:21:19Z</time>
      </trkpt>
      <trkpt lat="49.45383" lon="1.44244">
        <ele>90.05</ele>
        <time>2015-06-14T08:21:20Z</time>
      </trkpt>
      <trkpt lat="49.45386" lon="1.44241">
        <ele>89.93</ele>
        <time>2015-06-14T08:21:21Z</time>
      </trkpt>
      <trkpt lat="49.45422" lon="1.44193">
        <ele>88.85</ele>
        <time>2015-06-14T08:21:32Z</time>
      </trkpt>
      <trkpt lat="49.45463" lon="1.44143">
        <ele>87.84</ele>
        <time>2015-06-14T08:21:42Z</time>
      </trkpt>
      <trkpt lat="49.45503" lon="1.44097">
        <ele>87.27</ele>
        <time>2015-06-14T08:21:51Z</time>
      </trkpt>
      <trkpt lat="49.45537" lon="1.44045">
        <ele>86.58</ele>
        <time>2015-06-14T08:22:00Z</time>
      </trkpt>
      <trkpt lat="49.45558" lon="1.43979">
        <ele>86.53</ele>
        <time>2015-06-14T08:22:09Z</time>
      </trkpt>
      <trkpt lat="49.45571" lon="1.43907">
        <ele>85.72</ele>
        <time>2015-06-14T08:22:18Z</time>
      </trkpt>
      <trkpt lat="49.45583" lon="1.43834">
        <ele>86.15</ele>
        <time>2015-06-14T08:22:27Z</time>
      </trkpt>
      <trkpt lat="49.45593" lon="1.43757">
        <ele>86.28</ele>
        <time>2015-06-14T08:22:36Z</time>
      </trkpt>
      <trkpt lat="49.45598" lon="1.43681">
        <ele>86.03</ele>
        <time>2015-06-14T08:22:46Z</time>
      </trkpt>
      <trkpt lat="49.45599" lon="1.43608">
        <ele>85.95</ele>
        <time>2015-06-14T08:22:55Z</time>
      </trkpt>
      <trkpt lat="49.45597" lon="1.43529">
        <ele>84.66</ele>
        <time>2015-06-14T08:23:05Z</time>
      </trkpt>
      <trkpt lat="49.45607" lon="1.43454">
        <ele>85.07</ele>
        <time>2015-06-14T08:23:14Z</time>
      </trkpt>
      <trkpt lat="49.45609" lon="1.43374">
        <ele>84.53</ele>
        <time>2015-06-14T08:23:23Z</time>
      </trkpt>
      <trkpt lat="49.45611" lon="1.43296">
        <ele>83.69</ele>
        <time>2015-06-14T08:23:32Z</time>
      </trkpt>
      <trkpt lat="49.45615" lon="1.43243">
        <ele>82.82</ele>
        <time>2015-06-14T08:23:38Z</time>
      </trkpt>
      <trkpt lat="49.45615" lon="1.43233">
        <ele>82.78</ele>
        <time>2015-06-14T08:23:39Z</time>
      </trkpt>
      <trkpt lat="49.45614" lon="1.43224">
        <ele>82.8</ele>
        <time>2015-06-14T08:23:40Z</time>
      </trkpt>
      <trkpt lat="49.45603" lon="1.43147">
        <ele>82.69</ele>
        <time>2015-06-14T08:23:49Z</time>
      </trkpt>
      <trkpt lat="49.45592" lon="1.43069">
        <ele>83.09</ele>
        <time>2015-06-14T08:23:59Z</time>
      </trkpt>
      <trkpt lat="49.45589" lon="1.43037">
        <ele>82.56</ele>
        <time>2015-06-14T08:24:03Z</time>
      </trkpt>
      <trkpt lat="49.45587" lon="1.43029">
        <ele>82.39</ele>
        <time>2015-06-14T08:24:04Z</time>
      </trkpt>
      <trkpt lat="49.45568" lon="1.42953">
        <ele>80.84</ele>
        <time>2015-06-14T08:24:13Z</time>
      </trkpt>
      <trkpt lat="49.45566" lon="1.42926">
        <ele>80.56</ele>
        <time>2015-06-14T08:24:16Z</time>
      </trkpt>
      <trkpt lat="49.45574" lon="1.42843">
        <ele>78.56</ele>
        <time>2015-06-14T08:24:24Z</time>
      </trkpt>
      <trkpt lat="49.45588" lon="1.42768">
        <ele>78.21</ele>
        <time>2015-06-14T08:24:32Z</time>
      </trkpt>
      <trkpt lat="49.45601" lon="1.42691">
        <ele>78.51</ele>
        <time>2015-06-14T08:24:42Z</time>
      </trkpt>
      <trkpt lat="49.45602" lon="1.42673">
        <ele>78.26</ele>
        <time>2015-06-14T08:24:44Z</time>
      </trkpt>
      <trkpt lat="49.45594" lon="1.42591">
        <ele>76.57</ele>
        <time>2015-06-14T08:24:53Z</time>
      </trkpt>
      <trkpt lat="49.45592" lon="1.42583">
        <ele>76.44</ele>
        <time>2015-06-14T08:24:54Z</time>
      </trkpt>
      <trkpt lat="49.45588" lon="1.42576">
        <ele>76.41</ele>
        <time>2015-06-14T08:24:55Z</time>
      </trkpt>
      <trkpt lat="49.45556" lon="1.42525">
        <ele>76.46</ele>
        <time>2015-06-14T08:25:04Z</time>
      </trkpt>
      <trkpt lat="49.45517" lon="1.4248">
        <ele>77.71</ele>
        <time>2015-06-14T08:25:17Z</time>
      </trkpt>
      <trkpt lat="49.45477" lon="1.42404">
        <ele>79.65</ele>
        <time>2015-06-14T08:25:35Z</time>
      </trkpt>
      <trkpt lat="49.45447" lon="1.42339">
        <ele>82.66</ele>
        <time>2015-06-14T08:25:51Z</time>
      </trkpt>
      <trkpt lat="49.45419" lon="1.42251">
        <ele>85.36</ele>
        <time>2015-06-14T08:26:10Z</time>
      </trkpt>
      <trkpt lat="49.45394" lon="1.42183">
        <ele>88.45</ele>
        <time>2015-06-14T08:26:24Z</time>
      </trkpt>
      <trkpt lat="49.45379" lon="1.42112">
        <ele>91.64</ele>
        <time>2015-06-14T08:26:41Z</time>
      </trkpt>
      <trkpt lat="49.45376" lon="1.42107">
        <ele>91.91</ele>
        <time>2015-06-14T08:26:42Z</time>
      </trkpt>
      <trkpt lat="49.45358" lon="1.42059">
        <ele>94.96</ele>
        <time>2015-06-14T08:26:56Z</time>
      </trkpt>
      <trkpt lat="49.45336" lon="1.42028">
        <ele>98.08</ele>
        <time>2015-06-14T08:27:11Z</time>
      </trkpt>
      <trkpt lat="49.45293" lon="1.4202">
        <ele>101.11</ele>
        <time>2015-06-14T08:27:27Z</time>
      </trkpt>
      <trkpt lat="49.45233" lon="1.42042">
        <ele>104.34</ele>
        <time>2015-06-14T08:27:48Z</time>
      </trkpt>
      <trkpt lat="49.45212" lon="1.42052">
        <ele>106.32</ele>
        <time>2015-06-14T08:27:56Z</time>
      </trkpt>
      <trkpt lat="49.4521" lon="1.42054">
        <ele>106.61</ele>
        <time>2015-06-14T08:27:57Z</time>
      </trkpt>
      <trkpt lat="49.45208" lon="1.42055">
        <ele>106.77</ele>
        <time>2015-06-14T08:27:58Z</time>
      </trkpt>
      <trkpt lat="49.45199" lon="1.42059">
        <ele>107.4</ele>
        <time>2015-06-14T08:28:02Z</time>
      </trkpt>
      <trkpt lat="49.45197" lon="1.4206">
        <ele>107.44</ele>
        <time>2015-06-14T08:28:03Z</time>
      </trkpt>
      <trkpt lat="49.45196" lon="1.42061">
        <ele>107.34</ele>
        <time>2015-06-14T08:28:04Z</time>
      </trkpt>
      <trkpt lat="49.45194" lon="1.42062">
        <ele>107.3</ele>
        <time>2015-06-14T08:28:05Z</time>
      </trkpt>
      <trkpt lat="49.45193" lon="1.42063">
        <ele>107.41</ele>
        <time>2015-06-14T08:28:06Z</time>
      </trkpt>
      <trkpt lat="49.45192" lon="1.42063">
        <ele>107.6</ele>
        <time>2015-06-14T08:28:07Z</time>
      </trkpt>
      <trkpt lat="49.4519" lon="1.42064">
        <ele>107.68</ele>
        <time>2015-06-14T08:28:08Z</time>
      </trkpt>
      <trkpt lat="49.45189" lon="1.42066">
        <ele>107.79</ele>
        <time>2015-06-14T08:28:09Z</time>
      </trkpt>
      <trkpt lat="49.45189" lon="1.42068">
        <ele>108.2</ele>
        <time>2015-06-14T08:28:10Z</time>
      </trkpt>
      <trkpt lat="49.45136" lon="1.42104">
        <ele>111.48</ele>
        <time>2015-06-14T08:28:32Z</time>
      </trkpt>
      <trkpt lat="49.45089" lon="1.42132">
        <ele>114.48</ele>
        <time>2015-06-14T08:28:49Z</time>
      </trkpt>
      <trkpt lat="49.4504" lon="1.42137">
        <ele>117.59</ele>
        <time>2015-06-14T08:29:09Z</time>
      </trkpt>
      <trkpt lat="49.44997" lon="1.42142">
        <ele>120.69</ele>
        <time>2015-06-14T08:29:27Z</time>
      </trkpt>
      <trkpt lat="49.44948" lon="1.42123">
        <ele>123.81</ele>
        <time>2015-06-14T08:29:44Z</time>
      </trkpt>
      <trkpt lat="49.4491" lon="1.42099">
        <ele>127.02</ele>
        <time>2015-06-14T08:29:58Z</time>
      </trkpt>
      <trkpt lat="49.44855" lon="1.42074">
        <ele>130.11</ele>
        <time>2015-06-14T08:30:13Z</time>
      </trkpt>
      <trkpt lat="49.44827" lon="1.4205">
        <ele>133.12</ele>
        <time>2015-06-14T08:30:27Z</time>
      </trkpt>
      <trkpt lat="49.44801" lon="1.42022">
        <ele>136.17</ele>
        <time>2015-06-14T08:30:40Z</time>
      </trkpt>
      <trkpt lat="49.44781" lon="1.41977">
        <ele>139.23</ele>
        <time>2015-06-14T08:30:53Z</time>
      </trkpt>
      <trkpt lat="49.44759" lon="1.41935">
        <ele>142.36</ele>
        <time>2015-06-14T08:31:06Z</time>
      </trkpt>
      <trkpt lat="49.44753" lon="1.41916">
        <ele>143.44</ele>
        <time>2015-06-14T08:31:13Z</time>
      </trkpt>
      <trkpt lat="49.44712" lon="1.41842">
        <ele>145.87</ele>
        <time>2015-06-14T08:31:32Z</time>
      </trkpt>
      <trkpt lat="49.44711" lon="1.41825">
        <ele>146.97</ele>
        <time>2015-06-14T08:31:37Z</time>
      </trkpt>
      <trkpt lat="49.44708" lon="1.41822">
        <ele>147.37</ele>
        <time>2015-06-14T08:31:46Z</time>
      </trkpt>
      <trkpt lat="49.44706" lon="1.41824">
        <ele>147.34</ele>
        <time>2015-06-14T08:31:47Z</time>
      </trkpt>
      <trkpt lat="49.44705" lon="1.41826">
        <ele>147.15</ele>
        <time>2015-06-14T08:31:48Z</time>
      </trkpt>
      <trkpt lat="49.44705" lon="1.41829">
        <ele>146.95</ele>
        <time>2015-06-14T08:31:49Z</time>
      </trkpt>
      <trkpt lat="49.44705" lon="1.41833">
        <ele>146.64</ele>
        <time>2015-06-14T08:31:50Z</time>
      </trkpt>
      <trkpt lat="49.44684" lon="1.41903">
        <ele>148.96</ele>
        <time>2015-06-14T08:32:07Z</time>
      </trkpt>
      <trkpt lat="49.44662" lon="1.41982">
        <ele>148.17</ele>
        <time>2015-06-14T08:32:21Z</time>
      </trkpt>
      <trkpt lat="49.44648" lon="1.42064">
        <ele>149.42</ele>
        <time>2015-06-14T08:32:37Z</time>
      </trkpt>
      <trkpt lat="49.44646" lon="1.42148">
        <ele>147.9</ele>
        <time>2015-06-14T08:32:51Z</time>
      </trkpt>
      <trkpt lat="49.44636" lon="1.42252">
        <ele>148.56</ele>
        <time>2015-06-14T08:33:05Z</time>
      </trkpt>
      <trkpt lat="49.4462" lon="1.42337">
        <ele>148.52</ele>
        <time>2015-06-14T08:33:19Z</time>
      </trkpt>
      <trkpt lat="49.44602" lon="1.42372">
        <ele>148.92</ele>
        <time>2015-06-14T08:33:34Z</time>
      </trkpt>
      <trkpt lat="49.44606" lon="1.42373">
        <ele>148.97</ele>
        <time>2015-06-14T08:33:35Z</time>
      </trkpt>
      <trkpt lat="49.44636" lon="1.42376">
        <ele>147.27</ele>
        <time>2015-06-14T08:33:42Z</time>
      </trkpt>
      <trkpt lat="49.4464" lon="1.42376">
        <ele>146.41</ele>
        <time>2015-06-14T08:33:43Z</time>
      </trkpt>
      <trkpt lat="49.44685" lon="1.42376">
        <ele>143.41</ele>
        <time>2015-06-14T08:33:51Z</time>
      </trkpt>
      <trkpt lat="49.44724" lon="1.42371">
        <ele>145.04</ele>
        <time>2015-06-14T08:34:04Z</time>
      </trkpt>
      <trkpt lat="49.44756" lon="1.42366">
        <ele>147.74</ele>
        <time>2015-06-14T08:34:30Z</time>
      </trkpt>
      <trkpt lat="49.44766" lon="1.42374">
        <ele>146.19</ele>
        <time>2015-06-14T08:35:12Z</time>
      </trkpt>
      <trkpt lat="49.44764" lon="1.42371">
        <ele>146.06</ele>
        <time>2015-06-14T08:35:15Z</time>
      </trkpt>
      <trkpt lat="49.44769" lon="1.42377">
        <ele>147.26</ele>
        <time>2015-06-14T08:35:30Z</time>
      </trkpt>
      <trkpt lat="49.44768" lon="1.42378">
        <ele>147.25</ele>
        <time>2015-06-14T08:35:31Z</time>
      </trkpt>
      <trkpt lat="49.4477" lon="1.42382">
        <ele>147.3</ele>
        <time>2015-06-14T08:35:41Z</time>
      </trkpt>
      <trkpt lat="49.4477" lon="1.4238">
        <ele>146.98</ele>
        <time>2015-06-14T08:35:44Z</time>
      </trkpt>
      <trkpt lat="49.44769" lon="1.42379">
        <ele>147.14</ele>
        <time>2015-06-14T08:35:46Z</time>
      </trkpt>
      <trkpt lat="49.44768" lon="1.42378">
        <ele>147.13</ele>
        <time>2015-06-14T08:35:47Z</time>
      </trkpt>
      <trkpt lat="49.44764" lon="1.42374">
        <ele>147.06</ele>
        <time>2015-06-14T08:35:55Z</time>
      </trkpt>
      <trkpt lat="49.44762" lon="1.42377">
        <ele>147.11</ele>
        <time>2015-06-14T08:36:05Z</time>
      </trkpt>
      <trkpt lat="49.44758" lon="1.42373">
        <ele>147.08</ele>
        <time>2015-06-14T08:36:08Z</time>
      </trkpt>
      <trkpt lat="49.44759" lon="1.42372">
        <ele>147.4</ele>
        <time>2015-06-14T08:36:14Z</time>
      </trkpt>
      <trkpt lat="49.44766" lon="1.42382">
        <ele>147.13</ele>
        <time>2015-06-14T08:36:39Z</time>
      </trkpt>
      <trkpt lat="49.44759" lon="1.42378">
        <ele>146.65</ele>
        <time>2015-06-14T08:36:56Z</time>
      </trkpt>
      <trkpt lat="49.44759" lon="1.42378">
        <ele>147.42</ele>
        <time>2015-06-14T08:37:09Z</time>
      </trkpt>
      <trkpt lat="49.4476" lon="1.42378">
        <ele>147.44</ele>
        <time>2015-06-14T08:37:10Z</time>
      </trkpt>
      <trkpt lat="49.44766" lon="1.42377">
        <ele>147.1</ele>
        <time>2015-06-14T08:37:45Z</time>
      </trkpt>
      <trkpt lat="49.44765" lon="1.42376">
        <ele>147.07</ele>
        <time>2015-06-14T08:37:46Z</time>
      </trkpt>
      <trkpt lat="49.44762" lon="1.42375">
        <ele>146.95</ele>
        <time>2015-06-14T08:37:54Z</time>
      </trkpt>
      <trkpt lat="49.44761" lon="1.42374">
        <ele>146.91</ele>
        <time>2015-06-14T08:37:55Z</time>
      </trkpt>
      <trkpt lat="49.44758" lon="1.42378">
        <ele>146.68</ele>
        <time>2015-06-14T08:38:12Z</time>
      </trkpt>
      <trkpt lat="49.44758" lon="1.42375">
        <ele>146.26</ele>
        <time>2015-06-14T08:38:23Z</time>
      </trkpt>
      <trkpt lat="49.44767" lon="1.4238">
        <ele>146.53</ele>
        <time>2015-06-14T08:39:02Z</time>
      </trkpt>
      <trkpt lat="49.44768" lon="1.42383">
        <ele>147.17</ele>
        <time>2015-06-14T08:39:11Z</time>
      </trkpt>
      <trkpt lat="49.44769" lon="1.42376">
        <ele>146.85</ele>
        <time>2015-06-14T08:39:21Z</time>
      </trkpt>
      <trkpt lat="49.44768" lon="1.42376">
        <ele>147.03</ele>
        <time>2015-06-14T08:39:32Z</time>
      </trkpt>
      <trkpt lat="49.44766" lon="1.4238">
        <ele>147.12</ele>
        <time>2015-06-14T08:39:38Z</time>
      </trkpt>
      <trkpt lat="49.44765" lon="1.42381">
        <ele>147.04</ele>
        <time>2015-06-14T08:39:39Z</time>
      </trkpt>
      <trkpt lat="49.44763" lon="1.4238">
        <ele>147.37</ele>
        <time>2015-06-14T08:39:51Z</time>
      </trkpt>
      <trkpt lat="49.44765" lon="1.42381">
        <ele>147.39</ele>
        <time>2015-06-14T08:39:54Z</time>
      </trkpt>
      <trkpt lat="49.44811" lon="1.42371">
        <ele>149.16</ele>
        <time>2015-06-14T08:40:14Z</time>
      </trkpt>
      <trkpt lat="49.44863" lon="1.4237">
        <ele>150</ele>
        <time>2015-06-14T08:40:29Z</time>
      </trkpt>
      <trkpt lat="49.44912" lon="1.42369">
        <ele>149.01</ele>
        <time>2015-06-14T08:40:41Z</time>
      </trkpt>
      <trkpt lat="49.44963" lon="1.42367">
        <ele>147.86</ele>
        <time>2015-06-14T08:40:53Z</time>
      </trkpt>
      <trkpt lat="49.44976" lon="1.42365">
        <ele>146.46</ele>
        <time>2015-06-14T08:40:56Z</time>
      </trkpt>
      <trkpt lat="49.4498" lon="1.42361">
        <ele>146.25</ele>
        <time>2015-06-14T08:40:58Z</time>
      </trkpt>
      <trkpt lat="49.44981" lon="1.42359">
        <ele>146.15</ele>
        <time>2015-06-14T08:40:59Z</time>
      </trkpt>
      <trkpt lat="49.44981" lon="1.42356">
        <ele>146.17</ele>
        <time>2015-06-14T08:41:00Z</time>
      </trkpt>
      <trkpt lat="49.44977" lon="1.42336">
        <ele>145.48</ele>
        <time>2015-06-14T08:41:06Z</time>
      </trkpt>
      <trkpt lat="49.44971" lon="1.423">
        <ele>143.39</ele>
        <time>2015-06-14T08:41:11Z</time>
      </trkpt>
      <trkpt lat="49.4497" lon="1.42293">
        <ele>142.79</ele>
        <time>2015-06-14T08:41:12Z</time>
      </trkpt>
      <trkpt lat="49.44967" lon="1.42278">
        <ele>139.55</ele>
        <time>2015-06-14T08:41:15Z</time>
      </trkpt>
      <trkpt lat="49.44967" lon="1.42263">
        <ele>135.82</ele>
        <time>2015-06-14T08:41:18Z</time>
      </trkpt>
      <trkpt lat="49.44969" lon="1.42248">
        <ele>133.63</ele>
        <time>2015-06-14T08:41:20Z</time>
      </trkpt>
      <trkpt lat="49.44971" lon="1.42228">
        <ele>129.76</ele>
        <time>2015-06-14T08:41:22Z</time>
      </trkpt>
      <trkpt lat="49.44971" lon="1.42208">
        <ele>126.33</ele>
        <time>2015-06-14T08:41:24Z</time>
      </trkpt>
      <trkpt lat="49.4497" lon="1.42185">
        <ele>123.16</ele>
        <time>2015-06-14T08:41:26Z</time>
      </trkpt>
      <trkpt lat="49.44969" lon="1.42174">
        <ele>121.61</ele>
        <time>2015-06-14T08:41:27Z</time>
      </trkpt>
      <trkpt lat="49.44967" lon="1.42164">
        <ele>120.81</ele>
        <time>2015-06-14T08:41:28Z</time>
      </trkpt>
      <trkpt lat="49.44975" lon="1.42138">
        <ele>120.12</ele>
        <time>2015-06-14T08:41:35Z</time>
      </trkpt>
      <trkpt lat="49.44979" lon="1.42139">
        <ele>119.94</ele>
        <time>2015-06-14T08:41:36Z</time>
      </trkpt>
      <trkpt lat="49.45005" lon="1.42141">
        <ele>117.62</ele>
        <time>2015-06-14T08:41:43Z</time>
      </trkpt>
      <trkpt lat="49.45063" lon="1.4213">
        <ele>115.32</ele>
        <time>2015-06-14T08:41:54Z</time>
      </trkpt>
      <trkpt lat="49.45087" lon="1.42118">
        <ele>113.69</ele>
        <time>2015-06-14T08:41:58Z</time>
      </trkpt>
      <trkpt lat="49.45133" lon="1.42087">
        <ele>110.22</ele>
        <time>2015-06-14T08:42:05Z</time>
      </trkpt>
      <trkpt lat="49.45167" lon="1.42063">
        <ele>108.45</ele>
        <time>2015-06-14T08:42:11Z</time>
      </trkpt>
      <trkpt lat="49.45171" lon="1.42058">
        <ele>108.12</ele>
        <time>2015-06-14T08:42:12Z</time>
      </trkpt>
      <trkpt lat="49.45173" lon="1.42052">
        <ele>107.95</ele>
        <time>2015-06-14T08:42:13Z</time>
      </trkpt>
      <trkpt lat="49.45174" lon="1.42047">
        <ele>107.93</ele>
        <time>2015-06-14T08:42:14Z</time>
      </trkpt>
      <trkpt lat="49.45173" lon="1.42042">
        <ele>107.83</ele>
        <time>2015-06-14T08:42:15Z</time>
      </trkpt>
      <trkpt lat="49.45172" lon="1.42038">
        <ele>107.72</ele>
        <time>2015-06-14T08:42:16Z</time>
      </trkpt>
      <trkpt lat="49.45172" lon="1.42033">
        <ele>107.95</ele>
        <time>2015-06-14T08:42:17Z</time>
      </trkpt>
      <trkpt lat="49.45175" lon="1.41992">
        <ele>111.48</ele>
        <time>2015-06-14T08:42:28Z</time>
      </trkpt>
      <trkpt lat="49.45172" lon="1.41961">
        <ele>114.74</ele>
        <time>2015-06-14T08:42:37Z</time>
      </trkpt>
      <trkpt lat="49.45169" lon="1.41937">
        <ele>117.97</ele>
        <time>2015-06-14T08:42:46Z</time>
      </trkpt>
      <trkpt lat="49.4517" lon="1.41933">
        <ele>118.56</ele>
        <time>2015-06-14T08:42:48Z</time>
      </trkpt>
      <trkpt lat="49.45171" lon="1.4193">
        <ele>119.04</ele>
        <time>2015-06-14T08:42:49Z</time>
      </trkpt>
      <trkpt lat="49.45172" lon="1.41927">
        <ele>119.43</ele>
        <time>2015-06-14T08:42:50Z</time>
      </trkpt>
      <trkpt lat="49.45189" lon="1.41894">
        <ele>122.59</ele>
        <time>2015-06-14T08:43:02Z</time>
      </trkpt>
      <trkpt lat="49.45194" lon="1.41884">
        <ele>123.52</ele>
        <time>2015-06-14T08:43:06Z</time>
      </trkpt>
      <trkpt lat="49.45223" lon="1.41855">
        <ele>126.58</ele>
        <time>2015-06-14T08:43:24Z</time>
      </trkpt>
      <trkpt lat="49.45249" lon="1.4183">
        <ele>130.07</ele>
        <time>2015-06-14T08:43:38Z</time>
      </trkpt>
      <trkpt lat="49.45268" lon="1.41805">
        <ele>133.16</ele>
        <time>2015-06-14T08:43:51Z</time>
      </trkpt>
      <trkpt lat="49.45269" lon="1.41768">
        <ele>136.17</ele>
        <time>2015-06-14T08:44:06Z</time>
      </trkpt>
      <trkpt lat="49.45263" lon="1.41743">
        <ele>139.17</ele>
        <time>2015-06-14T08:44:16Z</time>
      </trkpt>
      <trkpt lat="49.4525" lon="1.41658">
        <ele>141.27</ele>
        <time>2015-06-14T08:44:40Z</time>
      </trkpt>
      <trkpt lat="49.45233" lon="1.41564">
        <ele>142.48</ele>
        <time>2015-06-14T08:44:54Z</time>
      </trkpt>
      <trkpt lat="49.4522" lon="1.41486">
        <ele>144.14</ele>
        <time>2015-06-14T08:45:11Z</time>
      </trkpt>
      <trkpt lat="49.45221" lon="1.41483">
        <ele>144.14</ele>
        <time>2015-06-14T08:45:13Z</time>
      </trkpt>
      <trkpt lat="49.45221" lon="1.41475">
        <ele>144.29</ele>
        <time>2015-06-14T08:45:18Z</time>
      </trkpt>
      <trkpt lat="49.45221" lon="1.41473">
        <ele>144.51</ele>
        <time>2015-06-14T08:45:19Z</time>
      </trkpt>
      <trkpt lat="49.4522" lon="1.41471">
        <ele>144.66</ele>
        <time>2015-06-14T08:45:20Z</time>
      </trkpt>
      <trkpt lat="49.45219" lon="1.41469">
        <ele>144.79</ele>
        <time>2015-06-14T08:45:21Z</time>
      </trkpt>
      <trkpt lat="49.45219" lon="1.41468">
        <ele>144.77</ele>
        <time>2015-06-14T08:45:22Z</time>
      </trkpt>
      <trkpt lat="49.45217" lon="1.41465">
        <ele>144.69</ele>
        <time>2015-06-14T08:45:23Z</time>
      </trkpt>
      <trkpt lat="49.45181" lon="1.41408">
        <ele>146.67</ele>
        <time>2015-06-14T08:45:40Z</time>
      </trkpt>
      <trkpt lat="49.45178" lon="1.41406">
        <ele>146.93</ele>
        <time>2015-06-14T08:45:41Z</time>
      </trkpt>
      <trkpt lat="49.45175" lon="1.41405">
        <ele>147.15</ele>
        <time>2015-06-14T08:45:42Z</time>
      </trkpt>
      <trkpt lat="49.45165" lon="1.414">
        <ele>146.75</ele>
        <time>2015-06-14T08:45:46Z</time>
      </trkpt>
      <trkpt lat="49.45164" lon="1.41396">
        <ele>146.69</ele>
        <time>2015-06-14T08:45:47Z</time>
      </trkpt>
      <trkpt lat="49.45163" lon="1.41391">
        <ele>147.11</ele>
        <time>2015-06-14T08:45:48Z</time>
      </trkpt>
      <trkpt lat="49.4516" lon="1.41384">
        <ele>147.49</ele>
        <time>2015-06-14T08:45:49Z</time>
      </trkpt>
      <trkpt lat="49.4516" lon="1.41379">
        <ele>147.59</ele>
        <time>2015-06-14T08:45:50Z</time>
      </trkpt>
      <trkpt lat="49.45159" lon="1.41373">
        <ele>147.68</ele>
        <time>2015-06-14T08:45:51Z</time>
      </trkpt>
      <trkpt lat="49.45158" lon="1.41365">
        <ele>147.79</ele>
        <time>2015-06-14T08:45:52Z</time>
      </trkpt>
      <trkpt lat="49.45154" lon="1.41284">
        <ele>148.52</ele>
        <time>2015-06-14T08:46:06Z</time>
      </trkpt>
      <trkpt lat="49.45155" lon="1.41202">
        <ele>148.6</ele>
        <time>2015-06-14T08:46:18Z</time>
      </trkpt>
      <trkpt lat="49.45156" lon="1.41196">
        <ele>148.69</ele>
        <time>2015-06-14T08:46:19Z</time>
      </trkpt>
      <trkpt lat="49.45155" lon="1.41177">
        <ele>149.15</ele>
        <time>2015-06-14T08:46:22Z</time>
      </trkpt>
      <trkpt lat="49.45154" lon="1.41171">
        <ele>149.2</ele>
        <time>2015-06-14T08:46:23Z</time>
      </trkpt>
      <trkpt lat="49.45154" lon="1.41105">
        <ele>149.99</ele>
        <time>2015-06-14T08:46:32Z</time>
      </trkpt>
      <trkpt lat="49.45154" lon="1.41056">
        <ele>149.79</ele>
        <time>2015-06-14T08:46:38Z</time>
      </trkpt>
      <trkpt lat="49.45158" lon="1.40963">
        <ele>149.53</ele>
        <time>2015-06-14T08:46:48Z</time>
      </trkpt>
      <trkpt lat="49.45158" lon="1.40931">
        <ele>149.12</ele>
        <time>2015-06-14T08:46:52Z</time>
      </trkpt>
      <trkpt lat="49.45158" lon="1.40891">
        <ele>149.14</ele>
        <time>2015-06-14T08:46:57Z</time>
      </trkpt>
      <trkpt lat="49.4516" lon="1.40806">
        <ele>148.6</ele>
        <time>2015-06-14T08:47:08Z</time>
      </trkpt>
      <trkpt lat="49.45165" lon="1.40723">
        <ele>146.62</ele>
        <time>2015-06-14T08:47:18Z</time>
      </trkpt>
      <trkpt lat="49.45161" lon="1.40689">
        <ele>146</ele>
        <time>2015-06-14T08:47:22Z</time>
      </trkpt>
      <trkpt lat="49.45155" lon="1.4068">
        <ele>145.83</ele>
        <time>2015-06-14T08:47:23Z</time>
      </trkpt>
      <trkpt lat="49.4515" lon="1.40671">
        <ele>145.58</ele>
        <time>2015-06-14T08:47:24Z</time>
      </trkpt>
      <trkpt lat="49.45148" lon="1.40664">
        <ele>145.35</ele>
        <time>2015-06-14T08:47:25Z</time>
      </trkpt>
      <trkpt lat="49.45145" lon="1.40658">
        <ele>145.29</ele>
        <time>2015-06-14T08:47:26Z</time>
      </trkpt>
      <trkpt lat="49.45141" lon="1.40654">
        <ele>145.35</ele>
        <time>2015-06-14T08:47:27Z</time>
      </trkpt>
      <trkpt lat="49.45136" lon="1.4065">
        <ele>145.39</ele>
        <time>2015-06-14T08:47:28Z</time>
      </trkpt>
      <trkpt lat="49.45085" lon="1.40602">
        <ele>144.63</ele>
        <time>2015-06-14T08:47:39Z</time>
      </trkpt>
      <trkpt lat="49.45033" lon="1.40568">
        <ele>142.33</ele>
        <time>2015-06-14T08:47:48Z</time>
      </trkpt>
      <trkpt lat="49.45001" lon="1.40545">
        <ele>139.31</ele>
        <time>2015-06-14T08:47:53Z</time>
      </trkpt>
      <trkpt lat="49.44969" lon="1.40527">
        <ele>137.23</ele>
        <time>2015-06-14T08:47:58Z</time>
      </trkpt>
      <trkpt lat="49.44947" lon="1.40514">
        <ele>132.74</ele>
        <time>2015-06-14T08:48:03Z</time>
      </trkpt>
      <trkpt lat="49.44936" lon="1.40505">
        <ele>129.04</ele>
        <time>2015-06-14T08:48:05Z</time>
      </trkpt>
      <trkpt lat="49.44903" lon="1.4044">
        <ele>131.12</ele>
        <time>2015-06-14T08:48:20Z</time>
      </trkpt>
      <trkpt lat="49.44898" lon="1.40381">
        <ele>134.56</ele>
        <time>2015-06-14T08:48:36Z</time>
      </trkpt>
      <trkpt lat="49.44898" lon="1.40318">
        <ele>137.83</ele>
        <time>2015-06-14T08:48:56Z</time>
      </trkpt>
      <trkpt lat="49.44897" lon="1.40235">
        <ele>139</ele>
        <time>2015-06-14T08:49:19Z</time>
      </trkpt>
      <trkpt lat="49.44902" lon="1.4015">
        <ele>135.84</ele>
        <time>2015-06-14T08:49:35Z</time>
      </trkpt>
      <trkpt lat="49.44905" lon="1.40119">
        <ele>134.04</ele>
        <time>2015-06-14T08:49:39Z</time>
      </trkpt>
      <trkpt lat="49.44906" lon="1.40101">
        <ele>133.4</ele>
        <time>2015-06-14T08:49:41Z</time>
      </trkpt>
      <trkpt lat="49.44909" lon="1.40049">
        <ele>129.76</ele>
        <time>2015-06-14T08:49:46Z</time>
      </trkpt>
      <trkpt lat="49.44911" lon="1.40015">
        <ele>126.69</ele>
        <time>2015-06-14T08:49:50Z</time>
      </trkpt>
      <trkpt lat="49.44913" lon="1.39974">
        <ele>123.56</ele>
        <time>2015-06-14T08:49:55Z</time>
      </trkpt>
      <trkpt lat="49.44914" lon="1.39925">
        <ele>119.67</ele>
        <time>2015-06-14T08:50:00Z</time>
      </trkpt>
      <trkpt lat="49.44911" lon="1.39874">
        <ele>116.18</ele>
        <time>2015-06-14T08:50:05Z</time>
      </trkpt>
      <trkpt lat="49.44911" lon="1.39837">
        <ele>113.04</ele>
        <time>2015-06-14T08:50:08Z</time>
      </trkpt>
      <trkpt lat="49.44912" lon="1.39802">
        <ele>109.07</ele>
        <time>2015-06-14T08:50:11Z</time>
      </trkpt>
      <trkpt lat="49.44915" lon="1.39758">
        <ele>105.75</ele>
        <time>2015-06-14T08:50:15Z</time>
      </trkpt>
      <trkpt lat="49.4492" lon="1.39726">
        <ele>101.78</ele>
        <time>2015-06-14T08:50:18Z</time>
      </trkpt>
      <trkpt lat="49.44919" lon="1.39697">
        <ele>98.27</ele>
        <time>2015-06-14T08:50:21Z</time>
      </trkpt>
      <trkpt lat="49.44922" lon="1.39658">
        <ele>95</ele>
        <time>2015-06-14T08:50:26Z</time>
      </trkpt>
      <trkpt lat="49.44919" lon="1.39637">
        <ele>91.97</ele>
        <time>2015-06-14T08:50:31Z</time>
      </trkpt>
      <trkpt lat="49.44916" lon="1.39632">
        <ele>91.13</ele>
        <time>2015-06-14T08:50:37Z</time>
      </trkpt>
      <trkpt lat="49.44915" lon="1.39631">
        <ele>91.17</ele>
        <time>2015-06-14T08:50:38Z</time>
      </trkpt>
      <trkpt lat="49.44915" lon="1.39628">
        <ele>91.11</ele>
        <time>2015-06-14T08:50:41Z</time>
      </trkpt>
      <trkpt lat="49.44904" lon="1.39613">
        <ele>91.37</ele>
        <time>2015-06-14T08:51:05Z</time>
      </trkpt>
      <trkpt lat="49.44905" lon="1.39614">
        <ele>91.4</ele>
        <time>2015-06-14T08:51:06Z</time>
      </trkpt>
      <trkpt lat="49.44905" lon="1.39613">
        <ele>91.18</ele>
        <time>2015-06-14T08:51:08Z</time>
      </trkpt>
      <trkpt lat="49.44904" lon="1.39613">
        <ele>91.45</ele>
        <time>2015-06-14T08:51:20Z</time>
      </trkpt>
      <trkpt lat="49.44904" lon="1.39611">
        <ele>91.2</ele>
        <time>2015-06-14T08:51:44Z</time>
      </trkpt>
      <trkpt lat="49.44903" lon="1.3961">
        <ele>91.18</ele>
        <time>2015-06-14T08:51:45Z</time>
      </trkpt>
      <trkpt lat="49.44902" lon="1.39611">
        <ele>91.27</ele>
        <time>2015-06-14T08:52:29Z</time>
      </trkpt>
      <trkpt lat="49.44902" lon="1.39611">
        <ele>91.08</ele>
        <time>2015-06-14T08:52:33Z</time>
      </trkpt>
      <trkpt lat="49.44901" lon="1.3961">
        <ele>91.08</ele>
        <time>2015-06-14T08:52:34Z</time>
      </trkpt>
      <trkpt lat="49.44894" lon="1.39609">
        <ele>90.92</ele>
        <time>2015-06-14T08:52:56Z</time>
      </trkpt>
      <trkpt lat="49.44891" lon="1.39605">
        <ele>90.89</ele>
        <time>2015-06-14T08:53:11Z</time>
      </trkpt>
      <trkpt lat="49.44892" lon="1.39606">
        <ele>91.07</ele>
        <time>2015-06-14T08:53:17Z</time>
      </trkpt>
      <trkpt lat="49.44901" lon="1.39606">
        <ele>91.44</ele>
        <time>2015-06-14T08:53:36Z</time>
      </trkpt>
      <trkpt lat="49.44901" lon="1.39607">
        <ele>91.49</ele>
        <time>2015-06-14T08:53:37Z</time>
      </trkpt>
      <trkpt lat="49.44906" lon="1.39614">
        <ele>90.79</ele>
        <time>2015-06-14T08:53:58Z</time>
      </trkpt>
      <trkpt lat="49.44905" lon="1.39613">
        <ele>91.09</ele>
        <time>2015-06-14T08:53:59Z</time>
      </trkpt>
      <trkpt lat="49.44908" lon="1.3961">
        <ele>90.47</ele>
        <time>2015-06-14T08:54:13Z</time>
      </trkpt>
      <trkpt lat="49.44907" lon="1.39609">
        <ele>91.26</ele>
        <time>2015-06-14T08:54:19Z</time>
      </trkpt>
      <trkpt lat="49.44906" lon="1.39607">
        <ele>91.34</ele>
        <time>2015-06-14T08:54:21Z</time>
      </trkpt>
      <trkpt lat="49.44909" lon="1.39609">
        <ele>91.41</ele>
        <time>2015-06-14T08:54:35Z</time>
      </trkpt>
      <trkpt lat="49.44908" lon="1.39618">
        <ele>91.37</ele>
        <time>2015-06-14T08:54:49Z</time>
      </trkpt>
      <trkpt lat="49.44905" lon="1.39618">
        <ele>91.38</ele>
        <time>2015-06-14T08:54:52Z</time>
      </trkpt>
      <trkpt lat="49.44903" lon="1.39618">
        <ele>91.42</ele>
        <time>2015-06-14T08:54:55Z</time>
      </trkpt>
      <trkpt lat="49.44893" lon="1.39613">
        <ele>91.34</ele>
        <time>2015-06-14T08:55:01Z</time>
      </trkpt>
      <trkpt lat="49.44898" lon="1.39611">
        <ele>91.32</ele>
        <time>2015-06-14T08:55:46Z</time>
      </trkpt>
      <trkpt lat="49.44896" lon="1.39605">
        <ele>90.92</ele>
        <time>2015-06-14T08:56:08Z</time>
      </trkpt>
      <trkpt lat="49.44896" lon="1.39606">
        <ele>91</ele>
        <time>2015-06-14T08:56:09Z</time>
      </trkpt>
      <trkpt lat="49.44891" lon="1.39604">
        <ele>91.24</ele>
        <time>2015-06-14T08:56:22Z</time>
      </trkpt>
      <trkpt lat="49.44891" lon="1.39605">
        <ele>92.28</ele>
        <time>2015-06-14T08:56:37Z</time>
      </trkpt>
      <trkpt lat="49.44893" lon="1.39608">
        <ele>92.36</ele>
        <time>2015-06-14T08:56:43Z</time>
      </trkpt>
      <trkpt lat="49.44895" lon="1.39609">
        <ele>92.07</ele>
        <time>2015-06-14T08:57:08Z</time>
      </trkpt>
      <trkpt lat="49.44896" lon="1.39612">
        <ele>92.49</ele>
        <time>2015-06-14T08:57:11Z</time>
      </trkpt>
      <trkpt lat="49.44903" lon="1.39614">
        <ele>92.34</ele>
        <time>2015-06-14T08:57:25Z</time>
      </trkpt>
      <trkpt lat="49.44905" lon="1.39613">
        <ele>92.37</ele>
        <time>2015-06-14T08:57:41Z</time>
      </trkpt>
      <trkpt lat="49.44904" lon="1.39612">
        <ele>92.35</ele>
        <time>2015-06-14T08:57:42Z</time>
      </trkpt>
      <trkpt lat="49.44895" lon="1.39612">
        <ele>92.13</ele>
        <time>2015-06-14T08:58:33Z</time>
      </trkpt>
      <trkpt lat="49.44891" lon="1.39614">
        <ele>92.18</ele>
        <time>2015-06-14T08:58:44Z</time>
      </trkpt>
      <trkpt lat="49.44899" lon="1.39614">
        <ele>92.28</ele>
        <time>2015-06-14T08:59:02Z</time>
      </trkpt>
      <trkpt lat="49.44895" lon="1.39606">
        <ele>92.33</ele>
        <time>2015-06-14T08:59:32Z</time>
      </trkpt>
      <trkpt lat="49.44896" lon="1.39608">
        <ele>91.31</ele>
        <time>2015-06-14T08:59:51Z</time>
      </trkpt>
      <trkpt lat="49.44895" lon="1.39606">
        <ele>91.32</ele>
        <time>2015-06-14T09:00:00Z</time>
      </trkpt>
      <trkpt lat="49.44896" lon="1.39613">
        <ele>92.27</ele>
        <time>2015-06-14T09:00:54Z</time>
      </trkpt>
      <trkpt lat="49.44898" lon="1.39609">
        <ele>92.1</ele>
        <time>2015-06-14T09:01:09Z</time>
      </trkpt>
      <trkpt lat="49.44898" lon="1.39607">
        <ele>92.11</ele>
        <time>2015-06-14T09:01:10Z</time>
      </trkpt>
      <trkpt lat="49.44898" lon="1.39604">
        <ele>91.93</ele>
        <time>2015-06-14T09:01:11Z</time>
      </trkpt>
      <trkpt lat="49.44891" lon="1.39565">
        <ele>88.77</ele>
        <time>2015-06-14T09:01:19Z</time>
      </trkpt>
      <trkpt lat="49.44878" lon="1.39529">
        <ele>86.43</ele>
        <time>2015-06-14T09:01:24Z</time>
      </trkpt>
      <trkpt lat="49.44857" lon="1.39481">
        <ele>83.48</ele>
        <time>2015-06-14T09:01:30Z</time>
      </trkpt>
      <trkpt lat="49.44851" lon="1.39465">
        <ele>83.14</ele>
        <time>2015-06-14T09:01:32Z</time>
      </trkpt>
      <trkpt lat="49.44843" lon="1.39444">
        <ele>81.63</ele>
        <time>2015-06-14T09:01:35Z</time>
      </trkpt>
      <trkpt lat="49.44839" lon="1.39437">
        <ele>81.39</ele>
        <time>2015-06-14T09:01:36Z</time>
      </trkpt>
      <trkpt lat="49.44795" lon="1.39391">
        <ele>78.9</ele>
        <time>2015-06-14T09:01:51Z</time>
      </trkpt>
      <trkpt lat="49.44792" lon="1.39383">
        <ele>78.89</ele>
        <time>2015-06-14T09:02:42Z</time>
      </trkpt>
      <trkpt lat="49.44801" lon="1.39404">
        <ele>80.45</ele>
        <time>2015-06-14T09:02:53Z</time>
      </trkpt>
      <trkpt lat="49.448" lon="1.39406">
        <ele>80.5</ele>
        <time>2015-06-14T09:02:54Z</time>
      </trkpt>
      <trkpt lat="49.448" lon="1.39409">
        <ele>80.5</ele>
        <time>2015-06-14T09:02:55Z</time>
      </trkpt>
      <trkpt lat="49.44799" lon="1.39411">
        <ele>80.6</ele>
        <time>2015-06-14T09:02:56Z</time>
      </trkpt>
      <trkpt lat="49.44799" lon="1.39414">
        <ele>80.59</ele>
        <time>2015-06-14T09:02:57Z</time>
      </trkpt>
      <trkpt lat="49.44799" lon="1.39417">
        <ele>80.66</ele>
        <time>2015-06-14T09:02:58Z</time>
      </trkpt>
      <trkpt lat="49.44799" lon="1.3942">
        <ele>81.04</ele>
        <time>2015-06-14T09:02:59Z</time>
      </trkpt>
      <trkpt lat="49.44799" lon="1.39424">
        <ele>81.42</ele>
        <time>2015-06-14T09:03:00Z</time>
      </trkpt>
      <trkpt lat="49.44799" lon="1.39427">
        <ele>81.67</ele>
        <time>2015-06-14T09:03:01Z</time>
      </trkpt>
      <trkpt lat="49.44798" lon="1.39468">
        <ele>84.91</ele>
        <time>2015-06-14T09:03:15Z</time>
      </trkpt>
      <trkpt lat="49.44798" lon="1.39511">
        <ele>88.11</ele>
        <time>2015-06-14T09:03:29Z</time>
      </trkpt>
      <trkpt lat="49.44799" lon="1.39542">
        <ele>91.13</ele>
        <time>2015-06-14T09:03:40Z</time>
      </trkpt>
      <trkpt lat="49.448" lon="1.39566">
        <ele>94.12</ele>
        <time>2015-06-14T09:03:49Z</time>
      </trkpt>
      <trkpt lat="49.44798" lon="1.39599">
        <ele>97.36</ele>
        <time>2015-06-14T09:04:01Z</time>
      </trkpt>
      <trkpt lat="49.44789" lon="1.39628">
        <ele>100.51</ele>
        <time>2015-06-14T09:04:13Z</time>
      </trkpt>
      <trkpt lat="49.44775" lon="1.39654">
        <ele>103.91</ele>
        <time>2015-06-14T09:04:25Z</time>
      </trkpt>
      <trkpt lat="49.44763" lon="1.39681">
        <ele>106.93</ele>
        <time>2015-06-14T09:04:37Z</time>
      </trkpt>
      <trkpt lat="49.44748" lon="1.39704">
        <ele>110.09</ele>
        <time>2015-06-14T09:04:50Z</time>
      </trkpt>
      <trkpt lat="49.44729" lon="1.39725">
        <ele>113.25</ele>
        <time>2015-06-14T09:05:02Z</time>
      </trkpt>
      <trkpt lat="49.44716" lon="1.39759">
        <ele>116.34</ele>
        <time>2015-06-14T09:05:16Z</time>
      </trkpt>
      <trkpt lat="49.44702" lon="1.39786">
        <ele>119.44</ele>
        <time>2015-06-14T09:05:29Z</time>
      </trkpt>
      <trkpt lat="49.44676" lon="1.39826">
        <ele>122.8</ele>
        <time>2015-06-14T09:05:46Z</time>
      </trkpt>
      <trkpt lat="49.44659" lon="1.39853">
        <ele>125.82</ele>
        <time>2015-06-14T09:05:58Z</time>
      </trkpt>
      <trkpt lat="49.44641" lon="1.39879">
        <ele>128.85</ele>
        <time>2015-06-14T09:06:13Z</time>
      </trkpt>
      <trkpt lat="49.4462" lon="1.39911">
        <ele>132.11</ele>
        <time>2015-06-14T09:06:28Z</time>
      </trkpt>
      <trkpt lat="49.44596" lon="1.39946">
        <ele>135.15</ele>
        <time>2015-06-14T09:06:44Z</time>
      </trkpt>
      <trkpt lat="49.44578" lon="1.39989">
        <ele>138.2</ele>
        <time>2015-06-14T09:06:59Z</time>
      </trkpt>
      <trkpt lat="49.4456" lon="1.40032">
        <ele>141.38</ele>
        <time>2015-06-14T09:07:12Z</time>
      </trkpt>
      <trkpt lat="49.44543" lon="1.40076">
        <ele>144.47</ele>
        <time>2015-06-14T09:07:26Z</time>
      </trkpt>
      <trkpt lat="49.44535" lon="1.40117">
        <ele>147.51</ele>
        <time>2015-06-14T09:07:40Z</time>
      </trkpt>
      <trkpt lat="49.44517" lon="1.40174">
        <ele>150.52</ele>
        <time>2015-06-14T09:07:55Z</time>
      </trkpt>
      <trkpt lat="49.44487" lon="1.40244">
        <ele>152.94</ele>
        <time>2015-06-14T09:08:11Z</time>
      </trkpt>
      <trkpt lat="49.4446" lon="1.40315">
        <ele>155.29</ele>
        <time>2015-06-14T09:08:25Z</time>
      </trkpt>
      <trkpt lat="49.4443" lon="1.40377">
        <ele>156.17</ele>
        <time>2015-06-14T09:08:38Z</time>
      </trkpt>
      <trkpt lat="49.44405" lon="1.40443">
        <ele>156.74</ele>
        <time>2015-06-14T09:08:50Z</time>
      </trkpt>
      <trkpt lat="49.44381" lon="1.40512">
        <ele>157.77</ele>
        <time>2015-06-14T09:09:01Z</time>
      </trkpt>
      <trkpt lat="49.44354" lon="1.4058">
        <ele>157.82</ele>
        <time>2015-06-14T09:09:11Z</time>
      </trkpt>
      <trkpt lat="49.44326" lon="1.4065">
        <ele>158.79</ele>
        <time>2015-06-14T09:09:21Z</time>
      </trkpt>
      <trkpt lat="49.44302" lon="1.40721">
        <ele>158.13</ele>
        <time>2015-06-14T09:09:31Z</time>
      </trkpt>
      <trkpt lat="49.44301" lon="1.40731">
        <ele>157.75</ele>
        <time>2015-06-14T09:09:32Z</time>
      </trkpt>
      <trkpt lat="49.44301" lon="1.40741">
        <ele>157.45</ele>
        <time>2015-06-14T09:09:33Z</time>
      </trkpt>
      <trkpt lat="49.44301" lon="1.40752">
        <ele>157.32</ele>
        <time>2015-06-14T09:09:34Z</time>
      </trkpt>
      <trkpt lat="49.44301" lon="1.40761">
        <ele>157.25</ele>
        <time>2015-06-14T09:09:35Z</time>
      </trkpt>
      <trkpt lat="49.443" lon="1.4077">
        <ele>157.15</ele>
        <time>2015-06-14T09:09:36Z</time>
      </trkpt>
      <trkpt lat="49.44299" lon="1.40794">
        <ele>157.65</ele>
        <time>2015-06-14T09:09:39Z</time>
      </trkpt>
      <trkpt lat="49.44298" lon="1.40808">
        <ele>157.71</ele>
        <time>2015-06-14T09:09:41Z</time>
      </trkpt>
      <trkpt lat="49.44297" lon="1.40815">
        <ele>157.74</ele>
        <time>2015-06-14T09:09:42Z</time>
      </trkpt>
      <trkpt lat="49.44272" lon="1.40869">
        <ele>157.6</ele>
        <time>2015-06-14T09:09:57Z</time>
      </trkpt>
      <trkpt lat="49.4422" lon="1.40878">
        <ele>156.04</ele>
        <time>2015-06-14T09:10:10Z</time>
      </trkpt>
      <trkpt lat="49.44202" lon="1.40878">
        <ele>154.45</ele>
        <time>2015-06-14T09:10:14Z</time>
      </trkpt>
      <trkpt lat="49.44187" lon="1.40882">
        <ele>153.36</ele>
        <time>2015-06-14T09:10:17Z</time>
      </trkpt>
      <trkpt lat="49.44129" lon="1.4091">
        <ele>151.42</ele>
        <time>2015-06-14T09:10:28Z</time>
      </trkpt>
      <trkpt lat="49.44118" lon="1.40915">
        <ele>150.7</ele>
        <time>2015-06-14T09:10:30Z</time>
      </trkpt>
      <trkpt lat="49.44107" lon="1.40916">
        <ele>149.93</ele>
        <time>2015-06-14T09:10:32Z</time>
      </trkpt>
      <trkpt lat="49.44104" lon="1.40914">
        <ele>149.89</ele>
        <time>2015-06-14T09:10:33Z</time>
      </trkpt>
      <trkpt lat="49.441" lon="1.40911">
        <ele>150.18</ele>
        <time>2015-06-14T09:10:34Z</time>
      </trkpt>
      <trkpt lat="49.44095" lon="1.40908">
        <ele>150.3</ele>
        <time>2015-06-14T09:10:35Z</time>
      </trkpt>
      <trkpt lat="49.44091" lon="1.40904">
        <ele>150.34</ele>
        <time>2015-06-14T09:10:36Z</time>
      </trkpt>
      <trkpt lat="49.44088" lon="1.40901">
        <ele>150.43</ele>
        <time>2015-06-14T09:10:37Z</time>
      </trkpt>
      <trkpt lat="49.44026" lon="1.40885">
        <ele>152.91</ele>
        <time>2015-06-14T09:10:51Z</time>
      </trkpt>
      <trkpt lat="49.43987" lon="1.40889">
        <ele>153.76</ele>
        <time>2015-06-14T09:11:01Z</time>
      </trkpt>
      <trkpt lat="49.43927" lon="1.40884">
        <ele>155.45</ele>
        <time>2015-06-14T09:11:15Z</time>
      </trkpt>
      <trkpt lat="49.4387" lon="1.40878">
        <ele>155.85</ele>
        <time>2015-06-14T09:11:28Z</time>
      </trkpt>
      <trkpt lat="49.43813" lon="1.40877">
        <ele>155.04</ele>
        <time>2015-06-14T09:11:41Z</time>
      </trkpt>
      <trkpt lat="49.43785" lon="1.40873">
        <ele>152.75</ele>
        <time>2015-06-14T09:11:48Z</time>
      </trkpt>
      <trkpt lat="49.43783" lon="1.40871">
        <ele>152.97</ele>
        <time>2015-06-14T09:11:49Z</time>
      </trkpt>
      <trkpt lat="49.43781" lon="1.40868">
        <ele>153.04</ele>
        <time>2015-06-14T09:11:50Z</time>
      </trkpt>
      <trkpt lat="49.43779" lon="1.40866">
        <ele>152.69</ele>
        <time>2015-06-14T09:11:51Z</time>
      </trkpt>
      <trkpt lat="49.43776" lon="1.40863">
        <ele>152.16</ele>
        <time>2015-06-14T09:11:52Z</time>
      </trkpt>
      <trkpt lat="49.43773" lon="1.4086">
        <ele>151.79</ele>
        <time>2015-06-14T09:11:53Z</time>
      </trkpt>
      <trkpt lat="49.4377" lon="1.40856">
        <ele>151.42</ele>
        <time>2015-06-14T09:11:54Z</time>
      </trkpt>
      <trkpt lat="49.43756" lon="1.40838">
        <ele>149.24</ele>
        <time>2015-06-14T09:11:58Z</time>
      </trkpt>
      <trkpt lat="49.43751" lon="1.40833">
        <ele>148.35</ele>
        <time>2015-06-14T09:11:59Z</time>
      </trkpt>
      <trkpt lat="49.43738" lon="1.40819">
        <ele>144.94</ele>
        <time>2015-06-14T09:12:02Z</time>
      </trkpt>
      <trkpt lat="49.43735" lon="1.40815">
        <ele>143.75</ele>
        <time>2015-06-14T09:12:03Z</time>
      </trkpt>
      <trkpt lat="49.43732" lon="1.4081">
        <ele>142.41</ele>
        <time>2015-06-14T09:12:04Z</time>
      </trkpt>
      <trkpt lat="49.43722" lon="1.40794">
        <ele>139.97</ele>
        <time>2015-06-14T09:12:06Z</time>
      </trkpt>
      <trkpt lat="49.43709" lon="1.40777">
        <ele>136.38</ele>
        <time>2015-06-14T09:12:08Z</time>
      </trkpt>
      <trkpt lat="49.43697" lon="1.40757">
        <ele>132.17</ele>
        <time>2015-06-14T09:12:10Z</time>
      </trkpt>
      <trkpt lat="49.43691" lon="1.40747">
        <ele>130.38</ele>
        <time>2015-06-14T09:12:11Z</time>
      </trkpt>
      <trkpt lat="49.43679" lon="1.40719">
        <ele>126.39</ele>
        <time>2015-06-14T09:12:14Z</time>
      </trkpt>
      <trkpt lat="49.43673" lon="1.40703">
        <ele>125.39</ele>
        <time>2015-06-14T09:12:15Z</time>
      </trkpt>
      <trkpt lat="49.43665" lon="1.40684">
        <ele>124.26</ele>
        <time>2015-06-14T09:12:16Z</time>
      </trkpt>
      <trkpt lat="49.43661" lon="1.4067">
        <ele>122.73</ele>
        <time>2015-06-14T09:12:17Z</time>
      </trkpt>
      <trkpt lat="49.43659" lon="1.40658">
        <ele>122.1</ele>
        <time>2015-06-14T09:12:18Z</time>
      </trkpt>
      <trkpt lat="49.43657" lon="1.40648">
        <ele>121.56</ele>
        <time>2015-06-14T09:12:19Z</time>
      </trkpt>
      <trkpt lat="49.43655" lon="1.40639">
        <ele>119.94</ele>
        <time>2015-06-14T09:12:20Z</time>
      </trkpt>
      <trkpt lat="49.43652" lon="1.4063">
        <ele>118.86</ele>
        <time>2015-06-14T09:12:21Z</time>
      </trkpt>
      <trkpt lat="49.4365" lon="1.40621">
        <ele>118.1</ele>
        <time>2015-06-14T09:12:22Z</time>
      </trkpt>
      <trkpt lat="49.43645" lon="1.40603">
        <ele>114.84</ele>
        <time>2015-06-14T09:12:24Z</time>
      </trkpt>
      <trkpt lat="49.43636" lon="1.40571">
        <ele>111.83</ele>
        <time>2015-06-14T09:12:28Z</time>
      </trkpt>
      <trkpt lat="49.43626" lon="1.4055">
        <ele>107.67</ele>
        <time>2015-06-14T09:12:31Z</time>
      </trkpt>
      <trkpt lat="49.43616" lon="1.40537">
        <ele>104.52</ele>
        <time>2015-06-14T09:12:33Z</time>
      </trkpt>
      <trkpt lat="49.43612" lon="1.40533">
        <ele>103.24</ele>
        <time>2015-06-14T09:12:34Z</time>
      </trkpt>
      <trkpt lat="49.43598" lon="1.40518">
        <ele>99.53</ele>
        <time>2015-06-14T09:12:37Z</time>
      </trkpt>
      <trkpt lat="49.43592" lon="1.40515">
        <ele>98.15</ele>
        <time>2015-06-14T09:12:38Z</time>
      </trkpt>
      <trkpt lat="49.43585" lon="1.4051">
        <ele>97.13</ele>
        <time>2015-06-14T09:12:39Z</time>
      </trkpt>
      <trkpt lat="49.43579" lon="1.40508">
        <ele>96.09</ele>
        <time>2015-06-14T09:12:40Z</time>
      </trkpt>
      <trkpt lat="49.43568" lon="1.40502">
        <ele>92.29</ele>
        <time>2015-06-14T09:12:42Z</time>
      </trkpt>
      <trkpt lat="49.43562" lon="1.40497">
        <ele>90.48</ele>
        <time>2015-06-14T09:12:43Z</time>
      </trkpt>
      <trkpt lat="49.43558" lon="1.40494">
        <ele>89.32</ele>
        <time>2015-06-14T09:12:44Z</time>
      </trkpt>
      <trkpt lat="49.43555" lon="1.4049">
        <ele>88.17</ele>
        <time>2015-06-14T09:12:45Z</time>
      </trkpt>
      <trkpt lat="49.43551" lon="1.40484">
        <ele>86.7</ele>
        <time>2015-06-14T09:12:46Z</time>
      </trkpt>
      <trkpt lat="49.43547" lon="1.40477">
        <ele>85.23</ele>
        <time>2015-06-14T09:12:47Z</time>
      </trkpt>
      <trkpt lat="49.43543" lon="1.4047">
        <ele>84.17</ele>
        <time>2015-06-14T09:12:48Z</time>
      </trkpt>
      <trkpt lat="49.43541" lon="1.40463">
        <ele>83.54</ele>
        <time>2015-06-14T09:12:49Z</time>
      </trkpt>
      <trkpt lat="49.43539" lon="1.40454">
        <ele>82.91</ele>
        <time>2015-06-14T09:12:50Z</time>
      </trkpt>
      <trkpt lat="49.43536" lon="1.40447">
        <ele>82.16</ele>
        <time>2015-06-14T09:12:51Z</time>
      </trkpt>
      <trkpt lat="49.43532" lon="1.4044">
        <ele>81.63</ele>
        <time>2015-06-14T09:12:52Z</time>
      </trkpt>
      <trkpt lat="49.43529" lon="1.40435">
        <ele>81.3</ele>
        <time>2015-06-14T09:12:53Z</time>
      </trkpt>
      <trkpt lat="49.43527" lon="1.40432">
        <ele>81.11</ele>
        <time>2015-06-14T09:12:54Z</time>
      </trkpt>
      <trkpt lat="49.43522" lon="1.40426">
        <ele>80.95</ele>
        <time>2015-06-14T09:12:55Z</time>
      </trkpt>
      <trkpt lat="49.43518" lon="1.40422">
        <ele>80.99</ele>
        <time>2015-06-14T09:12:56Z</time>
      </trkpt>
      <trkpt lat="49.43513" lon="1.40417">
        <ele>81.12</ele>
        <time>2015-06-14T09:12:57Z</time>
      </trkpt>
      <trkpt lat="49.43497" lon="1.40411">
        <ele>81.3</ele>
        <time>2015-06-14T09:13:04Z</time>
      </trkpt>
      <trkpt lat="49.43496" lon="1.40411">
        <ele>81.55</ele>
        <time>2015-06-14T09:13:05Z</time>
      </trkpt>
      <trkpt lat="49.43494" lon="1.40411">
        <ele>81.77</ele>
        <time>2015-06-14T09:13:06Z</time>
      </trkpt>
      <trkpt lat="49.43478" lon="1.40401">
        <ele>81.65</ele>
        <time>2015-06-14T09:13:13Z</time>
      </trkpt>
      <trkpt lat="49.43476" lon="1.40399">
        <ele>81.6</ele>
        <time>2015-06-14T09:13:14Z</time>
      </trkpt>
      <trkpt lat="49.4347" lon="1.40392">
        <ele>81.64</ele>
        <time>2015-06-14T09:13:18Z</time>
      </trkpt>
      <trkpt lat="49.4347" lon="1.4039">
        <ele>81.56</ele>
        <time>2015-06-14T09:13:20Z</time>
      </trkpt>
      <trkpt lat="49.43471" lon="1.40389">
        <ele>81.55</ele>
        <time>2015-06-14T09:13:21Z</time>
      </trkpt>
      <trkpt lat="49.43471" lon="1.40383">
        <ele>81.31</ele>
        <time>2015-06-14T09:13:27Z</time>
      </trkpt>
      <trkpt lat="49.43469" lon="1.40384">
        <ele>81.3</ele>
        <time>2015-06-14T09:13:28Z</time>
      </trkpt>
      <trkpt lat="49.43468" lon="1.40384">
        <ele>81.35</ele>
        <time>2015-06-14T09:13:29Z</time>
      </trkpt>
      <trkpt lat="49.43466" lon="1.40385">
        <ele>81.44</ele>
        <time>2015-06-14T09:13:30Z</time>
      </trkpt>
      <trkpt lat="49.43463" lon="1.40385">
        <ele>81.45</ele>
        <time>2015-06-14T09:13:31Z</time>
      </trkpt>
      <trkpt lat="49.43461" lon="1.40386">
        <ele>81.46</ele>
        <time>2015-06-14T09:13:32Z</time>
      </trkpt>
      <trkpt lat="49.4344" lon="1.40396">
        <ele>84.47</ele>
        <time>2015-06-14T09:13:45Z</time>
      </trkpt>
      <trkpt lat="49.4343" lon="1.40402">
        <ele>87.57</ele>
        <time>2015-06-14T09:13:54Z</time>
      </trkpt>
      <trkpt lat="49.43425" lon="1.40403">
        <ele>88.87</ele>
        <time>2015-06-14T09:13:58Z</time>
      </trkpt>
      <trkpt lat="49.43416" lon="1.40407">
        <ele>92.1</ele>
        <time>2015-06-14T09:14:07Z</time>
      </trkpt>
      <trkpt lat="49.43412" lon="1.4041">
        <ele>93.86</ele>
        <time>2015-06-14T09:14:11Z</time>
      </trkpt>
      <trkpt lat="49.43411" lon="1.40412">
        <ele>94.21</ele>
        <time>2015-06-14T09:14:12Z</time>
      </trkpt>
      <trkpt lat="49.43409" lon="1.40414">
        <ele>94.76</ele>
        <time>2015-06-14T09:14:14Z</time>
      </trkpt>
      <trkpt lat="49.43407" lon="1.40414">
        <ele>95.5</ele>
        <time>2015-06-14T09:14:16Z</time>
      </trkpt>
      <trkpt lat="49.43405" lon="1.40414">
        <ele>95.8</ele>
        <time>2015-06-14T09:14:17Z</time>
      </trkpt>
      <trkpt lat="49.43402" lon="1.40415">
        <ele>96.11</ele>
        <time>2015-06-14T09:14:18Z</time>
      </trkpt>
      <trkpt lat="49.43385" lon="1.40419">
        <ele>99.52</ele>
        <time>2015-06-14T09:14:29Z</time>
      </trkpt>
      <trkpt lat="49.43373" lon="1.40423">
        <ele>102.62</ele>
        <time>2015-06-14T09:14:40Z</time>
      </trkpt>
      <trkpt lat="49.43349" lon="1.40434">
        <ele>105.64</ele>
        <time>2015-06-14T09:14:56Z</time>
      </trkpt>
      <trkpt lat="49.4333" lon="1.40445">
        <ele>108.68</ele>
        <time>2015-06-14T09:15:11Z</time>
      </trkpt>
      <trkpt lat="49.43308" lon="1.4045">
        <ele>111.72</ele>
        <time>2015-06-14T09:15:44Z</time>
      </trkpt>
      <trkpt lat="49.43308" lon="1.40452">
        <ele>111.94</ele>
        <time>2015-06-14T09:15:46Z</time>
      </trkpt>
      <trkpt lat="49.43308" lon="1.40456">
        <ele>112.24</ele>
        <time>2015-06-14T09:15:49Z</time>
      </trkpt>
      <trkpt lat="49.43304" lon="1.40458">
        <ele>113.3</ele>
        <time>2015-06-14T09:15:59Z</time>
      </trkpt>
      <trkpt lat="49.43289" lon="1.40464">
        <ele>116.41</ele>
        <time>2015-06-14T09:16:16Z</time>
      </trkpt>
      <trkpt lat="49.43262" lon="1.40477">
        <ele>119.44</ele>
        <time>2015-06-14T09:16:37Z</time>
      </trkpt>
      <trkpt lat="49.43257" lon="1.40478">
        <ele>120.02</ele>
        <time>2015-06-14T09:16:45Z</time>
      </trkpt>
      <trkpt lat="49.43256" lon="1.40478">
        <ele>120.13</ele>
        <time>2015-06-14T09:16:46Z</time>
      </trkpt>
      <trkpt lat="49.43255" lon="1.40479">
        <ele>120.27</ele>
        <time>2015-06-14T09:16:47Z</time>
      </trkpt>
      <trkpt lat="49.43253" lon="1.4048">
        <ele>120.37</ele>
        <time>2015-06-14T09:16:48Z</time>
      </trkpt>
      <trkpt lat="49.43252" lon="1.40481">
        <ele>120.74</ele>
        <time>2015-06-14T09:16:49Z</time>
      </trkpt>
      <trkpt lat="49.43251" lon="1.40481">
        <ele>121.12</ele>
        <time>2015-06-14T09:16:50Z</time>
      </trkpt>
      <trkpt lat="49.4325" lon="1.40482">
        <ele>121.33</ele>
        <time>2015-06-14T09:16:51Z</time>
      </trkpt>
      <trkpt lat="49.4325" lon="1.40483">
        <ele>121.51</ele>
        <time>2015-06-14T09:16:52Z</time>
      </trkpt>
      <trkpt lat="49.43249" lon="1.40483">
        <ele>121.73</ele>
        <time>2015-06-14T09:16:53Z</time>
      </trkpt>
      <trkpt lat="49.43248" lon="1.40484">
        <ele>122.05</ele>
        <time>2015-06-14T09:16:54Z</time>
      </trkpt>
      <trkpt lat="49.43232" lon="1.40495">
        <ele>125.29</ele>
        <time>2015-06-14T09:17:07Z</time>
      </trkpt>
      <trkpt lat="49.43213" lon="1.40502">
        <ele>128.36</ele>
        <time>2015-06-14T09:17:21Z</time>
      </trkpt>
      <trkpt lat="49.43201" lon="1.4051">
        <ele>130.26</ele>
        <time>2015-06-14T09:17:30Z</time>
      </trkpt>
      <trkpt lat="49.43199" lon="1.4051">
        <ele>130.27</ele>
        <time>2015-06-14T09:17:31Z</time>
      </trkpt>
      <trkpt lat="49.43197" lon="1.40511">
        <ele>130.55</ele>
        <time>2015-06-14T09:17:32Z</time>
      </trkpt>
      <trkpt lat="49.43178" lon="1.40523">
        <ele>133.69</ele>
        <time>2015-06-14T09:17:46Z</time>
      </trkpt>
      <trkpt lat="49.43159" lon="1.40526">
        <ele>134.76</ele>
        <time>2015-06-14T09:17:56Z</time>
      </trkpt>
      <trkpt lat="49.43158" lon="1.40526">
        <ele>134.78</ele>
        <time>2015-06-14T09:17:57Z</time>
      </trkpt>
      <trkpt lat="49.43148" lon="1.40528">
        <ele>135.09</ele>
        <time>2015-06-14T09:18:02Z</time>
      </trkpt>
      <trkpt lat="49.43112" lon="1.40541">
        <ele>138.45</ele>
        <time>2015-06-14T09:18:22Z</time>
      </trkpt>
      <trkpt lat="49.43057" lon="1.40571">
        <ele>140.75</ele>
        <time>2015-06-14T09:18:43Z</time>
      </trkpt>
      <trkpt lat="49.43004" lon="1.40605">
        <ele>142.42</ele>
        <time>2015-06-14T09:19:04Z</time>
      </trkpt>
      <trkpt lat="49.4295" lon="1.40634">
        <ele>143.88</ele>
        <time>2015-06-14T09:19:19Z</time>
      </trkpt>
      <trkpt lat="49.42895" lon="1.40661">
        <ele>144.17</ele>
        <time>2015-06-14T09:19:33Z</time>
      </trkpt>
      <trkpt lat="49.42843" lon="1.40686">
        <ele>144</ele>
        <time>2015-06-14T09:19:45Z</time>
      </trkpt>
      <trkpt lat="49.42831" lon="1.4069">
        <ele>143.41</ele>
        <time>2015-06-14T09:19:47Z</time>
      </trkpt>
      <trkpt lat="49.4282" lon="1.40694">
        <ele>142.6</ele>
        <time>2015-06-14T09:19:49Z</time>
      </trkpt>
      <trkpt lat="49.42764" lon="1.40718">
        <ele>142.66</ele>
        <time>2015-06-14T09:19:58Z</time>
      </trkpt>
      <trkpt lat="49.42712" lon="1.40743">
        <ele>143.26</ele>
        <time>2015-06-14T09:20:07Z</time>
      </trkpt>
      <trkpt lat="49.42661" lon="1.4077">
        <ele>140.02</ele>
        <time>2015-06-14T09:20:16Z</time>
      </trkpt>
      <trkpt lat="49.42625" lon="1.4079">
        <ele>136.25</ele>
        <time>2015-06-14T09:20:21Z</time>
      </trkpt>
      <trkpt lat="49.42608" lon="1.408">
        <ele>133.04</ele>
        <time>2015-06-14T09:20:24Z</time>
      </trkpt>
      <trkpt lat="49.42598" lon="1.40806">
        <ele>129.48</ele>
        <time>2015-06-14T09:20:26Z</time>
      </trkpt>
      <trkpt lat="49.42584" lon="1.40814">
        <ele>126.01</ele>
        <time>2015-06-14T09:20:29Z</time>
      </trkpt>
      <trkpt lat="49.42576" lon="1.4082">
        <ele>123.61</ele>
        <time>2015-06-14T09:20:31Z</time>
      </trkpt>
      <trkpt lat="49.42562" lon="1.40829">
        <ele>121.54</ele>
        <time>2015-06-14T09:20:34Z</time>
      </trkpt>
      <trkpt lat="49.42545" lon="1.40837">
        <ele>121.81</ele>
        <time>2015-06-14T09:20:44Z</time>
      </trkpt>
      <trkpt lat="49.42542" lon="1.40837">
        <ele>121.68</ele>
        <time>2015-06-14T09:20:48Z</time>
      </trkpt>
      <trkpt lat="49.42537" lon="1.40843">
        <ele>121.56</ele>
        <time>2015-06-14T09:20:58Z</time>
      </trkpt>
      <trkpt lat="49.42535" lon="1.4084">
        <ele>121.73</ele>
        <time>2015-06-14T09:21:04Z</time>
      </trkpt>
      <trkpt lat="49.42528" lon="1.40829">
        <ele>121.82</ele>
        <time>2015-06-14T09:21:10Z</time>
      </trkpt>
      <trkpt lat="49.42527" lon="1.40826">
        <ele>122.62</ele>
        <time>2015-06-14T09:21:13Z</time>
      </trkpt>
      <trkpt lat="49.42526" lon="1.40824">
        <ele>122.71</ele>
        <time>2015-06-14T09:21:14Z</time>
      </trkpt>
      <trkpt lat="49.42525" lon="1.40825">
        <ele>121.53</ele>
        <time>2015-06-14T09:21:22Z</time>
      </trkpt>
      <trkpt lat="49.42524" lon="1.40826">
        <ele>121.53</ele>
        <time>2015-06-14T09:21:23Z</time>
      </trkpt>
      <trkpt lat="49.42523" lon="1.40827">
        <ele>121.69</ele>
        <time>2015-06-14T09:21:24Z</time>
      </trkpt>
      <trkpt lat="49.42523" lon="1.40828">
        <ele>121.8</ele>
        <time>2015-06-14T09:21:25Z</time>
      </trkpt>
      <trkpt lat="49.42521" lon="1.40829">
        <ele>122.3</ele>
        <time>2015-06-14T09:21:26Z</time>
      </trkpt>
      <trkpt lat="49.42519" lon="1.4083">
        <ele>122.62</ele>
        <time>2015-06-14T09:21:27Z</time>
      </trkpt>
      <trkpt lat="49.42518" lon="1.40831">
        <ele>122.94</ele>
        <time>2015-06-14T09:21:28Z</time>
      </trkpt>
      <trkpt lat="49.42516" lon="1.40831">
        <ele>123.31</ele>
        <time>2015-06-14T09:21:29Z</time>
      </trkpt>
      <trkpt lat="49.42515" lon="1.40831">
        <ele>123.65</ele>
        <time>2015-06-14T09:21:30Z</time>
      </trkpt>
      <trkpt lat="49.42513" lon="1.40832">
        <ele>124.13</ele>
        <time>2015-06-14T09:21:31Z</time>
      </trkpt>
      <trkpt lat="49.42505" lon="1.40838">
        <ele>127.42</ele>
        <time>2015-06-14T09:21:38Z</time>
      </trkpt>
      <trkpt lat="49.42504" lon="1.40839">
        <ele>127.69</ele>
        <time>2015-06-14T09:21:39Z</time>
      </trkpt>
      <trkpt lat="49.42496" lon="1.40844">
        <ele>130.62</ele>
        <time>2015-06-14T09:21:45Z</time>
      </trkpt>
      <trkpt lat="49.42485" lon="1.4085">
        <ele>133.99</ele>
        <time>2015-06-14T09:21:55Z</time>
      </trkpt>
      <trkpt lat="49.42468" lon="1.4086">
        <ele>137.06</ele>
        <time>2015-06-14T09:22:08Z</time>
      </trkpt>
      <trkpt lat="49.42431" lon="1.40883">
        <ele>140.07</ele>
        <time>2015-06-14T09:22:26Z</time>
      </trkpt>
      <trkpt lat="49.42377" lon="1.40908">
        <ele>143.12</ele>
        <time>2015-06-14T09:22:45Z</time>
      </trkpt>
      <trkpt lat="49.42319" lon="1.40928">
        <ele>144.39</ele>
        <time>2015-06-14T09:23:02Z</time>
      </trkpt>
      <trkpt lat="49.423" lon="1.40926">
        <ele>144.94</ele>
        <time>2015-06-14T09:23:06Z</time>
      </trkpt>
      <trkpt lat="49.42295" lon="1.40926">
        <ele>144.78</ele>
        <time>2015-06-14T09:23:07Z</time>
      </trkpt>
      <trkpt lat="49.4228" lon="1.40924">
        <ele>145.15</ele>
        <time>2015-06-14T09:23:10Z</time>
      </trkpt>
      <trkpt lat="49.42275" lon="1.40923">
        <ele>145.15</ele>
        <time>2015-06-14T09:23:11Z</time>
      </trkpt>
      <trkpt lat="49.42246" lon="1.40916">
        <ele>145.67</ele>
        <time>2015-06-14T09:23:17Z</time>
      </trkpt>
      <trkpt lat="49.42234" lon="1.40913">
        <ele>146.02</ele>
        <time>2015-06-14T09:23:19Z</time>
      </trkpt>
      <trkpt lat="49.42228" lon="1.40912">
        <ele>145.7</ele>
        <time>2015-06-14T09:23:20Z</time>
      </trkpt>
      <trkpt lat="49.4221" lon="1.40909">
        <ele>145.2</ele>
        <time>2015-06-14T09:23:23Z</time>
      </trkpt>
      <trkpt lat="49.42199" lon="1.4091">
        <ele>145.1</ele>
        <time>2015-06-14T09:23:25Z</time>
      </trkpt>
      <trkpt lat="49.42193" lon="1.40908">
        <ele>144.99</ele>
        <time>2015-06-14T09:23:26Z</time>
      </trkpt>
      <trkpt lat="49.42142" lon="1.40892">
        <ele>145.94</ele>
        <time>2015-06-14T09:23:36Z</time>
      </trkpt>
      <trkpt lat="49.4209" lon="1.40875">
        <ele>144.79</ele>
        <time>2015-06-14T09:23:45Z</time>
      </trkpt>
      <trkpt lat="49.42078" lon="1.40871">
        <ele>144.6</ele>
        <time>2015-06-14T09:23:47Z</time>
      </trkpt>
      <trkpt lat="49.42072" lon="1.40871">
        <ele>144.54</ele>
        <time>2015-06-14T09:23:48Z</time>
      </trkpt>
      <trkpt lat="49.42048" lon="1.40868">
        <ele>143.62</ele>
        <time>2015-06-14T09:23:52Z</time>
      </trkpt>
      <trkpt lat="49.42016" lon="1.40855">
        <ele>141.77</ele>
        <time>2015-06-14T09:24:01Z</time>
      </trkpt>
      <trkpt lat="49.42012" lon="1.40852">
        <ele>141.72</ele>
        <time>2015-06-14T09:24:02Z</time>
      </trkpt>
      <trkpt lat="49.42009" lon="1.40848">
        <ele>141.63</ele>
        <time>2015-06-14T09:24:03Z</time>
      </trkpt>
      <trkpt lat="49.41967" lon="1.40807">
        <ele>139.07</ele>
        <time>2015-06-14T09:24:13Z</time>
      </trkpt>
      <trkpt lat="49.41942" lon="1.4078">
        <ele>136.25</ele>
        <time>2015-06-14T09:24:18Z</time>
      </trkpt>
      <trkpt lat="49.41918" lon="1.40759">
        <ele>133.22</ele>
        <time>2015-06-14T09:24:22Z</time>
      </trkpt>
      <trkpt lat="49.41913" lon="1.40754">
        <ele>133.26</ele>
        <time>2015-06-14T09:24:23Z</time>
      </trkpt>
      <trkpt lat="49.41896" lon="1.40738">
        <ele>133.9</ele>
        <time>2015-06-14T09:24:26Z</time>
      </trkpt>
      <trkpt lat="49.41891" lon="1.40736">
        <ele>133.71</ele>
        <time>2015-06-14T09:24:27Z</time>
      </trkpt>
      <trkpt lat="49.41885" lon="1.40734">
        <ele>133.34</ele>
        <time>2015-06-14T09:24:28Z</time>
      </trkpt>
      <trkpt lat="49.41878" lon="1.40735">
        <ele>132.6</ele>
        <time>2015-06-14T09:24:29Z</time>
      </trkpt>
      <trkpt lat="49.41872" lon="1.40736">
        <ele>132.16</ele>
        <time>2015-06-14T09:24:30Z</time>
      </trkpt>
      <trkpt lat="49.41866" lon="1.40738">
        <ele>131.93</ele>
        <time>2015-06-14T09:24:31Z</time>
      </trkpt>
      <trkpt lat="49.41814" lon="1.40763">
        <ele>130.28</ele>
        <time>2015-06-14T09:24:40Z</time>
      </trkpt>
      <trkpt lat="49.41765" lon="1.40801">
        <ele>128.43</ele>
        <time>2015-06-14T09:24:48Z</time>
      </trkpt>
      <trkpt lat="49.41718" lon="1.40844">
        <ele>125.44</ele>
        <time>2015-06-14T09:24:56Z</time>
      </trkpt>
      <trkpt lat="49.41671" lon="1.40886">
        <ele>125.02</ele>
        <time>2015-06-14T09:25:04Z</time>
      </trkpt>
      <trkpt lat="49.41622" lon="1.40929">
        <ele>123.98</ele>
        <time>2015-06-14T09:25:13Z</time>
      </trkpt>
      <trkpt lat="49.41575" lon="1.40975">
        <ele>125.29</ele>
        <time>2015-06-14T09:25:22Z</time>
      </trkpt>
      <trkpt lat="49.41532" lon="1.41015">
        <ele>124.69</ele>
        <time>2015-06-14T09:25:31Z</time>
      </trkpt>
      <trkpt lat="49.41484" lon="1.41057">
        <ele>124.76</ele>
        <time>2015-06-14T09:25:41Z</time>
      </trkpt>
      <trkpt lat="49.41442" lon="1.41085">
        <ele>124.77</ele>
        <time>2015-06-14T09:25:49Z</time>
      </trkpt>
      <trkpt lat="49.41384" lon="1.411">
        <ele>124.35</ele>
        <time>2015-06-14T09:26:02Z</time>
      </trkpt>
      <trkpt lat="49.4133" lon="1.41117">
        <ele>123.39</ele>
        <time>2015-06-14T09:26:10Z</time>
      </trkpt>
      <trkpt lat="49.41298" lon="1.41124">
        <ele>122.01</ele>
        <time>2015-06-14T09:26:14Z</time>
      </trkpt>
      <trkpt lat="49.41239" lon="1.41133">
        <ele>118.74</ele>
        <time>2015-06-14T09:26:21Z</time>
      </trkpt>
      <trkpt lat="49.41202" lon="1.41139">
        <ele>116.26</ele>
        <time>2015-06-14T09:26:25Z</time>
      </trkpt>
      <trkpt lat="49.41161" lon="1.41145">
        <ele>116.43</ele>
        <time>2015-06-14T09:26:31Z</time>
      </trkpt>
      <trkpt lat="49.41111" lon="1.41153">
        <ele>116.4</ele>
        <time>2015-06-14T09:26:40Z</time>
      </trkpt>
      <trkpt lat="49.41087" lon="1.41157">
        <ele>116.18</ele>
        <time>2015-06-14T09:26:44Z</time>
      </trkpt>
      <trkpt lat="49.41081" lon="1.41158">
        <ele>116.23</ele>
        <time>2015-06-14T09:26:45Z</time>
      </trkpt>
      <trkpt lat="49.41055" lon="1.4116">
        <ele>115.62</ele>
        <time>2015-06-14T09:26:50Z</time>
      </trkpt>
      <trkpt lat="49.41002" lon="1.41163">
        <ele>115.27</ele>
        <time>2015-06-14T09:26:58Z</time>
      </trkpt>
      <trkpt lat="49.40945" lon="1.41169">
        <ele>115.76</ele>
        <time>2015-06-14T09:27:06Z</time>
      </trkpt>
      <trkpt lat="49.40887" lon="1.41175">
        <ele>115.26</ele>
        <time>2015-06-14T09:27:14Z</time>
      </trkpt>
      <trkpt lat="49.40832" lon="1.41181">
        <ele>115</ele>
        <time>2015-06-14T09:27:22Z</time>
      </trkpt>
      <trkpt lat="49.40775" lon="1.41186">
        <ele>114.02</ele>
        <time>2015-06-14T09:27:30Z</time>
      </trkpt>
      <trkpt lat="49.40729" lon="1.41192">
        <ele>110.44</ele>
        <time>2015-06-14T09:27:36Z</time>
      </trkpt>
      <trkpt lat="49.40721" lon="1.41194">
        <ele>110.37</ele>
        <time>2015-06-14T09:27:37Z</time>
      </trkpt>
      <trkpt lat="49.40672" lon="1.41195">
        <ele>112.16</ele>
        <time>2015-06-14T09:27:57Z</time>
      </trkpt>
      <trkpt lat="49.40618" lon="1.41201">
        <ele>115.25</ele>
        <time>2015-06-14T09:28:13Z</time>
      </trkpt>
      <trkpt lat="49.40613" lon="1.41202">
        <ele>115.53</ele>
        <time>2015-06-14T09:28:14Z</time>
      </trkpt>
      <trkpt lat="49.4056" lon="1.41213">
        <ele>116.26</ele>
        <time>2015-06-14T09:28:27Z</time>
      </trkpt>
      <trkpt lat="49.40512" lon="1.41223">
        <ele>117.28</ele>
        <time>2015-06-14T09:28:40Z</time>
      </trkpt>
      <trkpt lat="49.4047" lon="1.41232">
        <ele>116.67</ele>
        <time>2015-06-14T09:28:49Z</time>
      </trkpt>
      <trkpt lat="49.40466" lon="1.41231">
        <ele>117.1</ele>
        <time>2015-06-14T09:28:50Z</time>
      </trkpt>
      <trkpt lat="49.40462" lon="1.41231">
        <ele>117.44</ele>
        <time>2015-06-14T09:28:51Z</time>
      </trkpt>
      <trkpt lat="49.40447" lon="1.4123">
        <ele>116.69</ele>
        <time>2015-06-14T09:28:54Z</time>
      </trkpt>
      <trkpt lat="49.40416" lon="1.41246">
        <ele>117.16</ele>
        <time>2015-06-14T09:29:02Z</time>
      </trkpt>
      <trkpt lat="49.40416" lon="1.41251">
        <ele>117.24</ele>
        <time>2015-06-14T09:29:03Z</time>
      </trkpt>
      <trkpt lat="49.40415" lon="1.41255">
        <ele>117.45</ele>
        <time>2015-06-14T09:29:04Z</time>
      </trkpt>
      <trkpt lat="49.4041" lon="1.41336">
        <ele>119.31</ele>
        <time>2015-06-14T09:29:18Z</time>
      </trkpt>
      <trkpt lat="49.40416" lon="1.41416">
        <ele>120.55</ele>
        <time>2015-06-14T09:29:32Z</time>
      </trkpt>
      <trkpt lat="49.40421" lon="1.41473">
        <ele>121</ele>
        <time>2015-06-14T09:29:40Z</time>
      </trkpt>
      <trkpt lat="49.40425" lon="1.41543">
        <ele>121.67</ele>
        <time>2015-06-14T09:29:49Z</time>
      </trkpt>
      <trkpt lat="49.40438" lon="1.41629">
        <ele>122.31</ele>
        <time>2015-06-14T09:29:59Z</time>
      </trkpt>
      <trkpt lat="49.40438" lon="1.41644">
        <ele>122.12</ele>
        <time>2015-06-14T09:30:01Z</time>
      </trkpt>
      <trkpt lat="49.40443" lon="1.41728">
        <ele>121.46</ele>
        <time>2015-06-14T09:30:10Z</time>
      </trkpt>
      <trkpt lat="49.40444" lon="1.41737">
        <ele>121.42</ele>
        <time>2015-06-14T09:30:11Z</time>
      </trkpt>
      <trkpt lat="49.40444" lon="1.41757">
        <ele>121.35</ele>
        <time>2015-06-14T09:30:13Z</time>
      </trkpt>
      <trkpt lat="49.40453" lon="1.41842">
        <ele>120.39</ele>
        <time>2015-06-14T09:30:21Z</time>
      </trkpt>
      <trkpt lat="49.40461" lon="1.41918">
        <ele>119.5</ele>
        <time>2015-06-14T09:30:29Z</time>
      </trkpt>
      <trkpt lat="49.40461" lon="1.41952">
        <ele>118.89</ele>
        <time>2015-06-14T09:30:36Z</time>
      </trkpt>
      <trkpt lat="49.4046" lon="1.4196">
        <ele>119.68</ele>
        <time>2015-06-14T09:30:43Z</time>
      </trkpt>
      <trkpt lat="49.40457" lon="1.41963">
        <ele>119.69</ele>
        <time>2015-06-14T09:30:45Z</time>
      </trkpt>
      <trkpt lat="49.40463" lon="1.41968">
        <ele>119.96</ele>
        <time>2015-06-14T09:31:09Z</time>
      </trkpt>
      <trkpt lat="49.40463" lon="1.41969">
        <ele>119.94</ele>
        <time>2015-06-14T09:31:11Z</time>
      </trkpt>
      <trkpt lat="49.4046" lon="1.41967">
        <ele>119.65</ele>
        <time>2015-06-14T09:31:22Z</time>
      </trkpt>
      <trkpt lat="49.40461" lon="1.41968">
        <ele>119.63</ele>
        <time>2015-06-14T09:31:25Z</time>
      </trkpt>
      <trkpt lat="49.40459" lon="1.41965">
        <ele>119.81</ele>
        <time>2015-06-14T09:31:45Z</time>
      </trkpt>
      <trkpt lat="49.40463" lon="1.41961">
        <ele>119.83</ele>
        <time>2015-06-14T09:31:58Z</time>
      </trkpt>
      <trkpt lat="49.40462" lon="1.41955">
        <ele>120.07</ele>
        <time>2015-06-14T09:32:00Z</time>
      </trkpt>
      <trkpt lat="49.40463" lon="1.41954">
        <ele>120.1</ele>
        <time>2015-06-14T09:32:01Z</time>
      </trkpt>
      <trkpt lat="49.40463" lon="1.41953">
        <ele>120.35</ele>
        <time>2015-06-14T09:32:10Z</time>
      </trkpt>
      <trkpt lat="49.40463" lon="1.41957">
        <ele>120.34</ele>
        <time>2015-06-14T09:32:14Z</time>
      </trkpt>
      <trkpt lat="49.40461" lon="1.41958">
        <ele>120.39</ele>
        <time>2015-06-14T09:32:17Z</time>
      </trkpt>
      <trkpt lat="49.4046" lon="1.41958">
        <ele>120.44</ele>
        <time>2015-06-14T09:32:18Z</time>
      </trkpt>
      <trkpt lat="49.40457" lon="1.41964">
        <ele>120.31</ele>
        <time>2015-06-14T09:32:26Z</time>
      </trkpt>
      <trkpt lat="49.40453" lon="1.41974">
        <ele>120.01</ele>
        <time>2015-06-14T09:32:41Z</time>
      </trkpt>
      <trkpt lat="49.40454" lon="1.41976">
        <ele>119.89</ele>
        <time>2015-06-14T09:32:42Z</time>
      </trkpt>
      <trkpt lat="49.40452" lon="1.41976">
        <ele>120.27</ele>
        <time>2015-06-14T09:32:49Z</time>
      </trkpt>
      <trkpt lat="49.40452" lon="1.41977">
        <ele>120.3</ele>
        <time>2015-06-14T09:33:03Z</time>
      </trkpt>
      <trkpt lat="49.40456" lon="1.41976">
        <ele>120.16</ele>
        <time>2015-06-14T09:33:12Z</time>
      </trkpt>
      <trkpt lat="49.40457" lon="1.41975">
        <ele>120.16</ele>
        <time>2015-06-14T09:33:13Z</time>
      </trkpt>
      <trkpt lat="49.40457" lon="1.41973">
        <ele>120.17</ele>
        <time>2015-06-14T09:33:19Z</time>
      </trkpt>
      <trkpt lat="49.40455" lon="1.41975">
        <ele>120.26</ele>
        <time>2015-06-14T09:33:24Z</time>
      </trkpt>
      <trkpt lat="49.40457" lon="1.41972">
        <ele>120.41</ele>
        <time>2015-06-14T09:33:48Z</time>
      </trkpt>
      <trkpt lat="49.40454" lon="1.41981">
        <ele>120.36</ele>
        <time>2015-06-14T09:34:07Z</time>
      </trkpt>
      <trkpt lat="49.40451" lon="1.4198">
        <ele>120.3</ele>
        <time>2015-06-14T09:34:12Z</time>
      </trkpt>
      <trkpt lat="49.40451" lon="1.4198">
        <ele>120.37</ele>
        <time>2015-06-14T09:34:30Z</time>
      </trkpt>
      <trkpt lat="49.40455" lon="1.41984">
        <ele>119.98</ele>
        <time>2015-06-14T09:34:34Z</time>
      </trkpt>
      <trkpt lat="49.40455" lon="1.41985">
        <ele>119.88</ele>
        <time>2015-06-14T09:34:37Z</time>
      </trkpt>
      <trkpt lat="49.40455" lon="1.41987">
        <ele>119.85</ele>
        <time>2015-06-14T09:34:38Z</time>
      </trkpt>
      <trkpt lat="49.40457" lon="1.41984">
        <ele>119.75</ele>
        <time>2015-06-14T09:34:49Z</time>
      </trkpt>
      <trkpt lat="49.40458" lon="1.4198">
        <ele>119.81</ele>
        <time>2015-06-14T09:34:58Z</time>
      </trkpt>
      <trkpt lat="49.40457" lon="1.41976">
        <ele>120.05</ele>
        <time>2015-06-14T09:35:02Z</time>
      </trkpt>
      <trkpt lat="49.4046" lon="1.41971">
        <ele>119.37</ele>
        <time>2015-06-14T09:35:14Z</time>
      </trkpt>
      <trkpt lat="49.40461" lon="1.41968">
        <ele>119.26</ele>
        <time>2015-06-14T09:35:20Z</time>
      </trkpt>
      <trkpt lat="49.40461" lon="1.41967">
        <ele>119.25</ele>
        <time>2015-06-14T09:35:21Z</time>
      </trkpt>
      <trkpt lat="49.40455" lon="1.41968">
        <ele>119.3</ele>
        <time>2015-06-14T09:35:29Z</time>
      </trkpt>
      <trkpt lat="49.40455" lon="1.4197">
        <ele>119.23</ele>
        <time>2015-06-14T09:35:30Z</time>
      </trkpt>
      <trkpt lat="49.40458" lon="1.42053">
        <ele>119.72</ele>
        <time>2015-06-14T09:35:51Z</time>
      </trkpt>
      <trkpt lat="49.40458" lon="1.42136">
        <ele>121.42</ele>
        <time>2015-06-14T09:36:10Z</time>
      </trkpt>
      <trkpt lat="49.40456" lon="1.42229">
        <ele>124.05</ele>
        <time>2015-06-14T09:36:26Z</time>
      </trkpt>
      <trkpt lat="49.40451" lon="1.42318">
        <ele>126.79</ele>
        <time>2015-06-14T09:36:41Z</time>
      </trkpt>
      <trkpt lat="49.40446" lon="1.42403">
        <ele>129.83</ele>
        <time>2015-06-14T09:36:57Z</time>
      </trkpt>
      <trkpt lat="49.40447" lon="1.42487">
        <ele>132.18</ele>
        <time>2015-06-14T09:37:12Z</time>
      </trkpt>
      <trkpt lat="49.40442" lon="1.42574">
        <ele>134.8</ele>
        <time>2015-06-14T09:37:28Z</time>
      </trkpt>
      <trkpt lat="49.40419" lon="1.42656">
        <ele>136.75</ele>
        <time>2015-06-14T09:37:46Z</time>
      </trkpt>
      <trkpt lat="49.4038" lon="1.4272">
        <ele>136.54</ele>
        <time>2015-06-14T09:38:01Z</time>
      </trkpt>
      <trkpt lat="49.40341" lon="1.42782">
        <ele>136.82</ele>
        <time>2015-06-14T09:38:15Z</time>
      </trkpt>
      <trkpt lat="49.40337" lon="1.42807">
        <ele>137.03</ele>
        <time>2015-06-14T09:38:19Z</time>
      </trkpt>
      <trkpt lat="49.40327" lon="1.42889">
        <ele>136.54</ele>
        <time>2015-06-14T09:38:33Z</time>
      </trkpt>
      <trkpt lat="49.40336" lon="1.42938">
        <ele>135.86</ele>
        <time>2015-06-14T09:38:39Z</time>
      </trkpt>
      <trkpt lat="49.40339" lon="1.42945">
        <ele>135.5</ele>
        <time>2015-06-14T09:38:40Z</time>
      </trkpt>
      <trkpt lat="49.40343" lon="1.42951">
        <ele>134.69</ele>
        <time>2015-06-14T09:38:41Z</time>
      </trkpt>
      <trkpt lat="49.40348" lon="1.42957">
        <ele>134.01</ele>
        <time>2015-06-14T09:38:42Z</time>
      </trkpt>
      <trkpt lat="49.40352" lon="1.42962">
        <ele>133.59</ele>
        <time>2015-06-14T09:38:43Z</time>
      </trkpt>
      <trkpt lat="49.40357" lon="1.42967">
        <ele>133.22</ele>
        <time>2015-06-14T09:38:44Z</time>
      </trkpt>
      <trkpt lat="49.40367" lon="1.42978">
        <ele>132.3</ele>
        <time>2015-06-14T09:38:46Z</time>
      </trkpt>
      <trkpt lat="49.404" lon="1.43008">
        <ele>128.83</ele>
        <time>2015-06-14T09:38:52Z</time>
      </trkpt>
      <trkpt lat="49.40406" lon="1.43013">
        <ele>128.69</ele>
        <time>2015-06-14T09:38:53Z</time>
      </trkpt>
      <trkpt lat="49.40435" lon="1.43039">
        <ele>125.58</ele>
        <time>2015-06-14T09:38:58Z</time>
      </trkpt>
      <trkpt lat="49.4044" lon="1.43044">
        <ele>125.28</ele>
        <time>2015-06-14T09:38:59Z</time>
      </trkpt>
      <trkpt lat="49.40444" lon="1.43051">
        <ele>125.28</ele>
        <time>2015-06-14T09:39:00Z</time>
      </trkpt>
      <trkpt lat="49.40447" lon="1.43057">
        <ele>125.36</ele>
        <time>2015-06-14T09:39:01Z</time>
      </trkpt>
      <trkpt lat="49.40448" lon="1.43063">
        <ele>125.03</ele>
        <time>2015-06-14T09:39:02Z</time>
      </trkpt>
      <trkpt lat="49.40449" lon="1.4307">
        <ele>124.05</ele>
        <time>2015-06-14T09:39:03Z</time>
      </trkpt>
      <trkpt lat="49.40449" lon="1.43076">
        <ele>123.36</ele>
        <time>2015-06-14T09:39:04Z</time>
      </trkpt>
      <trkpt lat="49.40448" lon="1.43082">
        <ele>123.28</ele>
        <time>2015-06-14T09:39:05Z</time>
      </trkpt>
      <trkpt lat="49.40446" lon="1.43087">
        <ele>123.5</ele>
        <time>2015-06-14T09:39:06Z</time>
      </trkpt>
      <trkpt lat="49.40444" lon="1.4309">
        <ele>123.84</ele>
        <time>2015-06-14T09:39:07Z</time>
      </trkpt>
      <trkpt lat="49.40441" lon="1.43092">
        <ele>124.06</ele>
        <time>2015-06-14T09:39:08Z</time>
      </trkpt>
      <trkpt lat="49.40439" lon="1.43093">
        <ele>124.28</ele>
        <time>2015-06-14T09:39:09Z</time>
      </trkpt>
      <trkpt lat="49.40436" lon="1.43093">
        <ele>124.39</ele>
        <time>2015-06-14T09:39:10Z</time>
      </trkpt>
      <trkpt lat="49.40401" lon="1.43108">
        <ele>127.42</ele>
        <time>2015-06-14T09:39:29Z</time>
      </trkpt>
      <trkpt lat="49.40385" lon="1.43117">
        <ele>128.34</ele>
        <time>2015-06-14T09:39:40Z</time>
      </trkpt>
      <trkpt lat="49.40387" lon="1.43116">
        <ele>128.16</ele>
        <time>2015-06-14T09:39:43Z</time>
      </trkpt>
      <trkpt lat="49.40426" lon="1.43109">
        <ele>126.16</ele>
        <time>2015-06-14T09:39:55Z</time>
      </trkpt>
      <trkpt lat="49.40432" lon="1.43109">
        <ele>124.66</ele>
        <time>2015-06-14T09:40:06Z</time>
      </trkpt>
      <trkpt lat="49.40427" lon="1.43121">
        <ele>127.73</ele>
        <time>2015-06-14T09:40:24Z</time>
      </trkpt>
      <trkpt lat="49.40423" lon="1.43143">
        <ele>130.9</ele>
        <time>2015-06-14T09:40:41Z</time>
      </trkpt>
      <trkpt lat="49.40423" lon="1.43145">
        <ele>131.17</ele>
        <time>2015-06-14T09:40:42Z</time>
      </trkpt>
      <trkpt lat="49.40423" lon="1.43148">
        <ele>131.39</ele>
        <time>2015-06-14T09:40:43Z</time>
      </trkpt>
      <trkpt lat="49.40422" lon="1.43151">
        <ele>131.52</ele>
        <time>2015-06-14T09:40:44Z</time>
      </trkpt>
      <trkpt lat="49.40422" lon="1.43154">
        <ele>131.67</ele>
        <time>2015-06-14T09:40:45Z</time>
      </trkpt>
      <trkpt lat="49.40421" lon="1.43157">
        <ele>132.13</ele>
        <time>2015-06-14T09:40:46Z</time>
      </trkpt>
      <trkpt lat="49.40404" lon="1.43187">
        <ele>135.37</ele>
        <time>2015-06-14T09:41:01Z</time>
      </trkpt>
      <trkpt lat="49.40383" lon="1.43224">
        <ele>138.42</ele>
        <time>2015-06-14T09:41:17Z</time>
      </trkpt>
      <trkpt lat="49.40356" lon="1.43273">
        <ele>141.45</ele>
        <time>2015-06-14T09:41:35Z</time>
      </trkpt>
      <trkpt lat="49.4032" lon="1.43319">
        <ele>144.56</ele>
        <time>2015-06-14T09:41:54Z</time>
      </trkpt>
      <trkpt lat="49.40278" lon="1.43369">
        <ele>145.72</ele>
        <time>2015-06-14T09:42:11Z</time>
      </trkpt>
      <trkpt lat="49.40229" lon="1.43402">
        <ele>144.97</ele>
        <time>2015-06-14T09:42:24Z</time>
      </trkpt>
      <trkpt lat="49.40189" lon="1.43454">
        <ele>144.61</ele>
        <time>2015-06-14T09:42:38Z</time>
      </trkpt>
      <trkpt lat="49.40184" lon="1.43458">
        <ele>144.38</ele>
        <time>2015-06-14T09:42:39Z</time>
      </trkpt>
      <trkpt lat="49.40177" lon="1.43468">
        <ele>144.44</ele>
        <time>2015-06-14T09:42:41Z</time>
      </trkpt>
      <trkpt lat="49.40169" lon="1.43479">
        <ele>144.32</ele>
        <time>2015-06-14T09:42:43Z</time>
      </trkpt>
      <trkpt lat="49.40164" lon="1.43485">
        <ele>144.2</ele>
        <time>2015-06-14T09:42:44Z</time>
      </trkpt>
      <trkpt lat="49.40149" lon="1.43504">
        <ele>143.27</ele>
        <time>2015-06-14T09:42:47Z</time>
      </trkpt>
      <trkpt lat="49.40139" lon="1.4352">
        <ele>141.9</ele>
        <time>2015-06-14T09:42:49Z</time>
      </trkpt>
      <trkpt lat="49.40134" lon="1.43525">
        <ele>141.34</ele>
        <time>2015-06-14T09:42:50Z</time>
      </trkpt>
      <trkpt lat="49.40126" lon="1.43538">
        <ele>140.11</ele>
        <time>2015-06-14T09:42:52Z</time>
      </trkpt>
      <trkpt lat="49.40123" lon="1.43545">
        <ele>140.09</ele>
        <time>2015-06-14T09:42:53Z</time>
      </trkpt>
      <trkpt lat="49.40115" lon="1.43566">
        <ele>139.91</ele>
        <time>2015-06-14T09:42:56Z</time>
      </trkpt>
      <trkpt lat="49.40111" lon="1.43571">
        <ele>139.97</ele>
        <time>2015-06-14T09:42:57Z</time>
      </trkpt>
      <trkpt lat="49.40107" lon="1.43575">
        <ele>140.16</ele>
        <time>2015-06-14T09:42:58Z</time>
      </trkpt>
      <trkpt lat="49.40103" lon="1.4358">
        <ele>140.42</ele>
        <time>2015-06-14T09:42:59Z</time>
      </trkpt>
      <trkpt lat="49.40099" lon="1.43583">
        <ele>140.65</ele>
        <time>2015-06-14T09:43:00Z</time>
      </trkpt>
      <trkpt lat="49.40052" lon="1.43612">
        <ele>141.84</ele>
        <time>2015-06-14T09:43:11Z</time>
      </trkpt>
      <trkpt lat="49.40006" lon="1.43637">
        <ele>143</ele>
        <time>2015-06-14T09:43:22Z</time>
      </trkpt>
      <trkpt lat="49.39959" lon="1.4366">
        <ele>143.31</ele>
        <time>2015-06-14T09:43:32Z</time>
      </trkpt>
      <trkpt lat="49.3991" lon="1.43688">
        <ele>142.81</ele>
        <time>2015-06-14T09:43:43Z</time>
      </trkpt>
      <trkpt lat="49.39865" lon="1.43717">
        <ele>142.98</ele>
        <time>2015-06-14T09:43:56Z</time>
      </trkpt>
      <trkpt lat="49.39859" lon="1.43718">
        <ele>142.94</ele>
        <time>2015-06-14T09:43:57Z</time>
      </trkpt>
      <trkpt lat="49.39807" lon="1.43749">
        <ele>142.07</ele>
        <time>2015-06-14T09:44:08Z</time>
      </trkpt>
      <trkpt lat="49.39801" lon="1.43757">
        <ele>141.03</ele>
        <time>2015-06-14T09:44:10Z</time>
      </trkpt>
      <trkpt lat="49.39801" lon="1.4376">
        <ele>141.52</ele>
        <time>2015-06-14T09:44:11Z</time>
      </trkpt>
      <trkpt lat="49.398" lon="1.43761">
        <ele>142.15</ele>
        <time>2015-06-14T09:44:12Z</time>
      </trkpt>
      <trkpt lat="49.39801" lon="1.43762">
        <ele>142.48</ele>
        <time>2015-06-14T09:44:13Z</time>
      </trkpt>
      <trkpt lat="49.39801" lon="1.43765">
        <ele>142.57</ele>
        <time>2015-06-14T09:44:14Z</time>
      </trkpt>
      <trkpt lat="49.39802" lon="1.43767">
        <ele>142.56</ele>
        <time>2015-06-14T09:44:15Z</time>
      </trkpt>
      <trkpt lat="49.39813" lon="1.43839">
        <ele>145.38</ele>
        <time>2015-06-14T09:44:31Z</time>
      </trkpt>
      <trkpt lat="49.39821" lon="1.43914">
        <ele>147.65</ele>
        <time>2015-06-14T09:44:45Z</time>
      </trkpt>
      <trkpt lat="49.39821" lon="1.43994">
        <ele>150.8</ele>
        <time>2015-06-14T09:44:59Z</time>
      </trkpt>
      <trkpt lat="49.39823" lon="1.44012">
        <ele>151.13</ele>
        <time>2015-06-14T09:45:02Z</time>
      </trkpt>
      <trkpt lat="49.39825" lon="1.44018">
        <ele>151.3</ele>
        <time>2015-06-14T09:45:03Z</time>
      </trkpt>
      <trkpt lat="49.39829" lon="1.44024">
        <ele>151.39</ele>
        <time>2015-06-14T09:45:04Z</time>
      </trkpt>
      <trkpt lat="49.39833" lon="1.44027">
        <ele>151.41</ele>
        <time>2015-06-14T09:45:05Z</time>
      </trkpt>
      <trkpt lat="49.39836" lon="1.44029">
        <ele>151.27</ele>
        <time>2015-06-14T09:45:06Z</time>
      </trkpt>
      <trkpt lat="49.3984" lon="1.44031">
        <ele>151.13</ele>
        <time>2015-06-14T09:45:07Z</time>
      </trkpt>
      <trkpt lat="49.39847" lon="1.44037">
        <ele>151.65</ele>
        <time>2015-06-14T09:45:09Z</time>
      </trkpt>
      <trkpt lat="49.39851" lon="1.44041">
        <ele>151.96</ele>
        <time>2015-06-14T09:45:10Z</time>
      </trkpt>
      <trkpt lat="49.39853" lon="1.44045">
        <ele>152.38</ele>
        <time>2015-06-14T09:45:11Z</time>
      </trkpt>
      <trkpt lat="49.39862" lon="1.44057">
        <ele>152.58</ele>
        <time>2015-06-14T09:45:14Z</time>
      </trkpt>
      <trkpt lat="49.39869" lon="1.44065">
        <ele>152.43</ele>
        <time>2015-06-14T09:45:16Z</time>
      </trkpt>
      <trkpt lat="49.39909" lon="1.4411">
        <ele>153.9</ele>
        <time>2015-06-14T09:45:29Z</time>
      </trkpt>
      <trkpt lat="49.39914" lon="1.44121">
        <ele>154.21</ele>
        <time>2015-06-14T09:45:31Z</time>
      </trkpt>
      <trkpt lat="49.39917" lon="1.44125">
        <ele>154.35</ele>
        <time>2015-06-14T09:45:32Z</time>
      </trkpt>
      <trkpt lat="49.3992" lon="1.44127">
        <ele>154.4</ele>
        <time>2015-06-14T09:45:33Z</time>
      </trkpt>
      <trkpt lat="49.39924" lon="1.44128">
        <ele>154.38</ele>
        <time>2015-06-14T09:45:34Z</time>
      </trkpt>
      <trkpt lat="49.39927" lon="1.44129">
        <ele>154.85</ele>
        <time>2015-06-14T09:45:35Z</time>
      </trkpt>
      <trkpt lat="49.3993" lon="1.44129">
        <ele>155.05</ele>
        <time>2015-06-14T09:45:36Z</time>
      </trkpt>
      <trkpt lat="49.39933" lon="1.4413">
        <ele>154.79</ele>
        <time>2015-06-14T09:45:37Z</time>
      </trkpt>
      <trkpt lat="49.39935" lon="1.44131">
        <ele>154.82</ele>
        <time>2015-06-14T09:45:38Z</time>
      </trkpt>
      <trkpt lat="49.39937" lon="1.44134">
        <ele>155.1</ele>
        <time>2015-06-14T09:45:39Z</time>
      </trkpt>
      <trkpt lat="49.39943" lon="1.44141">
        <ele>155.14</ele>
        <time>2015-06-14T09:45:42Z</time>
      </trkpt>
      <trkpt lat="49.39942" lon="1.44143">
        <ele>155.04</ele>
        <time>2015-06-14T09:45:43Z</time>
      </trkpt>
      <trkpt lat="49.3994" lon="1.44146">
        <ele>154.92</ele>
        <time>2015-06-14T09:45:44Z</time>
      </trkpt>
      <trkpt lat="49.39908" lon="1.44209">
        <ele>156.78</ele>
        <time>2015-06-14T09:45:56Z</time>
      </trkpt>
      <trkpt lat="49.39906" lon="1.44214">
        <ele>157.05</ele>
        <time>2015-06-14T09:45:57Z</time>
      </trkpt>
      <trkpt lat="49.39899" lon="1.44225">
        <ele>156.9</ele>
        <time>2015-06-14T09:45:59Z</time>
      </trkpt>
      <trkpt lat="49.39896" lon="1.44229">
        <ele>156.53</ele>
        <time>2015-06-14T09:46:00Z</time>
      </trkpt>
      <trkpt lat="49.39892" lon="1.44233">
        <ele>156.31</ele>
        <time>2015-06-14T09:46:01Z</time>
      </trkpt>
      <trkpt lat="49.39887" lon="1.44236">
        <ele>156.28</ele>
        <time>2015-06-14T09:46:02Z</time>
      </trkpt>
      <trkpt lat="49.39882" lon="1.44239">
        <ele>156.29</ele>
        <time>2015-06-14T09:46:03Z</time>
      </trkpt>
      <trkpt lat="49.39878" lon="1.44241">
        <ele>156.5</ele>
        <time>2015-06-14T09:46:04Z</time>
      </trkpt>
      <trkpt lat="49.39873" lon="1.44243">
        <ele>156.9</ele>
        <time>2015-06-14T09:46:05Z</time>
      </trkpt>
      <trkpt lat="49.39868" lon="1.44244">
        <ele>156.86</ele>
        <time>2015-06-14T09:46:06Z</time>
      </trkpt>
      <trkpt lat="49.39863" lon="1.44244">
        <ele>156.48</ele>
        <time>2015-06-14T09:46:07Z</time>
      </trkpt>
      <trkpt lat="49.39809" lon="1.44242">
        <ele>155.18</ele>
        <time>2015-06-14T09:46:16Z</time>
      </trkpt>
      <trkpt lat="49.39769" lon="1.44249">
        <ele>154.15</ele>
        <time>2015-06-14T09:46:22Z</time>
      </trkpt>
      <trkpt lat="49.39762" lon="1.44253">
        <ele>153.91</ele>
        <time>2015-06-14T09:46:23Z</time>
      </trkpt>
      <trkpt lat="49.39756" lon="1.44258">
        <ele>153.75</ele>
        <time>2015-06-14T09:46:24Z</time>
      </trkpt>
      <trkpt lat="49.3975" lon="1.44265">
        <ele>153.68</ele>
        <time>2015-06-14T09:46:25Z</time>
      </trkpt>
      <trkpt lat="49.39744" lon="1.44273">
        <ele>153.6</ele>
        <time>2015-06-14T09:46:26Z</time>
      </trkpt>
      <trkpt lat="49.3974" lon="1.44281">
        <ele>153.41</ele>
        <time>2015-06-14T09:46:27Z</time>
      </trkpt>
      <trkpt lat="49.39735" lon="1.4429">
        <ele>153.29</ele>
        <time>2015-06-14T09:46:28Z</time>
      </trkpt>
      <trkpt lat="49.39712" lon="1.44358">
        <ele>152.3</ele>
        <time>2015-06-14T09:46:35Z</time>
      </trkpt>
      <trkpt lat="49.39701" lon="1.44386">
        <ele>151.67</ele>
        <time>2015-06-14T09:46:38Z</time>
      </trkpt>
      <trkpt lat="49.39667" lon="1.4445">
        <ele>150.83</ele>
        <time>2015-06-14T09:46:45Z</time>
      </trkpt>
      <trkpt lat="49.39634" lon="1.44499">
        <ele>152.39</ele>
        <time>2015-06-14T09:46:56Z</time>
      </trkpt>
      <trkpt lat="49.39631" lon="1.44503">
        <ele>152.65</ele>
        <time>2015-06-14T09:46:57Z</time>
      </trkpt>
      <trkpt lat="49.39625" lon="1.44511">
        <ele>152.51</ele>
        <time>2015-06-14T09:46:59Z</time>
      </trkpt>
      <trkpt lat="49.39621" lon="1.44514">
        <ele>152.41</ele>
        <time>2015-06-14T09:47:00Z</time>
      </trkpt>
      <trkpt lat="49.39616" lon="1.44516">
        <ele>152.56</ele>
        <time>2015-06-14T09:47:01Z</time>
      </trkpt>
      <trkpt lat="49.39611" lon="1.44517">
        <ele>152.75</ele>
        <time>2015-06-14T09:47:02Z</time>
      </trkpt>
      <trkpt lat="49.39606" lon="1.44519">
        <ele>152.79</ele>
        <time>2015-06-14T09:47:03Z</time>
      </trkpt>
      <trkpt lat="49.39557" lon="1.44534">
        <ele>151.98</ele>
        <time>2015-06-14T09:47:13Z</time>
      </trkpt>
      <trkpt lat="49.39555" lon="1.44528">
        <ele>152.23</ele>
        <time>2015-06-14T09:47:15Z</time>
      </trkpt>
      <trkpt lat="49.39555" lon="1.44525">
        <ele>152.25</ele>
        <time>2015-06-14T09:47:16Z</time>
      </trkpt>
      <trkpt lat="49.39558" lon="1.4452">
        <ele>152.16</ele>
        <time>2015-06-14T09:47:17Z</time>
      </trkpt>
      <trkpt lat="49.39559" lon="1.44519">
        <ele>151.94</ele>
        <time>2015-06-14T09:47:18Z</time>
      </trkpt>
      <trkpt lat="49.39561" lon="1.44519">
        <ele>151.88</ele>
        <time>2015-06-14T09:47:19Z</time>
      </trkpt>
      <trkpt lat="49.39564" lon="1.4452">
        <ele>151.85</ele>
        <time>2015-06-14T09:47:20Z</time>
      </trkpt>
      <trkpt lat="49.39567" lon="1.44523">
        <ele>151.95</ele>
        <time>2015-06-14T09:47:21Z</time>
      </trkpt>
      <trkpt lat="49.3957" lon="1.44526">
        <ele>152.28</ele>
        <time>2015-06-14T09:47:22Z</time>
      </trkpt>
      <trkpt lat="49.39573" lon="1.4453">
        <ele>152.46</ele>
        <time>2015-06-14T09:47:23Z</time>
      </trkpt>
      <trkpt lat="49.39576" lon="1.44534">
        <ele>152.39</ele>
        <time>2015-06-14T09:47:24Z</time>
      </trkpt>
      <trkpt lat="49.39578" lon="1.44538">
        <ele>152.65</ele>
        <time>2015-06-14T09:47:25Z</time>
      </trkpt>
      <trkpt lat="49.39575" lon="1.44554">
        <ele>153.06</ele>
        <time>2015-06-14T09:47:29Z</time>
      </trkpt>
      <trkpt lat="49.39572" lon="1.44556">
        <ele>153.14</ele>
        <time>2015-06-14T09:47:30Z</time>
      </trkpt>
      <trkpt lat="49.39569" lon="1.44559">
        <ele>153.09</ele>
        <time>2015-06-14T09:47:31Z</time>
      </trkpt>
      <trkpt lat="49.39548" lon="1.44572">
        <ele>152.33</ele>
        <time>2015-06-14T09:47:36Z</time>
      </trkpt>
      <trkpt lat="49.39497" lon="1.44607">
        <ele>151.29</ele>
        <time>2015-06-14T09:47:46Z</time>
      </trkpt>
      <trkpt lat="49.39448" lon="1.44623">
        <ele>150.76</ele>
        <time>2015-06-14T09:47:55Z</time>
      </trkpt>
      <trkpt lat="49.39391" lon="1.44623">
        <ele>147.82</ele>
        <time>2015-06-14T09:48:03Z</time>
      </trkpt>
      <trkpt lat="49.39333" lon="1.4461">
        <ele>145.15</ele>
        <time>2015-06-14T09:48:11Z</time>
      </trkpt>
      <trkpt lat="49.39326" lon="1.44604">
        <ele>144.16</ele>
        <time>2015-06-14T09:48:12Z</time>
      </trkpt>
      <trkpt lat="49.39319" lon="1.44598">
        <ele>144.09</ele>
        <time>2015-06-14T09:48:13Z</time>
      </trkpt>
      <trkpt lat="49.39276" lon="1.44555">
        <ele>142.73</ele>
        <time>2015-06-14T09:48:20Z</time>
      </trkpt>
      <trkpt lat="49.39262" lon="1.44546">
        <ele>141.1</ele>
        <time>2015-06-14T09:48:22Z</time>
      </trkpt>
      <trkpt lat="49.39255" lon="1.44543">
        <ele>139.63</ele>
        <time>2015-06-14T09:48:23Z</time>
      </trkpt>
      <trkpt lat="49.39242" lon="1.44533">
        <ele>138.06</ele>
        <time>2015-06-14T09:48:25Z</time>
      </trkpt>
      <trkpt lat="49.39195" lon="1.44494">
        <ele>136.08</ele>
        <time>2015-06-14T09:48:34Z</time>
      </trkpt>
      <trkpt lat="49.39149" lon="1.44445">
        <ele>134.94</ele>
        <time>2015-06-14T09:48:42Z</time>
      </trkpt>
      <trkpt lat="49.39102" lon="1.44392">
        <ele>133.83</ele>
        <time>2015-06-14T09:48:50Z</time>
      </trkpt>
      <trkpt lat="49.39077" lon="1.44364">
        <ele>133.06</ele>
        <time>2015-06-14T09:48:55Z</time>
      </trkpt>
      <trkpt lat="49.39067" lon="1.44356">
        <ele>130.36</ele>
        <time>2015-06-14T09:49:04Z</time>
      </trkpt>
      <trkpt lat="49.39075" lon="1.44375">
        <ele>128.04</ele>
        <time>2015-06-14T09:49:08Z</time>
      </trkpt>
      <trkpt lat="49.39088" lon="1.44411">
        <ele>124.2</ele>
        <time>2015-06-14T09:49:14Z</time>
      </trkpt>
      <trkpt lat="49.39094" lon="1.44434">
        <ele>121.95</ele>
        <time>2015-06-14T09:49:17Z</time>
      </trkpt>
      <trkpt lat="49.39097" lon="1.44453">
        <ele>120.1</ele>
        <time>2015-06-14T09:49:19Z</time>
      </trkpt>
      <trkpt lat="49.39099" lon="1.44461">
        <ele>119.3</ele>
        <time>2015-06-14T09:49:20Z</time>
      </trkpt>
      <trkpt lat="49.39103" lon="1.4447">
        <ele>118.58</ele>
        <time>2015-06-14T09:49:21Z</time>
      </trkpt>
      <trkpt lat="49.39106" lon="1.44479">
        <ele>118.11</ele>
        <time>2015-06-14T09:49:22Z</time>
      </trkpt>
      <trkpt lat="49.3911" lon="1.44487">
        <ele>117.37</ele>
        <time>2015-06-14T09:49:23Z</time>
      </trkpt>
      <trkpt lat="49.39114" lon="1.44496">
        <ele>116.76</ele>
        <time>2015-06-14T09:49:24Z</time>
      </trkpt>
      <trkpt lat="49.39118" lon="1.44503">
        <ele>115.54</ele>
        <time>2015-06-14T09:49:25Z</time>
      </trkpt>
      <trkpt lat="49.39135" lon="1.44536">
        <ele>112.3</ele>
        <time>2015-06-14T09:49:29Z</time>
      </trkpt>
      <trkpt lat="49.39149" lon="1.44561">
        <ele>109.01</ele>
        <time>2015-06-14T09:49:32Z</time>
      </trkpt>
      <trkpt lat="49.39161" lon="1.44585">
        <ele>105.22</ele>
        <time>2015-06-14T09:49:35Z</time>
      </trkpt>
      <trkpt lat="49.39171" lon="1.44611">
        <ele>102.99</ele>
        <time>2015-06-14T09:49:38Z</time>
      </trkpt>
      <trkpt lat="49.39173" lon="1.44621">
        <ele>102.1</ele>
        <time>2015-06-14T09:49:39Z</time>
      </trkpt>
      <trkpt lat="49.39173" lon="1.44632">
        <ele>101.04</ele>
        <time>2015-06-14T09:49:40Z</time>
      </trkpt>
      <trkpt lat="49.39178" lon="1.44684">
        <ele>97.03</ele>
        <time>2015-06-14T09:49:45Z</time>
      </trkpt>
      <trkpt lat="49.39184" lon="1.44717">
        <ele>93.86</ele>
        <time>2015-06-14T09:49:48Z</time>
      </trkpt>
      <trkpt lat="49.39186" lon="1.4473">
        <ele>93.18</ele>
        <time>2015-06-14T09:49:49Z</time>
      </trkpt>
      <trkpt lat="49.39195" lon="1.44779">
        <ele>88.81</ele>
        <time>2015-06-14T09:49:53Z</time>
      </trkpt>
      <trkpt lat="49.39203" lon="1.44815">
        <ele>86.2</ele>
        <time>2015-06-14T09:49:56Z</time>
      </trkpt>
      <trkpt lat="49.39211" lon="1.44862">
        <ele>82.93</ele>
        <time>2015-06-14T09:50:00Z</time>
      </trkpt>
      <trkpt lat="49.39215" lon="1.44894">
        <ele>79.74</ele>
        <time>2015-06-14T09:50:03Z</time>
      </trkpt>
      <trkpt lat="49.39216" lon="1.44903">
        <ele>79.54</ele>
        <time>2015-06-14T09:50:04Z</time>
      </trkpt>
      <trkpt lat="49.39219" lon="1.44926">
        <ele>76.95</ele>
        <time>2015-06-14T09:50:09Z</time>
      </trkpt>
      <trkpt lat="49.3922" lon="1.44926">
        <ele>77.03</ele>
        <time>2015-06-14T09:50:14Z</time>
      </trkpt>
      <trkpt lat="49.3922" lon="1.44927">
        <ele>77.08</ele>
        <time>2015-06-14T09:50:15Z</time>
      </trkpt>
      <trkpt lat="49.39224" lon="1.44922">
        <ele>76.78</ele>
        <time>2015-06-14T09:50:34Z</time>
      </trkpt>
      <trkpt lat="49.39223" lon="1.44919">
        <ele>76.66</ele>
        <time>2015-06-14T09:50:35Z</time>
      </trkpt>
      <trkpt lat="49.3922" lon="1.44917">
        <ele>76.64</ele>
        <time>2015-06-14T09:50:36Z</time>
      </trkpt>
      <trkpt lat="49.39196" lon="1.449">
        <ele>72.97</ele>
        <time>2015-06-14T09:50:42Z</time>
      </trkpt>
      <trkpt lat="49.39177" lon="1.44892">
        <ele>70.4</ele>
        <time>2015-06-14T09:50:45Z</time>
      </trkpt>
      <trkpt lat="49.39169" lon="1.4489">
        <ele>69.59</ele>
        <time>2015-06-14T09:50:46Z</time>
      </trkpt>
      <trkpt lat="49.39162" lon="1.44882">
        <ele>69.06</ele>
        <time>2015-06-14T09:50:47Z</time>
      </trkpt>
      <trkpt lat="49.39155" lon="1.44882">
        <ele>67.51</ele>
        <time>2015-06-14T09:50:48Z</time>
      </trkpt>
      <trkpt lat="49.39148" lon="1.44886">
        <ele>66.74</ele>
        <time>2015-06-14T09:50:49Z</time>
      </trkpt>
      <trkpt lat="49.39142" lon="1.44891">
        <ele>65.94</ele>
        <time>2015-06-14T09:50:50Z</time>
      </trkpt>
      <trkpt lat="49.39136" lon="1.44898">
        <ele>65.14</ele>
        <time>2015-06-14T09:50:51Z</time>
      </trkpt>
      <trkpt lat="49.39093" lon="1.44956">
        <ele>63.12</ele>
        <time>2015-06-14T09:50:58Z</time>
      </trkpt>
      <trkpt lat="49.39067" lon="1.45004">
        <ele>62.6</ele>
        <time>2015-06-14T09:51:04Z</time>
      </trkpt>
      <trkpt lat="49.39032" lon="1.45061">
        <ele>63.77</ele>
        <time>2015-06-14T09:51:15Z</time>
      </trkpt>
      <trkpt lat="49.39015" lon="1.45078">
        <ele>65.3</ele>
        <time>2015-06-14T09:51:22Z</time>
      </trkpt>
      <trkpt lat="49.39012" lon="1.45077">
        <ele>65.66</ele>
        <time>2015-06-14T09:51:23Z</time>
      </trkpt>
      <trkpt lat="49.39009" lon="1.45075">
        <ele>65.93</ele>
        <time>2015-06-14T09:51:24Z</time>
      </trkpt>
      <trkpt lat="49.39007" lon="1.45072">
        <ele>66.13</ele>
        <time>2015-06-14T09:51:25Z</time>
      </trkpt>
      <trkpt lat="49.39005" lon="1.45068">
        <ele>66.45</ele>
        <time>2015-06-14T09:51:26Z</time>
      </trkpt>
      <trkpt lat="49.39003" lon="1.45064">
        <ele>66.76</ele>
        <time>2015-06-14T09:51:27Z</time>
      </trkpt>
      <trkpt lat="49.38994" lon="1.45057">
        <ele>68.18</ele>
        <time>2015-06-14T09:51:31Z</time>
      </trkpt>
      <trkpt lat="49.38994" lon="1.4506">
        <ele>68.44</ele>
        <time>2015-06-14T09:51:32Z</time>
      </trkpt>
      <trkpt lat="49.38994" lon="1.45063">
        <ele>68.43</ele>
        <time>2015-06-14T09:51:33Z</time>
      </trkpt>
      <trkpt lat="49.38992" lon="1.451">
        <ele>68.66</ele>
        <time>2015-06-14T09:51:41Z</time>
      </trkpt>
      <trkpt lat="49.38993" lon="1.45107">
        <ele>68.27</ele>
        <time>2015-06-14T09:51:42Z</time>
      </trkpt>
      <trkpt lat="49.38994" lon="1.45114">
        <ele>67.95</ele>
        <time>2015-06-14T09:51:43Z</time>
      </trkpt>
      <trkpt lat="49.38993" lon="1.45119">
        <ele>67.87</ele>
        <time>2015-06-14T09:51:44Z</time>
      </trkpt>
      <trkpt lat="49.38991" lon="1.45123">
        <ele>68.12</ele>
        <time>2015-06-14T09:51:45Z</time>
      </trkpt>
      <trkpt lat="49.38989" lon="1.45126">
        <ele>68.49</ele>
        <time>2015-06-14T09:51:46Z</time>
      </trkpt>
      <trkpt lat="49.38987" lon="1.45128">
        <ele>68.89</ele>
        <time>2015-06-14T09:51:47Z</time>
      </trkpt>
      <trkpt lat="49.38984" lon="1.45131">
        <ele>69.35</ele>
        <time>2015-06-14T09:51:48Z</time>
      </trkpt>
      <trkpt lat="49.38982" lon="1.45133">
        <ele>69.76</ele>
        <time>2015-06-14T09:51:49Z</time>
      </trkpt>
      <trkpt lat="49.3898" lon="1.45135">
        <ele>69.94</ele>
        <time>2015-06-14T09:51:50Z</time>
      </trkpt>
      <trkpt lat="49.38978" lon="1.45138">
        <ele>70.26</ele>
        <time>2015-06-14T09:51:51Z</time>
      </trkpt>
      <trkpt lat="49.38976" lon="1.45139">
        <ele>71.18</ele>
        <time>2015-06-14T09:51:52Z</time>
      </trkpt>
      <trkpt lat="49.38973" lon="1.4514">
        <ele>71.64</ele>
        <time>2015-06-14T09:51:53Z</time>
      </trkpt>
      <trkpt lat="49.38971" lon="1.45142">
        <ele>71.85</ele>
        <time>2015-06-14T09:51:54Z</time>
      </trkpt>
      <trkpt lat="49.38947" lon="1.45181">
        <ele>75.07</ele>
        <time>2015-06-14T09:52:11Z</time>
      </trkpt>
      <trkpt lat="49.38928" lon="1.45223">
        <ele>78.2</ele>
        <time>2015-06-14T09:52:27Z</time>
      </trkpt>
      <trkpt lat="49.38915" lon="1.4527">
        <ele>81.24</ele>
        <time>2015-06-14T09:52:42Z</time>
      </trkpt>
      <trkpt lat="49.38893" lon="1.45318">
        <ele>84.44</ele>
        <time>2015-06-14T09:52:58Z</time>
      </trkpt>
      <trkpt lat="49.38866" lon="1.45364">
        <ele>87.55</ele>
        <time>2015-06-14T09:53:16Z</time>
      </trkpt>
      <trkpt lat="49.38855" lon="1.45409">
        <ele>90.77</ele>
        <time>2015-06-14T09:53:30Z</time>
      </trkpt>
      <trkpt lat="49.38851" lon="1.45436">
        <ele>92.82</ele>
        <time>2015-06-14T09:53:39Z</time>
      </trkpt>
      <trkpt lat="49.38841" lon="1.4547">
        <ele>96.15</ele>
        <time>2015-06-14T09:53:51Z</time>
      </trkpt>
      <trkpt lat="49.38822" lon="1.45472">
        <ele>98.94</ele>
        <time>2015-06-14T09:54:03Z</time>
      </trkpt>
      <trkpt lat="49.3882" lon="1.45469">
        <ele>99.19</ele>
        <time>2015-06-14T09:54:04Z</time>
      </trkpt>
      <trkpt lat="49.38819" lon="1.45465">
        <ele>99.43</ele>
        <time>2015-06-14T09:54:05Z</time>
      </trkpt>
      <trkpt lat="49.38818" lon="1.45461">
        <ele>99.6</ele>
        <time>2015-06-14T09:54:06Z</time>
      </trkpt>
      <trkpt lat="49.38817" lon="1.45458">
        <ele>99.97</ele>
        <time>2015-06-14T09:54:07Z</time>
      </trkpt>
      <trkpt lat="49.38817" lon="1.45454">
        <ele>100.3</ele>
        <time>2015-06-14T09:54:08Z</time>
      </trkpt>
      <trkpt lat="49.38818" lon="1.45451">
        <ele>100.51</ele>
        <time>2015-06-14T09:54:09Z</time>
      </trkpt>
      <trkpt lat="49.38818" lon="1.45449">
        <ele>100.6</ele>
        <time>2015-06-14T09:54:10Z</time>
      </trkpt>
      <trkpt lat="49.38818" lon="1.45446">
        <ele>100.65</ele>
        <time>2015-06-14T09:54:11Z</time>
      </trkpt>
      <trkpt lat="49.38819" lon="1.45442">
        <ele>100.85</ele>
        <time>2015-06-14T09:54:12Z</time>
      </trkpt>
      <trkpt lat="49.38818" lon="1.45438">
        <ele>101.07</ele>
        <time>2015-06-14T09:54:13Z</time>
      </trkpt>
      <trkpt lat="49.38818" lon="1.45433">
        <ele>101.19</ele>
        <time>2015-06-14T09:54:14Z</time>
      </trkpt>
      <trkpt lat="49.38818" lon="1.45429">
        <ele>101.03</ele>
        <time>2015-06-14T09:54:15Z</time>
      </trkpt>
      <trkpt lat="49.38818" lon="1.45425">
        <ele>100.93</ele>
        <time>2015-06-14T09:54:16Z</time>
      </trkpt>
      <trkpt lat="49.38818" lon="1.45421">
        <ele>100.97</ele>
        <time>2015-06-14T09:54:17Z</time>
      </trkpt>
      <trkpt lat="49.38819" lon="1.45417">
        <ele>101.04</ele>
        <time>2015-06-14T09:54:18Z</time>
      </trkpt>
      <trkpt lat="49.38814" lon="1.45362">
        <ele>101.53</ele>
        <time>2015-06-14T09:54:28Z</time>
      </trkpt>
      <trkpt lat="49.38802" lon="1.45332">
        <ele>102.24</ele>
        <time>2015-06-14T09:54:33Z</time>
      </trkpt>
      <trkpt lat="49.38796" lon="1.45315">
        <ele>102.41</ele>
        <time>2015-06-14T09:54:36Z</time>
      </trkpt>
      <trkpt lat="49.38794" lon="1.4531">
        <ele>102.43</ele>
        <time>2015-06-14T09:54:37Z</time>
      </trkpt>
      <trkpt lat="49.38764" lon="1.4525">
        <ele>105.23</ele>
        <time>2015-06-14T09:54:53Z</time>
      </trkpt>
      <trkpt lat="49.38755" lon="1.45246">
        <ele>106.09</ele>
        <time>2015-06-14T09:54:57Z</time>
      </trkpt>
      <trkpt lat="49.38752" lon="1.45248">
        <ele>106.12</ele>
        <time>2015-06-14T09:54:58Z</time>
      </trkpt>
      <trkpt lat="49.3875" lon="1.45249">
        <ele>106.33</ele>
        <time>2015-06-14T09:54:59Z</time>
      </trkpt>
      <trkpt lat="49.38741" lon="1.45281">
        <ele>109.49</ele>
        <time>2015-06-14T09:55:11Z</time>
      </trkpt>
      <trkpt lat="49.38744" lon="1.45336">
        <ele>112.53</ele>
        <time>2015-06-14T09:55:25Z</time>
      </trkpt>
      <trkpt lat="49.38742" lon="1.45401">
        <ele>115.56</ele>
        <time>2015-06-14T09:55:39Z</time>
      </trkpt>
      <trkpt lat="49.38735" lon="1.45451">
        <ele>118.67</ele>
        <time>2015-06-14T09:55:53Z</time>
      </trkpt>
      <trkpt lat="49.38729" lon="1.45499">
        <ele>121.85</ele>
        <time>2015-06-14T09:56:07Z</time>
      </trkpt>
      <trkpt lat="49.3871" lon="1.45541">
        <ele>125.13</ele>
        <time>2015-06-14T09:56:22Z</time>
      </trkpt>
      <trkpt lat="49.38692" lon="1.45573">
        <ele>128.13</ele>
        <time>2015-06-14T09:56:35Z</time>
      </trkpt>
      <trkpt lat="49.38668" lon="1.45624">
        <ele>131.29</ele>
        <time>2015-06-14T09:56:50Z</time>
      </trkpt>
      <trkpt lat="49.38645" lon="1.45668">
        <ele>134.44</ele>
        <time>2015-06-14T09:57:05Z</time>
      </trkpt>
      <trkpt lat="49.38625" lon="1.45727">
        <ele>137.56</ele>
        <time>2015-06-14T09:57:19Z</time>
      </trkpt>
      <trkpt lat="49.38618" lon="1.45781">
        <ele>140.62</ele>
        <time>2015-06-14T09:57:32Z</time>
      </trkpt>
      <trkpt lat="49.38618" lon="1.45861">
        <ele>143.82</ele>
        <time>2015-06-14T09:57:48Z</time>
      </trkpt>
      <trkpt lat="49.3863" lon="1.45917">
        <ele>146.86</ele>
        <time>2015-06-14T09:58:01Z</time>
      </trkpt>
      <trkpt lat="49.38649" lon="1.45978">
        <ele>150.02</ele>
        <time>2015-06-14T09:58:16Z</time>
      </trkpt>
      <trkpt lat="49.38668" lon="1.46026">
        <ele>153.04</ele>
        <time>2015-06-14T09:58:29Z</time>
      </trkpt>
      <trkpt lat="49.38686" lon="1.46098">
        <ele>155.48</ele>
        <time>2015-06-14T09:58:44Z</time>
      </trkpt>
      <trkpt lat="49.38691" lon="1.46182">
        <ele>157.62</ele>
        <time>2015-06-14T09:58:58Z</time>
      </trkpt>
      <trkpt lat="49.38669" lon="1.46256">
        <ele>160.17</ele>
        <time>2015-06-14T09:59:12Z</time>
      </trkpt>
      <trkpt lat="49.38641" lon="1.46326">
        <ele>162.87</ele>
        <time>2015-06-14T09:59:25Z</time>
      </trkpt>
      <trkpt lat="49.38618" lon="1.46392">
        <ele>164.63</ele>
        <time>2015-06-14T09:59:36Z</time>
      </trkpt>
      <trkpt lat="49.38594" lon="1.46457">
        <ele>165.98</ele>
        <time>2015-06-14T09:59:47Z</time>
      </trkpt>
      <trkpt lat="49.3857" lon="1.46524">
        <ele>167.15</ele>
        <time>2015-06-14T09:59:58Z</time>
      </trkpt>
      <trkpt lat="49.38547" lon="1.46587">
        <ele>167.09</ele>
        <time>2015-06-14T10:00:07Z</time>
      </trkpt>
      <trkpt lat="49.38544" lon="1.46594">
        <ele>167.1</ele>
        <time>2015-06-14T10:00:08Z</time>
      </trkpt>
      <trkpt lat="49.38523" lon="1.46671">
        <ele>167.56</ele>
        <time>2015-06-14T10:00:17Z</time>
      </trkpt>
      <trkpt lat="49.38516" lon="1.46746">
        <ele>165.65</ele>
        <time>2015-06-14T10:00:25Z</time>
      </trkpt>
      <trkpt lat="49.38509" lon="1.46824">
        <ele>165.61</ele>
        <time>2015-06-14T10:00:33Z</time>
      </trkpt>
      <trkpt lat="49.38501" lon="1.46898">
        <ele>164.69</ele>
        <time>2015-06-14T10:00:41Z</time>
      </trkpt>
      <trkpt lat="49.38487" lon="1.46969">
        <ele>164.28</ele>
        <time>2015-06-14T10:00:52Z</time>
      </trkpt>
      <trkpt lat="49.38486" lon="1.4697">
        <ele>164.35</ele>
        <time>2015-06-14T10:00:53Z</time>
      </trkpt>
      <trkpt lat="49.38484" lon="1.46972">
        <ele>164.36</ele>
        <time>2015-06-14T10:00:54Z</time>
      </trkpt>
      <trkpt lat="49.38484" lon="1.46977">
        <ele>164.33</ele>
        <time>2015-06-14T10:00:55Z</time>
      </trkpt>
      <trkpt lat="49.38482" lon="1.46981">
        <ele>164.15</ele>
        <time>2015-06-14T10:00:56Z</time>
      </trkpt>
      <trkpt lat="49.3848" lon="1.46985">
        <ele>164.08</ele>
        <time>2015-06-14T10:00:57Z</time>
      </trkpt>
      <trkpt lat="49.38477" lon="1.46989">
        <ele>163.89</ele>
        <time>2015-06-14T10:00:58Z</time>
      </trkpt>
      <trkpt lat="49.38474" lon="1.46994">
        <ele>163.56</ele>
        <time>2015-06-14T10:00:59Z</time>
      </trkpt>
      <trkpt lat="49.38432" lon="1.4705">
        <ele>161.71</ele>
        <time>2015-06-14T10:01:09Z</time>
      </trkpt>
      <trkpt lat="49.38388" lon="1.47108">
        <ele>159.9</ele>
        <time>2015-06-14T10:01:17Z</time>
      </trkpt>
      <trkpt lat="49.3838" lon="1.47129">
        <ele>159.04</ele>
        <time>2015-06-14T10:01:20Z</time>
      </trkpt>
      <trkpt lat="49.38379" lon="1.47136">
        <ele>158.85</ele>
        <time>2015-06-14T10:01:21Z</time>
      </trkpt>
      <trkpt lat="49.38378" lon="1.47143">
        <ele>158.87</ele>
        <time>2015-06-14T10:01:22Z</time>
      </trkpt>
      <trkpt lat="49.38379" lon="1.4715">
        <ele>159.17</ele>
        <time>2015-06-14T10:01:23Z</time>
      </trkpt>
      <trkpt lat="49.38379" lon="1.47157">
        <ele>159.56</ele>
        <time>2015-06-14T10:01:24Z</time>
      </trkpt>
      <trkpt lat="49.38379" lon="1.47242">
        <ele>159.33</ele>
        <time>2015-06-14T10:01:34Z</time>
      </trkpt>
      <trkpt lat="49.3838" lon="1.47268">
        <ele>159.1</ele>
        <time>2015-06-14T10:01:37Z</time>
      </trkpt>
      <trkpt lat="49.38382" lon="1.47318">
        <ele>158.42</ele>
        <time>2015-06-14T10:01:44Z</time>
      </trkpt>
      <trkpt lat="49.38392" lon="1.47401">
        <ele>159.2</ele>
        <time>2015-06-14T10:01:55Z</time>
      </trkpt>
      <trkpt lat="49.38393" lon="1.47408">
        <ele>158.93</ele>
        <time>2015-06-14T10:01:56Z</time>
      </trkpt>
      <trkpt lat="49.38397" lon="1.47436">
        <ele>159.04</ele>
        <time>2015-06-14T10:02:00Z</time>
      </trkpt>
      <trkpt lat="49.38405" lon="1.47497">
        <ele>158.66</ele>
        <time>2015-06-14T10:02:07Z</time>
      </trkpt>
      <trkpt lat="49.38406" lon="1.47506">
        <ele>158.73</ele>
        <time>2015-06-14T10:02:08Z</time>
      </trkpt>
      <trkpt lat="49.38406" lon="1.47515">
        <ele>159.07</ele>
        <time>2015-06-14T10:02:09Z</time>
      </trkpt>
      <trkpt lat="49.38403" lon="1.47532">
        <ele>158.14</ele>
        <time>2015-06-14T10:02:11Z</time>
      </trkpt>
      <trkpt lat="49.38402" lon="1.47539">
        <ele>157.44</ele>
        <time>2015-06-14T10:02:12Z</time>
      </trkpt>
      <trkpt lat="49.38402" lon="1.47548">
        <ele>156.99</ele>
        <time>2015-06-14T10:02:13Z</time>
      </trkpt>
      <trkpt lat="49.38402" lon="1.47555">
        <ele>156.83</ele>
        <time>2015-06-14T10:02:14Z</time>
      </trkpt>
      <trkpt lat="49.38404" lon="1.47561">
        <ele>156.82</ele>
        <time>2015-06-14T10:02:15Z</time>
      </trkpt>
      <trkpt lat="49.38406" lon="1.47566">
        <ele>156.82</ele>
        <time>2015-06-14T10:02:16Z</time>
      </trkpt>
      <trkpt lat="49.38407" lon="1.4757">
        <ele>156.81</ele>
        <time>2015-06-14T10:02:17Z</time>
      </trkpt>
      <trkpt lat="49.38412" lon="1.47593">
        <ele>157</ele>
        <time>2015-06-14T10:02:25Z</time>
      </trkpt>
      <trkpt lat="49.38413" lon="1.47594">
        <ele>157.08</ele>
        <time>2015-06-14T10:02:26Z</time>
      </trkpt>
      <trkpt lat="49.38413" lon="1.47592">
        <ele>157.26</ele>
        <time>2015-06-14T10:02:29Z</time>
      </trkpt>
      <trkpt lat="49.38412" lon="1.47591">
        <ele>157.21</ele>
        <time>2015-06-14T10:02:30Z</time>
      </trkpt>
      <trkpt lat="49.38411" lon="1.47589">
        <ele>157.11</ele>
        <time>2015-06-14T10:02:31Z</time>
      </trkpt>
      <trkpt lat="49.3841" lon="1.47588">
        <ele>156.97</ele>
        <time>2015-06-14T10:02:32Z</time>
      </trkpt>
      <trkpt lat="49.3841" lon="1.47591">
        <ele>157</ele>
        <time>2015-06-14T10:02:35Z</time>
      </trkpt>
      <trkpt lat="49.38411" lon="1.47594">
        <ele>157</ele>
        <time>2015-06-14T10:02:36Z</time>
      </trkpt>
      <trkpt lat="49.38412" lon="1.47596">
        <ele>156.96</ele>
        <time>2015-06-14T10:02:37Z</time>
      </trkpt>
      <trkpt lat="49.38419" lon="1.47634">
        <ele>157.82</ele>
        <time>2015-06-14T10:02:44Z</time>
      </trkpt>
      <trkpt lat="49.3842" lon="1.47643">
        <ele>157.94</ele>
        <time>2015-06-14T10:02:45Z</time>
      </trkpt>
      <trkpt lat="49.38421" lon="1.47661">
        <ele>158.13</ele>
        <time>2015-06-14T10:02:47Z</time>
      </trkpt>
      <trkpt lat="49.38422" lon="1.47686">
        <ele>158.56</ele>
        <time>2015-06-14T10:02:50Z</time>
      </trkpt>
      <trkpt lat="49.38426" lon="1.47764">
        <ele>159.66</ele>
        <time>2015-06-14T10:02:59Z</time>
      </trkpt>
      <trkpt lat="49.38427" lon="1.47772">
        <ele>159.84</ele>
        <time>2015-06-14T10:03:00Z</time>
      </trkpt>
      <trkpt lat="49.38427" lon="1.4778">
        <ele>159.96</ele>
        <time>2015-06-14T10:03:01Z</time>
      </trkpt>
      <trkpt lat="49.38425" lon="1.47788">
        <ele>159.88</ele>
        <time>2015-06-14T10:03:02Z</time>
      </trkpt>
      <trkpt lat="49.38422" lon="1.47796">
        <ele>159.71</ele>
        <time>2015-06-14T10:03:03Z</time>
      </trkpt>
      <trkpt lat="49.38417" lon="1.47802">
        <ele>159.86</ele>
        <time>2015-06-14T10:03:04Z</time>
      </trkpt>
      <trkpt lat="49.38413" lon="1.47805">
        <ele>159.94</ele>
        <time>2015-06-14T10:03:05Z</time>
      </trkpt>
      <trkpt lat="49.38408" lon="1.47808">
        <ele>159.96</ele>
        <time>2015-06-14T10:03:06Z</time>
      </trkpt>
      <trkpt lat="49.38403" lon="1.4781">
        <ele>160.24</ele>
        <time>2015-06-14T10:03:07Z</time>
      </trkpt>
      <trkpt lat="49.38398" lon="1.47811">
        <ele>160.47</ele>
        <time>2015-06-14T10:03:08Z</time>
      </trkpt>
      <trkpt lat="49.38393" lon="1.47811">
        <ele>160.29</ele>
        <time>2015-06-14T10:03:09Z</time>
      </trkpt>
      <trkpt lat="49.38368" lon="1.47809">
        <ele>161.32</ele>
        <time>2015-06-14T10:03:14Z</time>
      </trkpt>
      <trkpt lat="49.38314" lon="1.47809">
        <ele>162.02</ele>
        <time>2015-06-14T10:03:26Z</time>
      </trkpt>
      <trkpt lat="49.38261" lon="1.47811">
        <ele>163.68</ele>
        <time>2015-06-14T10:03:38Z</time>
      </trkpt>
      <trkpt lat="49.38211" lon="1.47806">
        <ele>164.41</ele>
        <time>2015-06-14T10:03:50Z</time>
      </trkpt>
      <trkpt lat="49.38158" lon="1.47805">
        <ele>165.63</ele>
        <time>2015-06-14T10:04:03Z</time>
      </trkpt>
      <trkpt lat="49.38094" lon="1.47801">
        <ele>167.79</ele>
        <time>2015-06-14T10:04:16Z</time>
      </trkpt>
      <trkpt lat="49.38037" lon="1.47803">
        <ele>168.39</ele>
        <time>2015-06-14T10:04:27Z</time>
      </trkpt>
      <trkpt lat="49.37987" lon="1.47806">
        <ele>167.73</ele>
        <time>2015-06-14T10:04:38Z</time>
      </trkpt>
      <trkpt lat="49.37985" lon="1.47811">
        <ele>167.63</ele>
        <time>2015-06-14T10:04:39Z</time>
      </trkpt>
      <trkpt lat="49.37983" lon="1.47816">
        <ele>167.84</ele>
        <time>2015-06-14T10:04:40Z</time>
      </trkpt>
      <trkpt lat="49.37981" lon="1.47821">
        <ele>168.39</ele>
        <time>2015-06-14T10:04:41Z</time>
      </trkpt>
      <trkpt lat="49.3798" lon="1.47826">
        <ele>168.72</ele>
        <time>2015-06-14T10:04:42Z</time>
      </trkpt>
      <trkpt lat="49.37979" lon="1.47834">
        <ele>168.34</ele>
        <time>2015-06-14T10:04:43Z</time>
      </trkpt>
      <trkpt lat="49.37979" lon="1.47841">
        <ele>168.06</ele>
        <time>2015-06-14T10:04:44Z</time>
      </trkpt>
      <trkpt lat="49.37978" lon="1.47848">
        <ele>168.23</ele>
        <time>2015-06-14T10:04:45Z</time>
      </trkpt>
      <trkpt lat="49.37977" lon="1.47882">
        <ele>168.41</ele>
        <time>2015-06-14T10:04:50Z</time>
      </trkpt>
      <trkpt lat="49.37978" lon="1.47889">
        <ele>168.36</ele>
        <time>2015-06-14T10:04:51Z</time>
      </trkpt>
      <trkpt lat="49.37978" lon="1.47909">
        <ele>168.49</ele>
        <time>2015-06-14T10:04:54Z</time>
      </trkpt>
      <trkpt lat="49.37991" lon="1.47987">
        <ele>168.94</ele>
        <time>2015-06-14T10:05:08Z</time>
      </trkpt>
      <trkpt lat="49.38016" lon="1.48067">
        <ele>168.26</ele>
        <time>2015-06-14T10:05:23Z</time>
      </trkpt>
      <trkpt lat="49.38018" lon="1.48074">
        <ele>168.04</ele>
        <time>2015-06-14T10:05:24Z</time>
      </trkpt>
      <trkpt lat="49.38019" lon="1.48081">
        <ele>167.98</ele>
        <time>2015-06-14T10:05:25Z</time>
      </trkpt>
      <trkpt lat="49.3802" lon="1.48088">
        <ele>168.17</ele>
        <time>2015-06-14T10:05:26Z</time>
      </trkpt>
      <trkpt lat="49.38022" lon="1.48094">
        <ele>168.17</ele>
        <time>2015-06-14T10:05:27Z</time>
      </trkpt>
      <trkpt lat="49.38024" lon="1.48099">
        <ele>168.16</ele>
        <time>2015-06-14T10:05:28Z</time>
      </trkpt>
      <trkpt lat="49.38025" lon="1.48106">
        <ele>168.16</ele>
        <time>2015-06-14T10:05:29Z</time>
      </trkpt>
      <trkpt lat="49.38034" lon="1.48164">
        <ele>168</ele>
        <time>2015-06-14T10:05:37Z</time>
      </trkpt>
      <trkpt lat="49.38045" lon="1.48241">
        <ele>168.01</ele>
        <time>2015-06-14T10:05:48Z</time>
      </trkpt>
      <trkpt lat="49.38047" lon="1.48248">
        <ele>167.84</ele>
        <time>2015-06-14T10:05:49Z</time>
      </trkpt>
      <trkpt lat="49.38052" lon="1.4827">
        <ele>168.18</ele>
        <time>2015-06-14T10:05:52Z</time>
      </trkpt>
      <trkpt lat="49.38059" lon="1.48316">
        <ele>167.56</ele>
        <time>2015-06-14T10:05:58Z</time>
      </trkpt>
      <trkpt lat="49.38075" lon="1.48398">
        <ele>168.02</ele>
        <time>2015-06-14T10:06:09Z</time>
      </trkpt>
      <trkpt lat="49.38092" lon="1.48477">
        <ele>167.44</ele>
        <time>2015-06-14T10:06:19Z</time>
      </trkpt>
      <trkpt lat="49.38103" lon="1.48542">
        <ele>167.03</ele>
        <time>2015-06-14T10:06:26Z</time>
      </trkpt>
      <trkpt lat="49.38106" lon="1.48552">
        <ele>166.76</ele>
        <time>2015-06-14T10:06:27Z</time>
      </trkpt>
      <trkpt lat="49.38127" lon="1.48639">
        <ele>165.6</ele>
        <time>2015-06-14T10:06:37Z</time>
      </trkpt>
      <trkpt lat="49.38133" lon="1.48742">
        <ele>165.93</ele>
        <time>2015-06-14T10:06:53Z</time>
      </trkpt>
      <trkpt lat="49.38134" lon="1.48751">
        <ele>165.73</ele>
        <time>2015-06-14T10:06:54Z</time>
      </trkpt>
      <trkpt lat="49.38136" lon="1.48757">
        <ele>165.69</ele>
        <time>2015-06-14T10:06:55Z</time>
      </trkpt>
      <trkpt lat="49.38137" lon="1.48762">
        <ele>165.56</ele>
        <time>2015-06-14T10:06:56Z</time>
      </trkpt>
      <trkpt lat="49.38137" lon="1.4877">
        <ele>165.5</ele>
        <time>2015-06-14T10:06:57Z</time>
      </trkpt>
      <trkpt lat="49.38138" lon="1.48776">
        <ele>165.24</ele>
        <time>2015-06-14T10:06:58Z</time>
      </trkpt>
      <trkpt lat="49.38138" lon="1.48783">
        <ele>165.06</ele>
        <time>2015-06-14T10:06:59Z</time>
      </trkpt>
      <trkpt lat="49.38141" lon="1.4881">
        <ele>164.97</ele>
        <time>2015-06-14T10:07:03Z</time>
      </trkpt>
      <trkpt lat="49.38144" lon="1.48816">
        <ele>165.02</ele>
        <time>2015-06-14T10:07:04Z</time>
      </trkpt>
      <trkpt lat="49.38146" lon="1.48824">
        <ele>165.16</ele>
        <time>2015-06-14T10:07:05Z</time>
      </trkpt>
      <trkpt lat="49.38151" lon="1.48859">
        <ele>164.6</ele>
        <time>2015-06-14T10:07:11Z</time>
      </trkpt>
      <trkpt lat="49.38149" lon="1.48864">
        <ele>164.29</ele>
        <time>2015-06-14T10:07:12Z</time>
      </trkpt>
      <trkpt lat="49.38148" lon="1.48867">
        <ele>164.37</ele>
        <time>2015-06-14T10:07:13Z</time>
      </trkpt>
      <trkpt lat="49.38146" lon="1.48871">
        <ele>164.53</ele>
        <time>2015-06-14T10:07:14Z</time>
      </trkpt>
      <trkpt lat="49.38144" lon="1.48874">
        <ele>164.58</ele>
        <time>2015-06-14T10:07:15Z</time>
      </trkpt>
      <trkpt lat="49.38141" lon="1.48878">
        <ele>164.58</ele>
        <time>2015-06-14T10:07:16Z</time>
      </trkpt>
      <trkpt lat="49.38099" lon="1.48946">
        <ele>165.64</ele>
        <time>2015-06-14T10:07:33Z</time>
      </trkpt>
      <trkpt lat="49.38067" lon="1.49009">
        <ele>165.44</ele>
        <time>2015-06-14T10:07:47Z</time>
      </trkpt>
      <trkpt lat="49.38042" lon="1.49087">
        <ele>164.47</ele>
        <time>2015-06-14T10:07:58Z</time>
      </trkpt>
      <trkpt lat="49.38021" lon="1.49171">
        <ele>163.34</ele>
        <time>2015-06-14T10:08:07Z</time>
      </trkpt>
      <trkpt lat="49.38" lon="1.49252">
        <ele>161.81</ele>
        <time>2015-06-14T10:08:15Z</time>
      </trkpt>
      <trkpt lat="49.37976" lon="1.49336">
        <ele>159.13</ele>
        <time>2015-06-14T10:08:22Z</time>
      </trkpt>
      <trkpt lat="49.37955" lon="1.49419">
        <ele>156.98</ele>
        <time>2015-06-14T10:08:29Z</time>
      </trkpt>
      <trkpt lat="49.37937" lon="1.49462">
        <ele>155.84</ele>
        <time>2015-06-14T10:08:34Z</time>
      </trkpt>
      <trkpt lat="49.37931" lon="1.49465">
        <ele>155.74</ele>
        <time>2015-06-14T10:08:35Z</time>
      </trkpt>
      <trkpt lat="49.37925" lon="1.49468">
        <ele>155.78</ele>
        <time>2015-06-14T10:08:36Z</time>
      </trkpt>
      <trkpt lat="49.37918" lon="1.49468">
        <ele>155.75</ele>
        <time>2015-06-14T10:08:37Z</time>
      </trkpt>
      <trkpt lat="49.37913" lon="1.49468">
        <ele>155.53</ele>
        <time>2015-06-14T10:08:38Z</time>
      </trkpt>
      <trkpt lat="49.37907" lon="1.49468">
        <ele>155.38</ele>
        <time>2015-06-14T10:08:39Z</time>
      </trkpt>
      <trkpt lat="49.37885" lon="1.49469">
        <ele>153.69</ele>
        <time>2015-06-14T10:08:43Z</time>
      </trkpt>
      <trkpt lat="49.37864" lon="1.49468">
        <ele>153.26</ele>
        <time>2015-06-14T10:08:47Z</time>
      </trkpt>
      <trkpt lat="49.37816" lon="1.49478">
        <ele>149.57</ele>
        <time>2015-06-14T10:08:55Z</time>
      </trkpt>
      <trkpt lat="49.37809" lon="1.49479">
        <ele>149.47</ele>
        <time>2015-06-14T10:08:56Z</time>
      </trkpt>
      <trkpt lat="49.37794" lon="1.49483">
        <ele>148.74</ele>
        <time>2015-06-14T10:08:58Z</time>
      </trkpt>
      <trkpt lat="49.37787" lon="1.49485">
        <ele>148.18</ele>
        <time>2015-06-14T10:08:59Z</time>
      </trkpt>
      <trkpt lat="49.37745" lon="1.49503">
        <ele>144.98</ele>
        <time>2015-06-14T10:09:04Z</time>
      </trkpt>
      <trkpt lat="49.37701" lon="1.4952">
        <ele>141.87</ele>
        <time>2015-06-14T10:09:09Z</time>
      </trkpt>
      <trkpt lat="49.37672" lon="1.49527">
        <ele>138.66</ele>
        <time>2015-06-14T10:09:12Z</time>
      </trkpt>
      <trkpt lat="49.37663" lon="1.49526">
        <ele>137.91</ele>
        <time>2015-06-14T10:09:13Z</time>
      </trkpt>
      <trkpt lat="49.37636" lon="1.49523">
        <ele>134.39</ele>
        <time>2015-06-14T10:09:16Z</time>
      </trkpt>
      <trkpt lat="49.37618" lon="1.49522">
        <ele>132.17</ele>
        <time>2015-06-14T10:09:18Z</time>
      </trkpt>
      <trkpt lat="49.3761" lon="1.49524">
        <ele>130.76</ele>
        <time>2015-06-14T10:09:19Z</time>
      </trkpt>
      <trkpt lat="49.37577" lon="1.49535">
        <ele>127.35</ele>
        <time>2015-06-14T10:09:23Z</time>
      </trkpt>
      <trkpt lat="49.37551" lon="1.49552">
        <ele>123.45</ele>
        <time>2015-06-14T10:09:27Z</time>
      </trkpt>
      <trkpt lat="49.37524" lon="1.49571">
        <ele>120.03</ele>
        <time>2015-06-14T10:09:31Z</time>
      </trkpt>
      <trkpt lat="49.37494" lon="1.49593">
        <ele>116.35</ele>
        <time>2015-06-14T10:09:35Z</time>
      </trkpt>
      <trkpt lat="49.37464" lon="1.49621">
        <ele>112.74</ele>
        <time>2015-06-14T10:09:39Z</time>
      </trkpt>
      <trkpt lat="49.37437" lon="1.49643">
        <ele>109.53</ele>
        <time>2015-06-14T10:09:43Z</time>
      </trkpt>
      <trkpt lat="49.37432" lon="1.4965">
        <ele>107.89</ele>
        <time>2015-06-14T10:09:44Z</time>
      </trkpt>
      <trkpt lat="49.37427" lon="1.49658">
        <ele>106.81</ele>
        <time>2015-06-14T10:09:45Z</time>
      </trkpt>
      <trkpt lat="49.37422" lon="1.49665">
        <ele>106.01</ele>
        <time>2015-06-14T10:09:46Z</time>
      </trkpt>
      <trkpt lat="49.37416" lon="1.49678">
        <ele>104.9</ele>
        <time>2015-06-14T10:09:48Z</time>
      </trkpt>
      <trkpt lat="49.37406" lon="1.49693">
        <ele>102.59</ele>
        <time>2015-06-14T10:09:51Z</time>
      </trkpt>
      <trkpt lat="49.37402" lon="1.49699">
        <ele>101.08</ele>
        <time>2015-06-14T10:09:52Z</time>
      </trkpt>
      <trkpt lat="49.37392" lon="1.49712">
        <ele>98.83</ele>
        <time>2015-06-14T10:09:54Z</time>
      </trkpt>
      <trkpt lat="49.37359" lon="1.49744">
        <ele>94.82</ele>
        <time>2015-06-14T10:09:59Z</time>
      </trkpt>
      <trkpt lat="49.37336" lon="1.49758">
        <ele>91.14</ele>
        <time>2015-06-14T10:10:02Z</time>
      </trkpt>
      <trkpt lat="49.3733" lon="1.49759">
        <ele>90.97</ele>
        <time>2015-06-14T10:10:03Z</time>
      </trkpt>
      <trkpt lat="49.37311" lon="1.49764">
        <ele>89.01</ele>
        <time>2015-06-14T10:10:06Z</time>
      </trkpt>
      <trkpt lat="49.37302" lon="1.49772">
        <ele>88.1</ele>
        <time>2015-06-14T10:10:08Z</time>
      </trkpt>
      <trkpt lat="49.37283" lon="1.49793">
        <ele>85.36</ele>
        <time>2015-06-14T10:10:12Z</time>
      </trkpt>
      <trkpt lat="49.37278" lon="1.49796">
        <ele>85.25</ele>
        <time>2015-06-14T10:10:13Z</time>
      </trkpt>
      <trkpt lat="49.37274" lon="1.49795">
        <ele>85.31</ele>
        <time>2015-06-14T10:10:14Z</time>
      </trkpt>
      <trkpt lat="49.3727" lon="1.49795">
        <ele>85.1</ele>
        <time>2015-06-14T10:10:15Z</time>
      </trkpt>
      <trkpt lat="49.37266" lon="1.49794">
        <ele>84.85</ele>
        <time>2015-06-14T10:10:16Z</time>
      </trkpt>
      <trkpt lat="49.37262" lon="1.49794">
        <ele>84.88</ele>
        <time>2015-06-14T10:10:17Z</time>
      </trkpt>
      <trkpt lat="49.37258" lon="1.49794">
        <ele>84.85</ele>
        <time>2015-06-14T10:10:18Z</time>
      </trkpt>
      <trkpt lat="49.37256" lon="1.49793">
        <ele>84.77</ele>
        <time>2015-06-14T10:10:19Z</time>
      </trkpt>
      <trkpt lat="49.3725" lon="1.49798">
        <ele>84.74</ele>
        <time>2015-06-14T10:10:20Z</time>
      </trkpt>
      <trkpt lat="49.3725" lon="1.49795">
        <ele>84.7</ele>
        <time>2015-06-14T10:10:21Z</time>
      </trkpt>
      <trkpt lat="49.3725" lon="1.49793">
        <ele>84.7</ele>
        <time>2015-06-14T10:10:22Z</time>
      </trkpt>
      <trkpt lat="49.37249" lon="1.49789">
        <ele>84.76</ele>
        <time>2015-06-14T10:10:23Z</time>
      </trkpt>
      <trkpt lat="49.37248" lon="1.49784">
        <ele>84.85</ele>
        <time>2015-06-14T10:10:24Z</time>
      </trkpt>
      <trkpt lat="49.37247" lon="1.49779">
        <ele>84.84</ele>
        <time>2015-06-14T10:10:25Z</time>
      </trkpt>
      <trkpt lat="49.37248" lon="1.49773">
        <ele>84.81</ele>
        <time>2015-06-14T10:10:26Z</time>
      </trkpt>
      <trkpt lat="49.3725" lon="1.49767">
        <ele>84.75</ele>
        <time>2015-06-14T10:10:27Z</time>
      </trkpt>
      <trkpt lat="49.37252" lon="1.49761">
        <ele>84.63</ele>
        <time>2015-06-14T10:10:28Z</time>
      </trkpt>
      <trkpt lat="49.37253" lon="1.49755">
        <ele>84.57</ele>
        <time>2015-06-14T10:10:29Z</time>
      </trkpt>
      <trkpt lat="49.37259" lon="1.49737">
        <ele>84.76</ele>
        <time>2015-06-14T10:10:32Z</time>
      </trkpt>
      <trkpt lat="49.37272" lon="1.49702">
        <ele>84.91</ele>
        <time>2015-06-14T10:10:38Z</time>
      </trkpt>
      <trkpt lat="49.37275" lon="1.49697">
        <ele>84.97</ele>
        <time>2015-06-14T10:10:39Z</time>
      </trkpt>
      <trkpt lat="49.37285" lon="1.49682">
        <ele>84.02</ele>
        <time>2015-06-14T10:10:42Z</time>
      </trkpt>
      <trkpt lat="49.37288" lon="1.49678">
        <ele>83.13</ele>
        <time>2015-06-14T10:10:43Z</time>
      </trkpt>
      <trkpt lat="49.37292" lon="1.49675">
        <ele>82.55</ele>
        <time>2015-06-14T10:10:44Z</time>
      </trkpt>
      <trkpt lat="49.37295" lon="1.49673">
        <ele>82.37</ele>
        <time>2015-06-14T10:10:45Z</time>
      </trkpt>
      <trkpt lat="49.37297" lon="1.49673">
        <ele>82.48</ele>
        <time>2015-06-14T10:10:46Z</time>
      </trkpt>
      <trkpt lat="49.373" lon="1.49673">
        <ele>82.66</ele>
        <time>2015-06-14T10:10:47Z</time>
      </trkpt>
      <trkpt lat="49.37302" lon="1.49672">
        <ele>82.73</ele>
        <time>2015-06-14T10:10:48Z</time>
      </trkpt>
      <trkpt lat="49.37303" lon="1.4967">
        <ele>82.83</ele>
        <time>2015-06-14T10:10:49Z</time>
      </trkpt>
      <trkpt lat="49.37301" lon="1.49667">
        <ele>82.78</ele>
        <time>2015-06-14T10:10:58Z</time>
      </trkpt>
      <trkpt lat="49.37306" lon="1.49682">
        <ele>83.69</ele>
        <time>2015-06-14T10:11:45Z</time>
      </trkpt>
      <trkpt lat="49.37307" lon="1.49685">
        <ele>83.61</ele>
        <time>2015-06-14T10:11:51Z</time>
      </trkpt>
      <trkpt lat="49.37305" lon="1.4969">
        <ele>83.61</ele>
        <time>2015-06-14T10:11:54Z</time>
      </trkpt>
      <trkpt lat="49.37305" lon="1.49692">
        <ele>83.61</ele>
        <time>2015-06-14T10:11:55Z</time>
      </trkpt>
      <trkpt lat="49.37302" lon="1.49691">
        <ele>83.67</ele>
        <time>2015-06-14T10:12:27Z</time>
      </trkpt>
      <trkpt lat="49.37302" lon="1.49691">
        <ele>83.59</ele>
        <time>2015-06-14T10:12:47Z</time>
      </trkpt>
      <trkpt lat="49.37301" lon="1.49692">
        <ele>83.58</ele>
        <time>2015-06-14T10:12:48Z</time>
      </trkpt>
      <trkpt lat="49.37299" lon="1.49697">
        <ele>83.49</ele>
        <time>2015-06-14T10:12:51Z</time>
      </trkpt>
      <trkpt lat="49.37299" lon="1.49698">
        <ele>83.5</ele>
        <time>2015-06-14T10:12:52Z</time>
      </trkpt>
      <trkpt lat="49.37297" lon="1.49702">
        <ele>83.5</ele>
        <time>2015-06-14T10:13:00Z</time>
      </trkpt>
      <trkpt lat="49.37297" lon="1.49691">
        <ele>83.79</ele>
        <time>2015-06-14T10:13:21Z</time>
      </trkpt>
      <trkpt lat="49.37298" lon="1.49691">
        <ele>83.91</ele>
        <time>2015-06-14T10:13:22Z</time>
      </trkpt>
      <trkpt lat="49.37304" lon="1.49685">
        <ele>83.08</ele>
        <time>2015-06-14T10:14:08Z</time>
      </trkpt>
      <trkpt lat="49.37305" lon="1.4969">
        <ele>82.46</ele>
        <time>2015-06-14T10:15:06Z</time>
      </trkpt>
      <trkpt lat="49.37307" lon="1.49691">
        <ele>82.55</ele>
        <time>2015-06-14T10:15:20Z</time>
      </trkpt>
      <trkpt lat="49.37307" lon="1.49689">
        <ele>82.52</ele>
        <time>2015-06-14T10:15:21Z</time>
      </trkpt>
      <trkpt lat="49.37306" lon="1.49686">
        <ele>82.25</ele>
        <time>2015-06-14T10:15:23Z</time>
      </trkpt>
      <trkpt lat="49.37305" lon="1.49685">
        <ele>82.16</ele>
        <time>2015-06-14T10:15:24Z</time>
      </trkpt>
      <trkpt lat="49.37308" lon="1.49678">
        <ele>83.34</ele>
        <time>2015-06-14T10:15:47Z</time>
      </trkpt>
      <trkpt lat="49.37305" lon="1.49674">
        <ele>82.02</ele>
        <time>2015-06-14T10:16:09Z</time>
      </trkpt>
      <trkpt lat="49.37302" lon="1.49676">
        <ele>81.95</ele>
        <time>2015-06-14T10:16:45Z</time>
      </trkpt>
      <trkpt lat="49.373" lon="1.49677">
        <ele>81.97</ele>
        <time>2015-06-14T10:16:46Z</time>
      </trkpt>
      <trkpt lat="49.37264" lon="1.49717">
        <ele>83.97</ele>
        <time>2015-06-14T10:17:03Z</time>
      </trkpt>
      <trkpt lat="49.37243" lon="1.4978">
        <ele>84.2</ele>
        <time>2015-06-14T10:17:19Z</time>
      </trkpt>
      <trkpt lat="49.37245" lon="1.49832">
        <ele>83.97</ele>
        <time>2015-06-14T10:17:30Z</time>
      </trkpt>
      <trkpt lat="49.37243" lon="1.49833">
        <ele>84.18</ele>
        <time>2015-06-14T10:17:31Z</time>
      </trkpt>
      <trkpt lat="49.37241" lon="1.49834">
        <ele>84.34</ele>
        <time>2015-06-14T10:17:32Z</time>
      </trkpt>
      <trkpt lat="49.37239" lon="1.49835">
        <ele>84.41</ele>
        <time>2015-06-14T10:17:33Z</time>
      </trkpt>
      <trkpt lat="49.37237" lon="1.49836">
        <ele>84.56</ele>
        <time>2015-06-14T10:17:34Z</time>
      </trkpt>
      <trkpt lat="49.37235" lon="1.49837">
        <ele>84.87</ele>
        <time>2015-06-14T10:17:35Z</time>
      </trkpt>
      <trkpt lat="49.37233" lon="1.49837">
        <ele>85.19</ele>
        <time>2015-06-14T10:17:36Z</time>
      </trkpt>
      <trkpt lat="49.37231" lon="1.49839">
        <ele>85.44</ele>
        <time>2015-06-14T10:17:37Z</time>
      </trkpt>
      <trkpt lat="49.37229" lon="1.49839">
        <ele>85.78</ele>
        <time>2015-06-14T10:17:38Z</time>
      </trkpt>
      <trkpt lat="49.37213" lon="1.49847">
        <ele>88.81</ele>
        <time>2015-06-14T10:17:47Z</time>
      </trkpt>
      <trkpt lat="49.372" lon="1.49852">
        <ele>92.04</ele>
        <time>2015-06-14T10:17:57Z</time>
      </trkpt>
      <trkpt lat="49.37189" lon="1.49849">
        <ele>95.19</ele>
        <time>2015-06-14T10:18:04Z</time>
      </trkpt>
      <trkpt lat="49.37179" lon="1.4985">
        <ele>97.65</ele>
        <time>2015-06-14T10:18:11Z</time>
      </trkpt>
      <trkpt lat="49.37168" lon="1.49852">
        <ele>100.76</ele>
        <time>2015-06-14T10:18:19Z</time>
      </trkpt>
      <trkpt lat="49.3716" lon="1.49851">
        <ele>103.1</ele>
        <time>2015-06-14T10:18:26Z</time>
      </trkpt>
      <trkpt lat="49.37155" lon="1.49853">
        <ele>104.27</ele>
        <time>2015-06-14T10:18:30Z</time>
      </trkpt>
      <trkpt lat="49.3714" lon="1.49858">
        <ele>107.34</ele>
        <time>2015-06-14T10:18:41Z</time>
      </trkpt>
      <trkpt lat="49.37134" lon="1.49863">
        <ele>109.85</ele>
        <time>2015-06-14T10:18:51Z</time>
      </trkpt>
      <trkpt lat="49.37134" lon="1.49865">
        <ele>110.17</ele>
        <time>2015-06-14T10:18:52Z</time>
      </trkpt>
      <trkpt lat="49.37131" lon="1.4986">
        <ele>112.87</ele>
        <time>2015-06-14T10:19:01Z</time>
      </trkpt>
      <trkpt lat="49.37115" lon="1.49861">
        <ele>115.9</ele>
        <time>2015-06-14T10:19:14Z</time>
      </trkpt>
      <trkpt lat="49.37089" lon="1.49876">
        <ele>119.19</ele>
        <time>2015-06-14T10:19:26Z</time>
      </trkpt>
      <trkpt lat="49.3707" lon="1.49879">
        <ele>122.2</ele>
        <time>2015-06-14T10:19:38Z</time>
      </trkpt>
      <trkpt lat="49.37055" lon="1.49883">
        <ele>125.32</ele>
        <time>2015-06-14T10:19:50Z</time>
      </trkpt>
      <trkpt lat="49.37042" lon="1.49889">
        <ele>128.35</ele>
        <time>2015-06-14T10:20:02Z</time>
      </trkpt>
      <trkpt lat="49.37026" lon="1.49895">
        <ele>131.53</ele>
        <time>2015-06-14T10:20:15Z</time>
      </trkpt>
      <trkpt lat="49.37015" lon="1.49897">
        <ele>134.58</ele>
        <time>2015-06-14T10:20:26Z</time>
      </trkpt>
      <trkpt lat="49.37009" lon="1.49899">
        <ele>136.49</ele>
        <time>2015-06-14T10:20:31Z</time>
      </trkpt>
      <trkpt lat="49.37008" lon="1.49898">
        <ele>136.77</ele>
        <time>2015-06-14T10:20:32Z</time>
      </trkpt>
      <trkpt lat="49.37006" lon="1.49899">
        <ele>136.96</ele>
        <time>2015-06-14T10:20:33Z</time>
      </trkpt>
      <trkpt lat="49.37005" lon="1.49899">
        <ele>137.13</ele>
        <time>2015-06-14T10:20:34Z</time>
      </trkpt>
      <trkpt lat="49.37004" lon="1.499">
        <ele>137.5</ele>
        <time>2015-06-14T10:20:35Z</time>
      </trkpt>
      <trkpt lat="49.3699" lon="1.49904">
        <ele>140.76</ele>
        <time>2015-06-14T10:20:45Z</time>
      </trkpt>
      <trkpt lat="49.36976" lon="1.49905">
        <ele>144.05</ele>
        <time>2015-06-14T10:20:56Z</time>
      </trkpt>
      <trkpt lat="49.3696" lon="1.49906">
        <ele>147.29</ele>
        <time>2015-06-14T10:21:08Z</time>
      </trkpt>
      <trkpt lat="49.36952" lon="1.49909">
        <ele>150.45</ele>
        <time>2015-06-14T10:21:17Z</time>
      </trkpt>
      <trkpt lat="49.36936" lon="1.49918">
        <ele>153.65</ele>
        <time>2015-06-14T10:21:30Z</time>
      </trkpt>
      <trkpt lat="49.36923" lon="1.49929">
        <ele>155.59</ele>
        <time>2015-06-14T10:21:43Z</time>
      </trkpt>
      <trkpt lat="49.36921" lon="1.49929">
        <ele>155.74</ele>
        <time>2015-06-14T10:21:44Z</time>
      </trkpt>
      <trkpt lat="49.36888" lon="1.49934">
        <ele>158.78</ele>
        <time>2015-06-14T10:22:04Z</time>
      </trkpt>
      <trkpt lat="49.3684" lon="1.49954">
        <ele>161.8</ele>
        <time>2015-06-14T10:22:24Z</time>
      </trkpt>
      <trkpt lat="49.36792" lon="1.49978">
        <ele>163.71</ele>
        <time>2015-06-14T10:22:39Z</time>
      </trkpt>
      <trkpt lat="49.36743" lon="1.49996">
        <ele>164.49</ele>
        <time>2015-06-14T10:22:52Z</time>
      </trkpt>
      <trkpt lat="49.36691" lon="1.5001">
        <ele>164.48</ele>
        <time>2015-06-14T10:23:04Z</time>
      </trkpt>
      <trkpt lat="49.36642" lon="1.50029">
        <ele>164.34</ele>
        <time>2015-06-14T10:23:15Z</time>
      </trkpt>
      <trkpt lat="49.36593" lon="1.50045">
        <ele>162.76</ele>
        <time>2015-06-14T10:23:25Z</time>
      </trkpt>
      <trkpt lat="49.36582" lon="1.50048">
        <ele>162.68</ele>
        <time>2015-06-14T10:23:27Z</time>
      </trkpt>
      <trkpt lat="49.36567" lon="1.50053">
        <ele>162.17</ele>
        <time>2015-06-14T10:23:30Z</time>
      </trkpt>
      <trkpt lat="49.36518" lon="1.5007">
        <ele>160.74</ele>
        <time>2015-06-14T10:23:39Z</time>
      </trkpt>
      <trkpt lat="49.36486" lon="1.50083">
        <ele>159.44</ele>
        <time>2015-06-14T10:23:45Z</time>
      </trkpt>
      <trkpt lat="49.36472" lon="1.50083">
        <ele>158.92</ele>
        <time>2015-06-14T10:23:48Z</time>
      </trkpt>
      <trkpt lat="49.36467" lon="1.5008">
        <ele>158.63</ele>
        <time>2015-06-14T10:23:49Z</time>
      </trkpt>
      <trkpt lat="49.36463" lon="1.50075">
        <ele>158.81</ele>
        <time>2015-06-14T10:23:50Z</time>
      </trkpt>
      <trkpt lat="49.36459" lon="1.50069">
        <ele>158.91</ele>
        <time>2015-06-14T10:23:51Z</time>
      </trkpt>
      <trkpt lat="49.36457" lon="1.50063">
        <ele>158.68</ele>
        <time>2015-06-14T10:23:52Z</time>
      </trkpt>
      <trkpt lat="49.36454" lon="1.50057">
        <ele>158.55</ele>
        <time>2015-06-14T10:23:53Z</time>
      </trkpt>
      <trkpt lat="49.3645" lon="1.50052">
        <ele>158.18</ele>
        <time>2015-06-14T10:23:54Z</time>
      </trkpt>
      <trkpt lat="49.36446" lon="1.50047">
        <ele>157.75</ele>
        <time>2015-06-14T10:23:55Z</time>
      </trkpt>
      <trkpt lat="49.36443" lon="1.50041">
        <ele>157.38</ele>
        <time>2015-06-14T10:23:56Z</time>
      </trkpt>
      <trkpt lat="49.36439" lon="1.50035">
        <ele>157.23</ele>
        <time>2015-06-14T10:23:57Z</time>
      </trkpt>
      <trkpt lat="49.364" lon="1.49973">
        <ele>156.23</ele>
        <time>2015-06-14T10:24:06Z</time>
      </trkpt>
      <trkpt lat="49.36374" lon="1.49931">
        <ele>153.7</ele>
        <time>2015-06-14T10:24:11Z</time>
      </trkpt>
      <trkpt lat="49.36355" lon="1.49882">
        <ele>151.91</ele>
        <time>2015-06-14T10:24:17Z</time>
      </trkpt>
      <trkpt lat="49.36357" lon="1.49873">
        <ele>151.81</ele>
        <time>2015-06-14T10:24:18Z</time>
      </trkpt>
      <trkpt lat="49.36358" lon="1.49864">
        <ele>151.77</ele>
        <time>2015-06-14T10:24:19Z</time>
      </trkpt>
      <trkpt lat="49.36361" lon="1.49854">
        <ele>151.73</ele>
        <time>2015-06-14T10:24:20Z</time>
      </trkpt>
      <trkpt lat="49.36362" lon="1.49846">
        <ele>151.64</ele>
        <time>2015-06-14T10:24:21Z</time>
      </trkpt>
      <trkpt lat="49.36372" lon="1.49779">
        <ele>151.92</ele>
        <time>2015-06-14T10:24:30Z</time>
      </trkpt>
      <trkpt lat="49.3639" lon="1.49686">
        <ele>152.7</ele>
        <time>2015-06-14T10:24:41Z</time>
      </trkpt>
      <trkpt lat="49.36403" lon="1.49608">
        <ele>153.12</ele>
        <time>2015-06-14T10:24:51Z</time>
      </trkpt>
      <trkpt lat="49.36409" lon="1.49577">
        <ele>152.75</ele>
        <time>2015-06-14T10:24:55Z</time>
      </trkpt>
      <trkpt lat="49.36421" lon="1.49503">
        <ele>152.81</ele>
        <time>2015-06-14T10:25:05Z</time>
      </trkpt>
      <trkpt lat="49.36422" lon="1.49495">
        <ele>153.2</ele>
        <time>2015-06-14T10:25:06Z</time>
      </trkpt>
      <trkpt lat="49.36434" lon="1.49416">
        <ele>152.59</ele>
        <time>2015-06-14T10:25:15Z</time>
      </trkpt>
      <trkpt lat="49.36445" lon="1.49333">
        <ele>150.84</ele>
        <time>2015-06-14T10:25:23Z</time>
      </trkpt>
      <trkpt lat="49.36459" lon="1.49251">
        <ele>149.25</ele>
        <time>2015-06-14T10:25:30Z</time>
      </trkpt>
      <trkpt lat="49.36472" lon="1.4917">
        <ele>148.63</ele>
        <time>2015-06-14T10:25:37Z</time>
      </trkpt>
      <trkpt lat="49.36486" lon="1.49076">
        <ele>150.78</ele>
        <time>2015-06-14T10:25:45Z</time>
      </trkpt>
      <trkpt lat="49.36498" lon="1.48998">
        <ele>149.62</ele>
        <time>2015-06-14T10:25:52Z</time>
      </trkpt>
      <trkpt lat="49.36512" lon="1.48923">
        <ele>148.49</ele>
        <time>2015-06-14T10:25:59Z</time>
      </trkpt>
      <trkpt lat="49.36522" lon="1.48848">
        <ele>147.4</ele>
        <time>2015-06-14T10:26:06Z</time>
      </trkpt>
      <trkpt lat="49.36532" lon="1.48763">
        <ele>146.81</ele>
        <time>2015-06-14T10:26:14Z</time>
      </trkpt>
      <trkpt lat="49.3654" lon="1.48696">
        <ele>147.09</ele>
        <time>2015-06-14T10:26:21Z</time>
      </trkpt>
      <trkpt lat="49.36536" lon="1.48619">
        <ele>146.47</ele>
        <time>2015-06-14T10:26:29Z</time>
      </trkpt>
      <trkpt lat="49.36533" lon="1.48543">
        <ele>145.81</ele>
        <time>2015-06-14T10:26:37Z</time>
      </trkpt>
      <trkpt lat="49.36526" lon="1.48458">
        <ele>144.06</ele>
        <time>2015-06-14T10:26:45Z</time>
      </trkpt>
      <trkpt lat="49.36526" lon="1.48376">
        <ele>142.19</ele>
        <time>2015-06-14T10:26:52Z</time>
      </trkpt>
      <trkpt lat="49.36524" lon="1.48293">
        <ele>139.65</ele>
        <time>2015-06-14T10:26:59Z</time>
      </trkpt>
      <trkpt lat="49.36516" lon="1.48205">
        <ele>138.15</ele>
        <time>2015-06-14T10:27:06Z</time>
      </trkpt>
      <trkpt lat="49.36511" lon="1.48142">
        <ele>134.91</ele>
        <time>2015-06-14T10:27:11Z</time>
      </trkpt>
      <trkpt lat="49.3651" lon="1.48103">
        <ele>133.63</ele>
        <time>2015-06-14T10:27:14Z</time>
      </trkpt>
      <trkpt lat="49.36508" lon="1.48043">
        <ele>130.52</ele>
        <time>2015-06-14T10:27:18Z</time>
      </trkpt>
      <trkpt lat="49.36518" lon="1.47988">
        <ele>126.93</ele>
        <time>2015-06-14T10:27:22Z</time>
      </trkpt>
      <trkpt lat="49.36523" lon="1.47944">
        <ele>122.84</ele>
        <time>2015-06-14T10:27:26Z</time>
      </trkpt>
      <trkpt lat="49.36524" lon="1.47924">
        <ele>119.18</ele>
        <time>2015-06-14T10:27:29Z</time>
      </trkpt>
      <trkpt lat="49.36525" lon="1.4792">
        <ele>119.05</ele>
        <time>2015-06-14T10:27:30Z</time>
      </trkpt>
      <trkpt lat="49.3657" lon="1.47885">
        <ele>114.99</ele>
        <time>2015-06-14T10:27:41Z</time>
      </trkpt>
      <trkpt lat="49.36582" lon="1.4788">
        <ele>111.89</ele>
        <time>2015-06-14T10:27:43Z</time>
      </trkpt>
      <trkpt lat="49.36588" lon="1.47878">
        <ele>111</ele>
        <time>2015-06-14T10:27:44Z</time>
      </trkpt>
      <trkpt lat="49.36595" lon="1.47876">
        <ele>110.36</ele>
        <time>2015-06-14T10:27:45Z</time>
      </trkpt>
      <trkpt lat="49.36602" lon="1.47877">
        <ele>109.74</ele>
        <time>2015-06-14T10:27:46Z</time>
      </trkpt>
      <trkpt lat="49.36608" lon="1.47881">
        <ele>109.37</ele>
        <time>2015-06-14T10:27:47Z</time>
      </trkpt>
      <trkpt lat="49.36614" lon="1.47884">
        <ele>108.41</ele>
        <time>2015-06-14T10:27:48Z</time>
      </trkpt>
      <trkpt lat="49.36647" lon="1.47894">
        <ele>104.57</ele>
        <time>2015-06-14T10:27:53Z</time>
      </trkpt>
      <trkpt lat="49.36677" lon="1.47911">
        <ele>100.8</ele>
        <time>2015-06-14T10:27:57Z</time>
      </trkpt>
      <trkpt lat="49.36708" lon="1.47933">
        <ele>97</ele>
        <time>2015-06-14T10:28:01Z</time>
      </trkpt>
      <trkpt lat="49.3673" lon="1.47947">
        <ele>92.71</ele>
        <time>2015-06-14T10:28:04Z</time>
      </trkpt>
      <trkpt lat="49.36759" lon="1.47967">
        <ele>89.57</ele>
        <time>2015-06-14T10:28:08Z</time>
      </trkpt>
      <trkpt lat="49.36782" lon="1.4798">
        <ele>86.19</ele>
        <time>2015-06-14T10:28:11Z</time>
      </trkpt>
      <trkpt lat="49.36788" lon="1.47982">
        <ele>84.92</ele>
        <time>2015-06-14T10:28:12Z</time>
      </trkpt>
      <trkpt lat="49.36793" lon="1.47983">
        <ele>83.57</ele>
        <time>2015-06-14T10:28:13Z</time>
      </trkpt>
      <trkpt lat="49.36799" lon="1.47983">
        <ele>82.43</ele>
        <time>2015-06-14T10:28:14Z</time>
      </trkpt>
      <trkpt lat="49.36805" lon="1.4798">
        <ele>81.52</ele>
        <time>2015-06-14T10:28:15Z</time>
      </trkpt>
      <trkpt lat="49.36812" lon="1.47976">
        <ele>80.85</ele>
        <time>2015-06-14T10:28:16Z</time>
      </trkpt>
      <trkpt lat="49.36819" lon="1.47971">
        <ele>80.43</ele>
        <time>2015-06-14T10:28:17Z</time>
      </trkpt>
      <trkpt lat="49.3687" lon="1.47937">
        <ele>79.01</ele>
        <time>2015-06-14T10:28:24Z</time>
      </trkpt>
      <trkpt lat="49.3692" lon="1.47912">
        <ele>81.52</ele>
        <time>2015-06-14T10:28:36Z</time>
      </trkpt>
      <trkpt lat="49.36946" lon="1.47893">
        <ele>84.67</ele>
        <time>2015-06-14T10:28:48Z</time>
      </trkpt>
      <trkpt lat="49.36965" lon="1.47916">
        <ele>87.71</ele>
        <time>2015-06-14T10:28:56Z</time>
      </trkpt>
      <trkpt lat="49.37006" lon="1.47957">
        <ele>88.75</ele>
        <time>2015-06-14T10:29:10Z</time>
      </trkpt>
      <trkpt lat="49.37018" lon="1.48019">
        <ele>90.34</ele>
        <time>2015-06-14T10:29:23Z</time>
      </trkpt>
      <trkpt lat="49.37035" lon="1.48086">
        <ele>92.41</ele>
        <time>2015-06-14T10:29:37Z</time>
      </trkpt>
      <trkpt lat="49.37046" lon="1.48136">
        <ele>93.54</ele>
        <time>2015-06-14T10:29:47Z</time>
      </trkpt>
      <trkpt lat="49.37049" lon="1.48137">
        <ele>93.91</ele>
        <time>2015-06-14T10:29:48Z</time>
      </trkpt>
      <trkpt lat="49.37052" lon="1.48138">
        <ele>94.12</ele>
        <time>2015-06-14T10:29:49Z</time>
      </trkpt>
      <trkpt lat="49.37054" lon="1.48137">
        <ele>94.31</ele>
        <time>2015-06-14T10:29:50Z</time>
      </trkpt>
      <trkpt lat="49.37056" lon="1.48137">
        <ele>94.47</ele>
        <time>2015-06-14T10:29:51Z</time>
      </trkpt>
      <trkpt lat="49.371" lon="1.48124">
        <ele>97.52</ele>
        <time>2015-06-14T10:30:12Z</time>
      </trkpt>
      <trkpt lat="49.37147" lon="1.48114">
        <ele>100.67</ele>
        <time>2015-06-14T10:30:33Z</time>
      </trkpt>
      <trkpt lat="49.37174" lon="1.48144">
        <ele>103.73</ele>
        <time>2015-06-14T10:30:48Z</time>
      </trkpt>
      <trkpt lat="49.37209" lon="1.4816">
        <ele>106.86</ele>
        <time>2015-06-14T10:31:04Z</time>
      </trkpt>
      <trkpt lat="49.37239" lon="1.4815">
        <ele>109.99</ele>
        <time>2015-06-14T10:31:17Z</time>
      </trkpt>
      <trkpt lat="49.37276" lon="1.48147">
        <ele>113.01</ele>
        <time>2015-06-14T10:31:30Z</time>
      </trkpt>
      <trkpt lat="49.37304" lon="1.48173">
        <ele>116.15</ele>
        <time>2015-06-14T10:31:43Z</time>
      </trkpt>
      <trkpt lat="49.3733" lon="1.48192">
        <ele>119.32</ele>
        <time>2015-06-14T10:31:57Z</time>
      </trkpt>
      <trkpt lat="49.37354" lon="1.48204">
        <ele>122.32</ele>
        <time>2015-06-14T10:32:09Z</time>
      </trkpt>
      <trkpt lat="49.37382" lon="1.48208">
        <ele>125.34</ele>
        <time>2015-06-14T10:32:23Z</time>
      </trkpt>
      <trkpt lat="49.37418" lon="1.48209">
        <ele>128.61</ele>
        <time>2015-06-14T10:32:35Z</time>
      </trkpt>
      <trkpt lat="49.37452" lon="1.48217">
        <ele>131.68</ele>
        <time>2015-06-14T10:32:48Z</time>
      </trkpt>
      <trkpt lat="49.37478" lon="1.48216">
        <ele>134.87</ele>
        <time>2015-06-14T10:33:01Z</time>
      </trkpt>
      <trkpt lat="49.3751" lon="1.48237">
        <ele>137.9</ele>
        <time>2015-06-14T10:33:14Z</time>
      </trkpt>
      <trkpt lat="49.37535" lon="1.48266">
        <ele>141.35</ele>
        <time>2015-06-14T10:33:28Z</time>
      </trkpt>
      <trkpt lat="49.37564" lon="1.48288">
        <ele>144.61</ele>
        <time>2015-06-14T10:33:43Z</time>
      </trkpt>
      <trkpt lat="49.37595" lon="1.48311">
        <ele>147.77</ele>
        <time>2015-06-14T10:33:58Z</time>
      </trkpt>
      <trkpt lat="49.3762" lon="1.48352">
        <ele>150.92</ele>
        <time>2015-06-14T10:34:12Z</time>
      </trkpt>
      <trkpt lat="49.37654" lon="1.48398">
        <ele>154.18</ele>
        <time>2015-06-14T10:34:29Z</time>
      </trkpt>
      <trkpt lat="49.37691" lon="1.4844">
        <ele>157.18</ele>
        <time>2015-06-14T10:34:46Z</time>
      </trkpt>
      <trkpt lat="49.37727" lon="1.48508">
        <ele>160.03</ele>
        <time>2015-06-14T10:35:02Z</time>
      </trkpt>
      <trkpt lat="49.37768" lon="1.48566">
        <ele>162.01</ele>
        <time>2015-06-14T10:35:18Z</time>
      </trkpt>
      <trkpt lat="49.3781" lon="1.48618">
        <ele>163.43</ele>
        <time>2015-06-14T10:35:34Z</time>
      </trkpt>
      <trkpt lat="49.37852" lon="1.48672">
        <ele>164.02</ele>
        <time>2015-06-14T10:35:47Z</time>
      </trkpt>
      <trkpt lat="49.37908" lon="1.48717">
        <ele>165.05</ele>
        <time>2015-06-14T10:36:00Z</time>
      </trkpt>
      <trkpt lat="49.37945" lon="1.48758">
        <ele>165.95</ele>
        <time>2015-06-14T10:36:10Z</time>
      </trkpt>
      <trkpt lat="49.37986" lon="1.48799">
        <ele>167.15</ele>
        <time>2015-06-14T10:36:20Z</time>
      </trkpt>
      <trkpt lat="49.38002" lon="1.48818">
        <ele>167.24</ele>
        <time>2015-06-14T10:36:24Z</time>
      </trkpt>
      <trkpt lat="49.38043" lon="1.48862">
        <ele>166.45</ele>
        <time>2015-06-14T10:36:33Z</time>
      </trkpt>
      <trkpt lat="49.38082" lon="1.48909">
        <ele>166.3</ele>
        <time>2015-06-14T10:36:41Z</time>
      </trkpt>
      <trkpt lat="49.38102" lon="1.48931">
        <ele>166.07</ele>
        <time>2015-06-14T10:36:45Z</time>
      </trkpt>
      <trkpt lat="49.38107" lon="1.48935">
        <ele>166.03</ele>
        <time>2015-06-14T10:36:46Z</time>
      </trkpt>
      <trkpt lat="49.38111" lon="1.48936">
        <ele>165.75</ele>
        <time>2015-06-14T10:36:47Z</time>
      </trkpt>
      <trkpt lat="49.38116" lon="1.48935">
        <ele>165.5</ele>
        <time>2015-06-14T10:36:48Z</time>
      </trkpt>
      <trkpt lat="49.38121" lon="1.48931">
        <ele>165.3</ele>
        <time>2015-06-14T10:36:49Z</time>
      </trkpt>
      <trkpt lat="49.38125" lon="1.48924">
        <ele>165.15</ele>
        <time>2015-06-14T10:36:50Z</time>
      </trkpt>
      <trkpt lat="49.3813" lon="1.48918">
        <ele>165.01</ele>
        <time>2015-06-14T10:36:51Z</time>
      </trkpt>
      <trkpt lat="49.38168" lon="1.48864">
        <ele>163.67</ele>
        <time>2015-06-14T10:36:59Z</time>
      </trkpt>
      <trkpt lat="49.38209" lon="1.48807">
        <ele>161.6</ele>
        <time>2015-06-14T10:37:07Z</time>
      </trkpt>
      <trkpt lat="49.38246" lon="1.48754">
        <ele>161.37</ele>
        <time>2015-06-14T10:37:14Z</time>
      </trkpt>
      <trkpt lat="49.38286" lon="1.48698">
        <ele>160.45</ele>
        <time>2015-06-14T10:37:21Z</time>
      </trkpt>
      <trkpt lat="49.38323" lon="1.48642">
        <ele>159.14</ele>
        <time>2015-06-14T10:37:28Z</time>
      </trkpt>
      <trkpt lat="49.38364" lon="1.48587">
        <ele>158.75</ele>
        <time>2015-06-14T10:37:36Z</time>
      </trkpt>
      <trkpt lat="49.3841" lon="1.4854">
        <ele>159.54</ele>
        <time>2015-06-14T10:37:45Z</time>
      </trkpt>
      <trkpt lat="49.38441" lon="1.48511">
        <ele>161.49</ele>
        <time>2015-06-14T10:37:52Z</time>
      </trkpt>
      <trkpt lat="49.38489" lon="1.48476">
        <ele>161.31</ele>
        <time>2015-06-14T10:38:02Z</time>
      </trkpt>
      <trkpt lat="49.38536" lon="1.48446">
        <ele>160.55</ele>
        <time>2015-06-14T10:38:11Z</time>
      </trkpt>
      <trkpt lat="49.38547" lon="1.48441">
        <ele>160.21</ele>
        <time>2015-06-14T10:38:13Z</time>
      </trkpt>
      <trkpt lat="49.38552" lon="1.48437">
        <ele>159.9</ele>
        <time>2015-06-14T10:38:14Z</time>
      </trkpt>
      <trkpt lat="49.38556" lon="1.48432">
        <ele>159.47</ele>
        <time>2015-06-14T10:38:15Z</time>
      </trkpt>
      <trkpt lat="49.38557" lon="1.48426">
        <ele>159.2</ele>
        <time>2015-06-14T10:38:16Z</time>
      </trkpt>
      <trkpt lat="49.38558" lon="1.48419">
        <ele>159.07</ele>
        <time>2015-06-14T10:38:17Z</time>
      </trkpt>
      <trkpt lat="49.38557" lon="1.48412">
        <ele>158.97</ele>
        <time>2015-06-14T10:38:18Z</time>
      </trkpt>
      <trkpt lat="49.38555" lon="1.48405">
        <ele>158.81</ele>
        <time>2015-06-14T10:38:19Z</time>
      </trkpt>
      <trkpt lat="49.38553" lon="1.48398">
        <ele>158.75</ele>
        <time>2015-06-14T10:38:20Z</time>
      </trkpt>
      <trkpt lat="49.38551" lon="1.48391">
        <ele>158.71</ele>
        <time>2015-06-14T10:38:21Z</time>
      </trkpt>
      <trkpt lat="49.3853" lon="1.4832">
        <ele>159.12</ele>
        <time>2015-06-14T10:38:30Z</time>
      </trkpt>
      <trkpt lat="49.3851" lon="1.4825">
        <ele>160.31</ele>
        <time>2015-06-14T10:38:39Z</time>
      </trkpt>
      <trkpt lat="49.38491" lon="1.48179">
        <ele>161.14</ele>
        <time>2015-06-14T10:38:48Z</time>
      </trkpt>
      <trkpt lat="49.38475" lon="1.48108">
        <ele>161.96</ele>
        <time>2015-06-14T10:38:57Z</time>
      </trkpt>
      <trkpt lat="49.38468" lon="1.48075">
        <ele>162.27</ele>
        <time>2015-06-14T10:39:01Z</time>
      </trkpt>
      <trkpt lat="49.38452" lon="1.47995">
        <ele>162.01</ele>
        <time>2015-06-14T10:39:10Z</time>
      </trkpt>
      <trkpt lat="49.38438" lon="1.47923">
        <ele>161.32</ele>
        <time>2015-06-14T10:39:17Z</time>
      </trkpt>
      <trkpt lat="49.38424" lon="1.47843">
        <ele>161.05</ele>
        <time>2015-06-14T10:39:25Z</time>
      </trkpt>
      <trkpt lat="49.38419" lon="1.47805">
        <ele>160.04</ele>
        <time>2015-06-14T10:39:29Z</time>
      </trkpt>
      <trkpt lat="49.38422" lon="1.47796">
        <ele>159.8</ele>
        <time>2015-06-14T10:39:30Z</time>
      </trkpt>
      <trkpt lat="49.38427" lon="1.47789">
        <ele>159.54</ele>
        <time>2015-06-14T10:39:31Z</time>
      </trkpt>
      <trkpt lat="49.38433" lon="1.47786">
        <ele>159.47</ele>
        <time>2015-06-14T10:39:32Z</time>
      </trkpt>
      <trkpt lat="49.38438" lon="1.47784">
        <ele>159.5</ele>
        <time>2015-06-14T10:39:33Z</time>
      </trkpt>
      <trkpt lat="49.38444" lon="1.47782">
        <ele>159.63</ele>
        <time>2015-06-14T10:39:34Z</time>
      </trkpt>
      <trkpt lat="49.38497" lon="1.47774">
        <ele>159.69</ele>
        <time>2015-06-14T10:39:43Z</time>
      </trkpt>
      <trkpt lat="49.38549" lon="1.47761">
        <ele>159.41</ele>
        <time>2015-06-14T10:39:52Z</time>
      </trkpt>
      <trkpt lat="49.38597" lon="1.47738">
        <ele>159.85</ele>
        <time>2015-06-14T10:40:01Z</time>
      </trkpt>
      <trkpt lat="49.38644" lon="1.47709">
        <ele>160.64</ele>
        <time>2015-06-14T10:40:11Z</time>
      </trkpt>
      <trkpt lat="49.38693" lon="1.47685">
        <ele>161.76</ele>
        <time>2015-06-14T10:40:21Z</time>
      </trkpt>
      <trkpt lat="49.3874" lon="1.47662">
        <ele>162.64</ele>
        <time>2015-06-14T10:40:30Z</time>
      </trkpt>
      <trkpt lat="49.38785" lon="1.47631">
        <ele>163.69</ele>
        <time>2015-06-14T10:40:39Z</time>
      </trkpt>
      <trkpt lat="49.38833" lon="1.47593">
        <ele>162.13</ele>
        <time>2015-06-14T10:40:48Z</time>
      </trkpt>
      <trkpt lat="49.38881" lon="1.47553">
        <ele>161.84</ele>
        <time>2015-06-14T10:40:56Z</time>
      </trkpt>
      <trkpt lat="49.38926" lon="1.47516">
        <ele>160.73</ele>
        <time>2015-06-14T10:41:03Z</time>
      </trkpt>
      <trkpt lat="49.3896" lon="1.47494">
        <ele>159.03</ele>
        <time>2015-06-14T10:41:08Z</time>
      </trkpt>
      <trkpt lat="49.38967" lon="1.47492">
        <ele>158.94</ele>
        <time>2015-06-14T10:41:09Z</time>
      </trkpt>
      <trkpt lat="49.38974" lon="1.4749">
        <ele>158.93</ele>
        <time>2015-06-14T10:41:10Z</time>
      </trkpt>
      <trkpt lat="49.38981" lon="1.47489">
        <ele>158.5</ele>
        <time>2015-06-14T10:41:11Z</time>
      </trkpt>
      <trkpt lat="49.39002" lon="1.47491">
        <ele>158.5</ele>
        <time>2015-06-14T10:41:14Z</time>
      </trkpt>
      <trkpt lat="49.39008" lon="1.47493">
        <ele>158.5</ele>
        <time>2015-06-14T10:41:15Z</time>
      </trkpt>
      <trkpt lat="49.39057" lon="1.47514">
        <ele>157.28</ele>
        <time>2015-06-14T10:41:22Z</time>
      </trkpt>
      <trkpt lat="49.39108" lon="1.47535">
        <ele>155.13</ele>
        <time>2015-06-14T10:41:29Z</time>
      </trkpt>
      <trkpt lat="49.39146" lon="1.47546">
        <ele>154.71</ele>
        <time>2015-06-14T10:41:34Z</time>
      </trkpt>
      <trkpt lat="49.39153" lon="1.47545">
        <ele>154.49</ele>
        <time>2015-06-14T10:41:35Z</time>
      </trkpt>
      <trkpt lat="49.39161" lon="1.47542">
        <ele>153.66</ele>
        <time>2015-06-14T10:41:36Z</time>
      </trkpt>
      <trkpt lat="49.39167" lon="1.47536">
        <ele>153.17</ele>
        <time>2015-06-14T10:41:37Z</time>
      </trkpt>
      <trkpt lat="49.39172" lon="1.47526">
        <ele>153.03</ele>
        <time>2015-06-14T10:41:38Z</time>
      </trkpt>
      <trkpt lat="49.39177" lon="1.47516">
        <ele>152.95</ele>
        <time>2015-06-14T10:41:39Z</time>
      </trkpt>
      <trkpt lat="49.3918" lon="1.47506">
        <ele>152.87</ele>
        <time>2015-06-14T10:41:40Z</time>
      </trkpt>
      <trkpt lat="49.39183" lon="1.47495">
        <ele>152.74</ele>
        <time>2015-06-14T10:41:41Z</time>
      </trkpt>
      <trkpt lat="49.39185" lon="1.47485">
        <ele>152.03</ele>
        <time>2015-06-14T10:41:42Z</time>
      </trkpt>
      <trkpt lat="49.39186" lon="1.47475">
        <ele>150.98</ele>
        <time>2015-06-14T10:41:43Z</time>
      </trkpt>
      <trkpt lat="49.39188" lon="1.47464">
        <ele>150.7</ele>
        <time>2015-06-14T10:41:44Z</time>
      </trkpt>
      <trkpt lat="49.392" lon="1.47381">
        <ele>151.18</ele>
        <time>2015-06-14T10:41:52Z</time>
      </trkpt>
      <trkpt lat="49.39203" lon="1.47363">
        <ele>151.31</ele>
        <time>2015-06-14T10:41:54Z</time>
      </trkpt>
      <trkpt lat="49.39206" lon="1.47355">
        <ele>151.53</ele>
        <time>2015-06-14T10:41:55Z</time>
      </trkpt>
      <trkpt lat="49.39209" lon="1.47348">
        <ele>151.68</ele>
        <time>2015-06-14T10:41:56Z</time>
      </trkpt>
      <trkpt lat="49.39213" lon="1.47343">
        <ele>151.72</ele>
        <time>2015-06-14T10:41:57Z</time>
      </trkpt>
      <trkpt lat="49.39219" lon="1.47346">
        <ele>151.68</ele>
        <time>2015-06-14T10:41:58Z</time>
      </trkpt>
      <trkpt lat="49.39224" lon="1.47347">
        <ele>151.58</ele>
        <time>2015-06-14T10:41:59Z</time>
      </trkpt>
      <trkpt lat="49.39229" lon="1.47349">
        <ele>151.53</ele>
        <time>2015-06-14T10:42:00Z</time>
      </trkpt>
      <trkpt lat="49.39234" lon="1.47353">
        <ele>151.72</ele>
        <time>2015-06-14T10:42:01Z</time>
      </trkpt>
      <trkpt lat="49.39239" lon="1.47355">
        <ele>151.98</ele>
        <time>2015-06-14T10:42:02Z</time>
      </trkpt>
      <trkpt lat="49.3929" lon="1.47381">
        <ele>150.49</ele>
        <time>2015-06-14T10:42:12Z</time>
      </trkpt>
      <trkpt lat="49.39301" lon="1.47385">
        <ele>150.1</ele>
        <time>2015-06-14T10:42:14Z</time>
      </trkpt>
      <trkpt lat="49.39336" lon="1.47403">
        <ele>149.65</ele>
        <time>2015-06-14T10:42:20Z</time>
      </trkpt>
      <trkpt lat="49.39385" lon="1.47445">
        <ele>148.75</ele>
        <time>2015-06-14T10:42:28Z</time>
      </trkpt>
      <trkpt lat="49.39429" lon="1.47486">
        <ele>147.05</ele>
        <time>2015-06-14T10:42:35Z</time>
      </trkpt>
      <trkpt lat="49.39468" lon="1.47539">
        <ele>144.82</ele>
        <time>2015-06-14T10:42:42Z</time>
      </trkpt>
      <trkpt lat="49.3951" lon="1.47595">
        <ele>143.63</ele>
        <time>2015-06-14T10:42:49Z</time>
      </trkpt>
      <trkpt lat="49.3955" lon="1.47645">
        <ele>140.46</ele>
        <time>2015-06-14T10:42:55Z</time>
      </trkpt>
      <trkpt lat="49.39587" lon="1.47694">
        <ele>137.24</ele>
        <time>2015-06-14T10:43:01Z</time>
      </trkpt>
      <trkpt lat="49.39597" lon="1.47709">
        <ele>135.68</ele>
        <time>2015-06-14T10:43:04Z</time>
      </trkpt>
      <trkpt lat="49.39599" lon="1.47712">
        <ele>135.51</ele>
        <time>2015-06-14T10:43:05Z</time>
      </trkpt>
      <trkpt lat="49.396" lon="1.47717">
        <ele>135.45</ele>
        <time>2015-06-14T10:43:06Z</time>
      </trkpt>
      <trkpt lat="49.396" lon="1.47722">
        <ele>135.65</ele>
        <time>2015-06-14T10:43:07Z</time>
      </trkpt>
      <trkpt lat="49.39599" lon="1.47727">
        <ele>135.77</ele>
        <time>2015-06-14T10:43:08Z</time>
      </trkpt>
      <trkpt lat="49.39599" lon="1.47733">
        <ele>135.84</ele>
        <time>2015-06-14T10:43:09Z</time>
      </trkpt>
      <trkpt lat="49.39588" lon="1.47816">
        <ele>139.02</ele>
        <time>2015-06-14T10:43:22Z</time>
      </trkpt>
      <trkpt lat="49.39588" lon="1.47823">
        <ele>139.05</ele>
        <time>2015-06-14T10:43:23Z</time>
      </trkpt>
      <trkpt lat="49.39593" lon="1.47906">
        <ele>140.11</ele>
        <time>2015-06-14T10:43:34Z</time>
      </trkpt>
      <trkpt lat="49.39583" lon="1.47941">
        <ele>140.07</ele>
        <time>2015-06-14T10:43:38Z</time>
      </trkpt>
      <trkpt lat="49.39579" lon="1.4795">
        <ele>140.05</ele>
        <time>2015-06-14T10:43:39Z</time>
      </trkpt>
      <trkpt lat="49.39557" lon="1.48014">
        <ele>139.69</ele>
        <time>2015-06-14T10:43:46Z</time>
      </trkpt>
      <trkpt lat="49.39551" lon="1.48022">
        <ele>139.79</ele>
        <time>2015-06-14T10:43:47Z</time>
      </trkpt>
      <trkpt lat="49.39546" lon="1.48027">
        <ele>139.85</ele>
        <time>2015-06-14T10:43:48Z</time>
      </trkpt>
      <trkpt lat="49.39541" lon="1.48031">
        <ele>139.91</ele>
        <time>2015-06-14T10:43:49Z</time>
      </trkpt>
      <trkpt lat="49.39536" lon="1.48034">
        <ele>139.88</ele>
        <time>2015-06-14T10:43:50Z</time>
      </trkpt>
      <trkpt lat="49.3953" lon="1.48037">
        <ele>139.85</ele>
        <time>2015-06-14T10:43:51Z</time>
      </trkpt>
      <trkpt lat="49.39524" lon="1.48039">
        <ele>139.57</ele>
        <time>2015-06-14T10:43:52Z</time>
      </trkpt>
      <trkpt lat="49.39519" lon="1.48042">
        <ele>139.26</ele>
        <time>2015-06-14T10:43:53Z</time>
      </trkpt>
      <trkpt lat="49.39514" lon="1.48047">
        <ele>139.12</ele>
        <time>2015-06-14T10:43:54Z</time>
      </trkpt>
      <trkpt lat="49.3951" lon="1.48053">
        <ele>138.88</ele>
        <time>2015-06-14T10:43:55Z</time>
      </trkpt>
      <trkpt lat="49.39507" lon="1.4806">
        <ele>138.23</ele>
        <time>2015-06-14T10:43:56Z</time>
      </trkpt>
      <trkpt lat="49.39505" lon="1.48066">
        <ele>137.75</ele>
        <time>2015-06-14T10:43:57Z</time>
      </trkpt>
      <trkpt lat="49.39501" lon="1.48073">
        <ele>137.46</ele>
        <time>2015-06-14T10:43:58Z</time>
      </trkpt>
      <trkpt lat="49.39498" lon="1.48079">
        <ele>137.06</ele>
        <time>2015-06-14T10:43:59Z</time>
      </trkpt>
      <trkpt lat="49.39496" lon="1.48085">
        <ele>136.62</ele>
        <time>2015-06-14T10:44:00Z</time>
      </trkpt>
      <trkpt lat="49.39494" lon="1.48091">
        <ele>135.85</ele>
        <time>2015-06-14T10:44:01Z</time>
      </trkpt>
      <trkpt lat="49.39487" lon="1.481">
        <ele>133.85</ele>
        <time>2015-06-14T10:44:03Z</time>
      </trkpt>
      <trkpt lat="49.39484" lon="1.48106">
        <ele>132.41</ele>
        <time>2015-06-14T10:44:04Z</time>
      </trkpt>
      <trkpt lat="49.39483" lon="1.48113">
        <ele>131.6</ele>
        <time>2015-06-14T10:44:05Z</time>
      </trkpt>
      <trkpt lat="49.39482" lon="1.48121">
        <ele>130.68</ele>
        <time>2015-06-14T10:44:06Z</time>
      </trkpt>
      <trkpt lat="49.39483" lon="1.48129">
        <ele>129.27</ele>
        <time>2015-06-14T10:44:07Z</time>
      </trkpt>
      <trkpt lat="49.39486" lon="1.48137">
        <ele>127.9</ele>
        <time>2015-06-14T10:44:08Z</time>
      </trkpt>
      <trkpt lat="49.39487" lon="1.48143">
        <ele>126.99</ele>
        <time>2015-06-14T10:44:09Z</time>
      </trkpt>
      <trkpt lat="49.39481" lon="1.48158">
        <ele>124.89</ele>
        <time>2015-06-14T10:44:14Z</time>
      </trkpt>
      <trkpt lat="49.39478" lon="1.48158">
        <ele>124.96</ele>
        <time>2015-06-14T10:44:15Z</time>
      </trkpt>
      <trkpt lat="49.39475" lon="1.48158">
        <ele>125.1</ele>
        <time>2015-06-14T10:44:16Z</time>
      </trkpt>
      <trkpt lat="49.39473" lon="1.48158">
        <ele>125.18</ele>
        <time>2015-06-14T10:44:17Z</time>
      </trkpt>
      <trkpt lat="49.39469" lon="1.48158">
        <ele>125.24</ele>
        <time>2015-06-14T10:44:18Z</time>
      </trkpt>
      <trkpt lat="49.39466" lon="1.48158">
        <ele>125.36</ele>
        <time>2015-06-14T10:44:19Z</time>
      </trkpt>
      <trkpt lat="49.39417" lon="1.4817">
        <ele>128.04</ele>
        <time>2015-06-14T10:44:34Z</time>
      </trkpt>
      <trkpt lat="49.39373" lon="1.48185">
        <ele>131.23</ele>
        <time>2015-06-14T10:44:49Z</time>
      </trkpt>
      <trkpt lat="49.39326" lon="1.48203">
        <ele>134.42</ele>
        <time>2015-06-14T10:45:05Z</time>
      </trkpt>
      <trkpt lat="49.39289" lon="1.48217">
        <ele>136.92</ele>
        <time>2015-06-14T10:45:19Z</time>
      </trkpt>
      <trkpt lat="49.39288" lon="1.48221">
        <ele>137.18</ele>
        <time>2015-06-14T10:45:20Z</time>
      </trkpt>
      <trkpt lat="49.39287" lon="1.48225">
        <ele>137.4</ele>
        <time>2015-06-14T10:45:21Z</time>
      </trkpt>
      <trkpt lat="49.39287" lon="1.4823">
        <ele>137.61</ele>
        <time>2015-06-14T10:45:22Z</time>
      </trkpt>
      <trkpt lat="49.39287" lon="1.48234">
        <ele>137.75</ele>
        <time>2015-06-14T10:45:23Z</time>
      </trkpt>
      <trkpt lat="49.39288" lon="1.48237">
        <ele>137.83</ele>
        <time>2015-06-14T10:45:24Z</time>
      </trkpt>
      <trkpt lat="49.39289" lon="1.4824">
        <ele>137.85</ele>
        <time>2015-06-14T10:45:25Z</time>
      </trkpt>
      <trkpt lat="49.3929" lon="1.48243">
        <ele>138.08</ele>
        <time>2015-06-14T10:45:26Z</time>
      </trkpt>
      <trkpt lat="49.39292" lon="1.48245">
        <ele>138.4</ele>
        <time>2015-06-14T10:45:27Z</time>
      </trkpt>
      <trkpt lat="49.39293" lon="1.48246">
        <ele>138.71</ele>
        <time>2015-06-14T10:45:28Z</time>
      </trkpt>
      <trkpt lat="49.39294" lon="1.48247">
        <ele>139.11</ele>
        <time>2015-06-14T10:45:29Z</time>
      </trkpt>
      <trkpt lat="49.39312" lon="1.48275">
        <ele>142.35</ele>
        <time>2015-06-14T10:45:40Z</time>
      </trkpt>
      <trkpt lat="49.39343" lon="1.48342">
        <ele>143.76</ele>
        <time>2015-06-14T10:45:57Z</time>
      </trkpt>
      <trkpt lat="49.39373" lon="1.48412">
        <ele>144.91</ele>
        <time>2015-06-14T10:46:13Z</time>
      </trkpt>
      <trkpt lat="49.39388" lon="1.48484">
        <ele>145.8</ele>
        <time>2015-06-14T10:46:29Z</time>
      </trkpt>
      <trkpt lat="49.39398" lon="1.48557">
        <ele>145.86</ele>
        <time>2015-06-14T10:46:43Z</time>
      </trkpt>
      <trkpt lat="49.39409" lon="1.4863">
        <ele>146.63</ele>
        <time>2015-06-14T10:46:57Z</time>
      </trkpt>
      <trkpt lat="49.39408" lon="1.48714">
        <ele>145.9</ele>
        <time>2015-06-14T10:47:13Z</time>
      </trkpt>
      <trkpt lat="49.39413" lon="1.48757">
        <ele>144.69</ele>
        <time>2015-06-14T10:47:19Z</time>
      </trkpt>
      <trkpt lat="49.39419" lon="1.48833">
        <ele>141.3</ele>
        <time>2015-06-14T10:47:30Z</time>
      </trkpt>
      <trkpt lat="49.39418" lon="1.48841">
        <ele>141.11</ele>
        <time>2015-06-14T10:47:31Z</time>
      </trkpt>
      <trkpt lat="49.39419" lon="1.48869">
        <ele>137.29</ele>
        <time>2015-06-14T10:47:35Z</time>
      </trkpt>
      <trkpt lat="49.39422" lon="1.48882">
        <ele>134.21</ele>
        <time>2015-06-14T10:47:40Z</time>
      </trkpt>
      <trkpt lat="49.39421" lon="1.48887">
        <ele>133.39</ele>
        <time>2015-06-14T10:47:42Z</time>
      </trkpt>
      <trkpt lat="49.3942" lon="1.48891">
        <ele>132.92</ele>
        <time>2015-06-14T10:47:43Z</time>
      </trkpt>
      <trkpt lat="49.39418" lon="1.48895">
        <ele>132.12</ele>
        <time>2015-06-14T10:47:44Z</time>
      </trkpt>
      <trkpt lat="49.39416" lon="1.48897">
        <ele>131.61</ele>
        <time>2015-06-14T10:47:45Z</time>
      </trkpt>
      <trkpt lat="49.39414" lon="1.489">
        <ele>131.36</ele>
        <time>2015-06-14T10:47:46Z</time>
      </trkpt>
      <trkpt lat="49.39409" lon="1.48916">
        <ele>134.43</ele>
        <time>2015-06-14T10:48:06Z</time>
      </trkpt>
      <trkpt lat="49.39411" lon="1.48922">
        <ele>135.9</ele>
        <time>2015-06-14T10:48:14Z</time>
      </trkpt>
      <trkpt lat="49.39411" lon="1.48924">
        <ele>135.94</ele>
        <time>2015-06-14T10:48:15Z</time>
      </trkpt>
      <trkpt lat="49.39411" lon="1.48928">
        <ele>135.82</ele>
        <time>2015-06-14T10:48:25Z</time>
      </trkpt>
      <trkpt lat="49.39412" lon="1.48929">
        <ele>135.78</ele>
        <time>2015-06-14T10:48:26Z</time>
      </trkpt>
      <trkpt lat="49.39414" lon="1.48927">
        <ele>137.88</ele>
        <time>2015-06-14T10:48:42Z</time>
      </trkpt>
      <trkpt lat="49.39415" lon="1.48928">
        <ele>138.17</ele>
        <time>2015-06-14T10:48:43Z</time>
      </trkpt>
      <trkpt lat="49.39423" lon="1.48957">
        <ele>141.19</ele>
        <time>2015-06-14T10:48:55Z</time>
      </trkpt>
      <trkpt lat="49.39446" lon="1.49025">
        <ele>143.62</ele>
        <time>2015-06-14T10:49:14Z</time>
      </trkpt>
      <trkpt lat="49.39479" lon="1.49069">
        <ele>145.09</ele>
        <time>2015-06-14T10:49:31Z</time>
      </trkpt>
      <trkpt lat="49.39491" lon="1.49072">
        <ele>145.21</ele>
        <time>2015-06-14T10:49:36Z</time>
      </trkpt>
      <trkpt lat="49.39493" lon="1.49073">
        <ele>145.19</ele>
        <time>2015-06-14T10:49:37Z</time>
      </trkpt>
      <trkpt lat="49.39495" lon="1.49074">
        <ele>145.21</ele>
        <time>2015-06-14T10:49:38Z</time>
      </trkpt>
      <trkpt lat="49.39497" lon="1.49073">
        <ele>145.14</ele>
        <time>2015-06-14T10:49:39Z</time>
      </trkpt>
      <trkpt lat="49.395" lon="1.49073">
        <ele>145.05</ele>
        <time>2015-06-14T10:49:40Z</time>
      </trkpt>
      <trkpt lat="49.39502" lon="1.49072">
        <ele>144.98</ele>
        <time>2015-06-14T10:49:41Z</time>
      </trkpt>
      <trkpt lat="49.39506" lon="1.49071">
        <ele>144.97</ele>
        <time>2015-06-14T10:49:42Z</time>
      </trkpt>
      <trkpt lat="49.39508" lon="1.4907">
        <ele>144.88</ele>
        <time>2015-06-14T10:49:43Z</time>
      </trkpt>
      <trkpt lat="49.39511" lon="1.4907">
        <ele>144.95</ele>
        <time>2015-06-14T10:49:44Z</time>
      </trkpt>
      <trkpt lat="49.39512" lon="1.49069">
        <ele>145.23</ele>
        <time>2015-06-14T10:49:45Z</time>
      </trkpt>
      <trkpt lat="49.3957" lon="1.49071">
        <ele>145.14</ele>
        <time>2015-06-14T10:50:03Z</time>
      </trkpt>
      <trkpt lat="49.39618" lon="1.49041">
        <ele>144.63</ele>
        <time>2015-06-14T10:50:17Z</time>
      </trkpt>
      <trkpt lat="49.39673" lon="1.49025">
        <ele>144.53</ele>
        <time>2015-06-14T10:50:32Z</time>
      </trkpt>
      <trkpt lat="49.39731" lon="1.49016">
        <ele>143.92</ele>
        <time>2015-06-14T10:50:46Z</time>
      </trkpt>
      <trkpt lat="49.39791" lon="1.49003">
        <ele>143.38</ele>
        <time>2015-06-14T10:51:01Z</time>
      </trkpt>
      <trkpt lat="49.39835" lon="1.48994">
        <ele>142.47</ele>
        <time>2015-06-14T10:51:10Z</time>
      </trkpt>
      <trkpt lat="49.3984" lon="1.48994">
        <ele>142.47</ele>
        <time>2015-06-14T10:51:11Z</time>
      </trkpt>
      <trkpt lat="49.39872" lon="1.48988">
        <ele>142.06</ele>
        <time>2015-06-14T10:51:18Z</time>
      </trkpt>
      <trkpt lat="49.39877" lon="1.48985">
        <ele>142.05</ele>
        <time>2015-06-14T10:51:19Z</time>
      </trkpt>
      <trkpt lat="49.3988" lon="1.4898">
        <ele>142.06</ele>
        <time>2015-06-14T10:51:20Z</time>
      </trkpt>
      <trkpt lat="49.39884" lon="1.48976">
        <ele>142.04</ele>
        <time>2015-06-14T10:51:21Z</time>
      </trkpt>
      <trkpt lat="49.39889" lon="1.48972">
        <ele>141.87</ele>
        <time>2015-06-14T10:51:22Z</time>
      </trkpt>
      <trkpt lat="49.39893" lon="1.48969">
        <ele>141.65</ele>
        <time>2015-06-14T10:51:23Z</time>
      </trkpt>
      <trkpt lat="49.39897" lon="1.48967">
        <ele>141.91</ele>
        <time>2015-06-14T10:51:24Z</time>
      </trkpt>
      <trkpt lat="49.39902" lon="1.48967">
        <ele>142.2</ele>
        <time>2015-06-14T10:51:25Z</time>
      </trkpt>
      <trkpt lat="49.39907" lon="1.48967">
        <ele>141.99</ele>
        <time>2015-06-14T10:51:26Z</time>
      </trkpt>
      <trkpt lat="49.39911" lon="1.48968">
        <ele>141.7</ele>
        <time>2015-06-14T10:51:27Z</time>
      </trkpt>
      <trkpt lat="49.39916" lon="1.48969">
        <ele>141.56</ele>
        <time>2015-06-14T10:51:28Z</time>
      </trkpt>
      <trkpt lat="49.39969" lon="1.48979">
        <ele>139.85</ele>
        <time>2015-06-14T10:51:37Z</time>
      </trkpt>
      <trkpt lat="49.39994" lon="1.48981">
        <ele>139.88</ele>
        <time>2015-06-14T10:51:41Z</time>
      </trkpt>
      <trkpt lat="49.39999" lon="1.48983">
        <ele>139.61</ele>
        <time>2015-06-14T10:51:42Z</time>
      </trkpt>
      <trkpt lat="49.40002" lon="1.48988">
        <ele>139.45</ele>
        <time>2015-06-14T10:51:43Z</time>
      </trkpt>
      <trkpt lat="49.40004" lon="1.48994">
        <ele>139.32</ele>
        <time>2015-06-14T10:51:44Z</time>
      </trkpt>
      <trkpt lat="49.40005" lon="1.49001">
        <ele>138.88</ele>
        <time>2015-06-14T10:51:45Z</time>
      </trkpt>
      <trkpt lat="49.40006" lon="1.49007">
        <ele>138.47</ele>
        <time>2015-06-14T10:51:46Z</time>
      </trkpt>
      <trkpt lat="49.40008" lon="1.49012">
        <ele>138.73</ele>
        <time>2015-06-14T10:51:47Z</time>
      </trkpt>
      <trkpt lat="49.40009" lon="1.49018">
        <ele>139.05</ele>
        <time>2015-06-14T10:51:48Z</time>
      </trkpt>
      <trkpt lat="49.40011" lon="1.49024">
        <ele>138.93</ele>
        <time>2015-06-14T10:51:49Z</time>
      </trkpt>
      <trkpt lat="49.40012" lon="1.4903">
        <ele>138.71</ele>
        <time>2015-06-14T10:51:50Z</time>
      </trkpt>
      <trkpt lat="49.40025" lon="1.49109">
        <ele>137.17</ele>
        <time>2015-06-14T10:52:00Z</time>
      </trkpt>
      <trkpt lat="49.40031" lon="1.49154">
        <ele>136.03</ele>
        <time>2015-06-14T10:52:05Z</time>
      </trkpt>
      <trkpt lat="49.40032" lon="1.49163">
        <ele>135.95</ele>
        <time>2015-06-14T10:52:06Z</time>
      </trkpt>
      <trkpt lat="49.40041" lon="1.49222">
        <ele>132.79</ele>
        <time>2015-06-14T10:52:15Z</time>
      </trkpt>
      <trkpt lat="49.40051" lon="1.49302">
        <ele>130.9</ele>
        <time>2015-06-14T10:52:27Z</time>
      </trkpt>
      <trkpt lat="49.40047" lon="1.49379">
        <ele>128.25</ele>
        <time>2015-06-14T10:52:36Z</time>
      </trkpt>
      <trkpt lat="49.40045" lon="1.4942">
        <ele>127.13</ele>
        <time>2015-06-14T10:52:41Z</time>
      </trkpt>
      <trkpt lat="49.40045" lon="1.49428">
        <ele>127.08</ele>
        <time>2015-06-14T10:52:42Z</time>
      </trkpt>
      <trkpt lat="49.40045" lon="1.49433">
        <ele>126.72</ele>
        <time>2015-06-14T10:52:43Z</time>
      </trkpt>
      <trkpt lat="49.40049" lon="1.49439">
        <ele>126.54</ele>
        <time>2015-06-14T10:52:46Z</time>
      </trkpt>
      <trkpt lat="49.40053" lon="1.49438">
        <ele>126.59</ele>
        <time>2015-06-14T10:52:47Z</time>
      </trkpt>
      <trkpt lat="49.40058" lon="1.49439">
        <ele>125.29</ele>
        <time>2015-06-14T10:52:48Z</time>
      </trkpt>
      <trkpt lat="49.40063" lon="1.4944">
        <ele>124.08</ele>
        <time>2015-06-14T10:52:49Z</time>
      </trkpt>
      <trkpt lat="49.40067" lon="1.49441">
        <ele>123.49</ele>
        <time>2015-06-14T10:52:50Z</time>
      </trkpt>
      <trkpt lat="49.40071" lon="1.49444">
        <ele>122.81</ele>
        <time>2015-06-14T10:52:51Z</time>
      </trkpt>
      <trkpt lat="49.40075" lon="1.49446">
        <ele>122.21</ele>
        <time>2015-06-14T10:52:52Z</time>
      </trkpt>
      <trkpt lat="49.40078" lon="1.49448">
        <ele>121.83</ele>
        <time>2015-06-14T10:52:53Z</time>
      </trkpt>
      <trkpt lat="49.40106" lon="1.49467">
        <ele>121.13</ele>
        <time>2015-06-14T10:53:02Z</time>
      </trkpt>
      <trkpt lat="49.40107" lon="1.49471">
        <ele>121.34</ele>
        <time>2015-06-14T10:53:03Z</time>
      </trkpt>
      <trkpt lat="49.40116" lon="1.49496">
        <ele>123.51</ele>
        <time>2015-06-14T10:53:08Z</time>
      </trkpt>
      <trkpt lat="49.40135" lon="1.4957">
        <ele>126.61</ele>
        <time>2015-06-14T10:53:20Z</time>
      </trkpt>
      <trkpt lat="49.40129" lon="1.49603">
        <ele>127.97</ele>
        <time>2015-06-14T10:53:25Z</time>
      </trkpt>
      <trkpt lat="49.40113" lon="1.49667">
        <ele>131.1</ele>
        <time>2015-06-14T10:53:41Z</time>
      </trkpt>
      <trkpt lat="49.40086" lon="1.49733">
        <ele>131.92</ele>
        <time>2015-06-14T10:53:56Z</time>
      </trkpt>
      <trkpt lat="49.40056" lon="1.498">
        <ele>130.88</ele>
        <time>2015-06-14T10:54:07Z</time>
      </trkpt>
      <trkpt lat="49.40025" lon="1.49862">
        <ele>131.48</ele>
        <time>2015-06-14T10:54:17Z</time>
      </trkpt>
      <trkpt lat="49.40021" lon="1.49867">
        <ele>131.49</ele>
        <time>2015-06-14T10:54:18Z</time>
      </trkpt>
      <trkpt lat="49.40019" lon="1.49872">
        <ele>132.1</ele>
        <time>2015-06-14T10:54:19Z</time>
      </trkpt>
      <trkpt lat="49.40014" lon="1.49881">
        <ele>132.77</ele>
        <time>2015-06-14T10:54:21Z</time>
      </trkpt>
      <trkpt lat="49.4001" lon="1.49949">
        <ele>132.61</ele>
        <time>2015-06-14T10:54:34Z</time>
      </trkpt>
      <trkpt lat="49.40014" lon="1.49953">
        <ele>132.37</ele>
        <time>2015-06-14T10:54:35Z</time>
      </trkpt>
      <trkpt lat="49.40026" lon="1.49971">
        <ele>128.39</ele>
        <time>2015-06-14T10:54:38Z</time>
      </trkpt>
      <trkpt lat="49.40054" lon="1.49995">
        <ele>123.56</ele>
        <time>2015-06-14T10:54:42Z</time>
      </trkpt>
      <trkpt lat="49.40068" lon="1.50006">
        <ele>120.06</ele>
        <time>2015-06-14T10:54:44Z</time>
      </trkpt>
      <trkpt lat="49.40074" lon="1.50011">
        <ele>118.62</ele>
        <time>2015-06-14T10:54:45Z</time>
      </trkpt>
      <trkpt lat="49.4008" lon="1.50019">
        <ele>118.22</ele>
        <time>2015-06-14T10:54:46Z</time>
      </trkpt>
      <trkpt lat="49.40086" lon="1.50026">
        <ele>117.43</ele>
        <time>2015-06-14T10:54:47Z</time>
      </trkpt>
      <trkpt lat="49.40093" lon="1.50032">
        <ele>115.01</ele>
        <time>2015-06-14T10:54:48Z</time>
      </trkpt>
      <trkpt lat="49.40099" lon="1.50038">
        <ele>114.4</ele>
        <time>2015-06-14T10:54:49Z</time>
      </trkpt>
      <trkpt lat="49.40105" lon="1.50046">
        <ele>113.88</ele>
        <time>2015-06-14T10:54:50Z</time>
      </trkpt>
      <trkpt lat="49.40111" lon="1.50054">
        <ele>113.13</ele>
        <time>2015-06-14T10:54:51Z</time>
      </trkpt>
      <trkpt lat="49.40122" lon="1.50066">
        <ele>112.27</ele>
        <time>2015-06-14T10:54:53Z</time>
      </trkpt>
      <trkpt lat="49.40126" lon="1.50066">
        <ele>112.12</ele>
        <time>2015-06-14T10:54:54Z</time>
      </trkpt>
      <trkpt lat="49.40129" lon="1.50063">
        <ele>111.98</ele>
        <time>2015-06-14T10:54:55Z</time>
      </trkpt>
      <trkpt lat="49.4013" lon="1.50057">
        <ele>112.12</ele>
        <time>2015-06-14T10:54:56Z</time>
      </trkpt>
      <trkpt lat="49.40132" lon="1.50051">
        <ele>112.4</ele>
        <time>2015-06-14T10:54:57Z</time>
      </trkpt>
      <trkpt lat="49.40137" lon="1.50032">
        <ele>112.44</ele>
        <time>2015-06-14T10:55:00Z</time>
      </trkpt>
      <trkpt lat="49.40142" lon="1.50019">
        <ele>112.71</ele>
        <time>2015-06-14T10:55:02Z</time>
      </trkpt>
      <trkpt lat="49.40157" lon="1.49973">
        <ele>112.64</ele>
        <time>2015-06-14T10:55:08Z</time>
      </trkpt>
      <trkpt lat="49.40169" lon="1.4995">
        <ele>112.11</ele>
        <time>2015-06-14T10:55:11Z</time>
      </trkpt>
      <trkpt lat="49.40175" lon="1.49943">
        <ele>111.52</ele>
        <time>2015-06-14T10:55:12Z</time>
      </trkpt>
      <trkpt lat="49.40213" lon="1.49896">
        <ele>108.51</ele>
        <time>2015-06-14T10:55:19Z</time>
      </trkpt>
      <trkpt lat="49.40252" lon="1.49853">
        <ele>107.59</ele>
        <time>2015-06-14T10:55:26Z</time>
      </trkpt>
      <trkpt lat="49.40294" lon="1.49806">
        <ele>105.97</ele>
        <time>2015-06-14T10:55:33Z</time>
      </trkpt>
      <trkpt lat="49.40333" lon="1.49748">
        <ele>104.13</ele>
        <time>2015-06-14T10:55:40Z</time>
      </trkpt>
      <trkpt lat="49.40335" lon="1.49738">
        <ele>103.85</ele>
        <time>2015-06-14T10:55:41Z</time>
      </trkpt>
      <trkpt lat="49.40356" lon="1.49658">
        <ele>102.46</ele>
        <time>2015-06-14T10:55:49Z</time>
      </trkpt>
      <trkpt lat="49.40362" lon="1.49578">
        <ele>102.03</ele>
        <time>2015-06-14T10:55:57Z</time>
      </trkpt>
      <trkpt lat="49.4036" lon="1.49568">
        <ele>102.2</ele>
        <time>2015-06-14T10:55:58Z</time>
      </trkpt>
      <trkpt lat="49.40358" lon="1.49559">
        <ele>102.3</ele>
        <time>2015-06-14T10:55:59Z</time>
      </trkpt>
      <trkpt lat="49.40354" lon="1.49542">
        <ele>102.21</ele>
        <time>2015-06-14T10:56:01Z</time>
      </trkpt>
      <trkpt lat="49.40351" lon="1.49534">
        <ele>102.12</ele>
        <time>2015-06-14T10:56:02Z</time>
      </trkpt>
      <trkpt lat="49.40348" lon="1.49527">
        <ele>101.66</ele>
        <time>2015-06-14T10:56:03Z</time>
      </trkpt>
      <trkpt lat="49.40311" lon="1.49452">
        <ele>99.95</ele>
        <time>2015-06-14T10:56:11Z</time>
      </trkpt>
      <trkpt lat="49.4027" lon="1.4938">
        <ele>97.49</ele>
        <time>2015-06-14T10:56:19Z</time>
      </trkpt>
      <trkpt lat="49.40268" lon="1.49374">
        <ele>97.61</ele>
        <time>2015-06-14T10:56:20Z</time>
      </trkpt>
      <trkpt lat="49.40268" lon="1.49365">
        <ele>97.92</ele>
        <time>2015-06-14T10:56:21Z</time>
      </trkpt>
      <trkpt lat="49.40268" lon="1.49357">
        <ele>98.07</ele>
        <time>2015-06-14T10:56:22Z</time>
      </trkpt>
      <trkpt lat="49.40269" lon="1.49349">
        <ele>98.02</ele>
        <time>2015-06-14T10:56:23Z</time>
      </trkpt>
      <trkpt lat="49.40271" lon="1.49342">
        <ele>97.81</ele>
        <time>2015-06-14T10:56:24Z</time>
      </trkpt>
      <trkpt lat="49.40274" lon="1.49335">
        <ele>97.63</ele>
        <time>2015-06-14T10:56:25Z</time>
      </trkpt>
      <trkpt lat="49.40277" lon="1.49329">
        <ele>97.39</ele>
        <time>2015-06-14T10:56:26Z</time>
      </trkpt>
      <trkpt lat="49.4028" lon="1.49325">
        <ele>96.9</ele>
        <time>2015-06-14T10:56:27Z</time>
      </trkpt>
      <trkpt lat="49.40284" lon="1.49321">
        <ele>96.6</ele>
        <time>2015-06-14T10:56:28Z</time>
      </trkpt>
      <trkpt lat="49.40288" lon="1.49318">
        <ele>96.61</ele>
        <time>2015-06-14T10:56:29Z</time>
      </trkpt>
      <trkpt lat="49.40293" lon="1.49315">
        <ele>96.68</ele>
        <time>2015-06-14T10:56:30Z</time>
      </trkpt>
      <trkpt lat="49.403" lon="1.49312">
        <ele>96.43</ele>
        <time>2015-06-14T10:56:31Z</time>
      </trkpt>
      <trkpt lat="49.40306" lon="1.49309">
        <ele>96.29</ele>
        <time>2015-06-14T10:56:32Z</time>
      </trkpt>
      <trkpt lat="49.40359" lon="1.49282">
        <ele>96.16</ele>
        <time>2015-06-14T10:56:41Z</time>
      </trkpt>
      <trkpt lat="49.40408" lon="1.49238">
        <ele>94.93</ele>
        <time>2015-06-14T10:56:50Z</time>
      </trkpt>
      <trkpt lat="49.40421" lon="1.49226">
        <ele>94.6</ele>
        <time>2015-06-14T10:56:52Z</time>
      </trkpt>
      <trkpt lat="49.40453" lon="1.49171">
        <ele>93.18</ele>
        <time>2015-06-14T10:56:58Z</time>
      </trkpt>
      <trkpt lat="49.40474" lon="1.49099">
        <ele>91.74</ele>
        <time>2015-06-14T10:57:04Z</time>
      </trkpt>
      <trkpt lat="49.40485" lon="1.49019">
        <ele>90.85</ele>
        <time>2015-06-14T10:57:11Z</time>
      </trkpt>
      <trkpt lat="49.40494" lon="1.48933">
        <ele>88.79</ele>
        <time>2015-06-14T10:57:19Z</time>
      </trkpt>
      <trkpt lat="49.40498" lon="1.48914">
        <ele>87.72</ele>
        <time>2015-06-14T10:57:21Z</time>
      </trkpt>
      <trkpt lat="49.40499" lon="1.48898">
        <ele>86.19</ele>
        <time>2015-06-14T10:57:23Z</time>
      </trkpt>
      <trkpt lat="49.40498" lon="1.48891">
        <ele>85.7</ele>
        <time>2015-06-14T10:57:24Z</time>
      </trkpt>
      <trkpt lat="49.40495" lon="1.48885">
        <ele>85.29</ele>
        <time>2015-06-14T10:57:25Z</time>
      </trkpt>
      <trkpt lat="49.40491" lon="1.48881">
        <ele>84.95</ele>
        <time>2015-06-14T10:57:26Z</time>
      </trkpt>
      <trkpt lat="49.40488" lon="1.48878">
        <ele>84.73</ele>
        <time>2015-06-14T10:57:27Z</time>
      </trkpt>
      <trkpt lat="49.40444" lon="1.4884">
        <ele>84.84</ele>
        <time>2015-06-14T10:57:41Z</time>
      </trkpt>
      <trkpt lat="49.40415" lon="1.48823">
        <ele>87.87</ele>
        <time>2015-06-14T10:57:56Z</time>
      </trkpt>
      <trkpt lat="49.40396" lon="1.48819">
        <ele>90.92</ele>
        <time>2015-06-14T10:58:08Z</time>
      </trkpt>
      <trkpt lat="49.40392" lon="1.48819">
        <ele>91.53</ele>
        <time>2015-06-14T10:58:11Z</time>
      </trkpt>
      <trkpt lat="49.4039" lon="1.48821">
        <ele>91.31</ele>
        <time>2015-06-14T10:58:15Z</time>
      </trkpt>
      <trkpt lat="49.40386" lon="1.48822">
        <ele>91.59</ele>
        <time>2015-06-14T10:58:18Z</time>
      </trkpt>
      <trkpt lat="49.40384" lon="1.48823">
        <ele>91.78</ele>
        <time>2015-06-14T10:58:19Z</time>
      </trkpt>
      <trkpt lat="49.40367" lon="1.48831">
        <ele>94.8</ele>
        <time>2015-06-14T10:58:28Z</time>
      </trkpt>
      <trkpt lat="49.40366" lon="1.48832">
        <ele>95.02</ele>
        <time>2015-06-14T10:58:29Z</time>
      </trkpt>
      <trkpt lat="49.40344" lon="1.48855">
        <ele>98.14</ele>
        <time>2015-06-14T10:58:41Z</time>
      </trkpt>
      <trkpt lat="49.40331" lon="1.48863">
        <ele>101.26</ele>
        <time>2015-06-14T10:58:51Z</time>
      </trkpt>
      <trkpt lat="49.40312" lon="1.48867">
        <ele>104.27</ele>
        <time>2015-06-14T10:59:02Z</time>
      </trkpt>
      <trkpt lat="49.403" lon="1.48873">
        <ele>106.46</ele>
        <time>2015-06-14T10:59:07Z</time>
      </trkpt>
      <trkpt lat="49.40287" lon="1.48887">
        <ele>109.71</ele>
        <time>2015-06-14T10:59:16Z</time>
      </trkpt>
      <trkpt lat="49.40282" lon="1.48891">
        <ele>110.95</ele>
        <time>2015-06-14T10:59:19Z</time>
      </trkpt>
      <trkpt lat="49.40259" lon="1.48899">
        <ele>113.95</ele>
        <time>2015-06-14T10:59:29Z</time>
      </trkpt>
      <trkpt lat="49.4024" lon="1.48907">
        <ele>117.03</ele>
        <time>2015-06-14T10:59:40Z</time>
      </trkpt>
      <trkpt lat="49.40221" lon="1.48913">
        <ele>120.31</ele>
        <time>2015-06-14T10:59:54Z</time>
      </trkpt>
      <trkpt lat="49.40219" lon="1.48914">
        <ele>120.68</ele>
        <time>2015-06-14T10:59:55Z</time>
      </trkpt>
      <trkpt lat="49.40218" lon="1.48913">
        <ele>121.42</ele>
        <time>2015-06-14T10:59:57Z</time>
      </trkpt>
      <trkpt lat="49.40217" lon="1.48912">
        <ele>121.52</ele>
        <time>2015-06-14T10:59:58Z</time>
      </trkpt>
      <trkpt lat="49.40217" lon="1.48911">
        <ele>121.66</ele>
        <time>2015-06-14T10:59:59Z</time>
      </trkpt>
      <trkpt lat="49.40216" lon="1.48908">
        <ele>121.75</ele>
        <time>2015-06-14T11:00:00Z</time>
      </trkpt>
      <trkpt lat="49.40216" lon="1.48905">
        <ele>121.79</ele>
        <time>2015-06-14T11:00:01Z</time>
      </trkpt>
      <trkpt lat="49.40216" lon="1.48901">
        <ele>121.83</ele>
        <time>2015-06-14T11:00:02Z</time>
      </trkpt>
      <trkpt lat="49.40217" lon="1.48897">
        <ele>121.8</ele>
        <time>2015-06-14T11:00:03Z</time>
      </trkpt>
      <trkpt lat="49.40216" lon="1.48893">
        <ele>121.7</ele>
        <time>2015-06-14T11:00:04Z</time>
      </trkpt>
      <trkpt lat="49.40215" lon="1.4885">
        <ele>120.86</ele>
        <time>2015-06-14T11:00:12Z</time>
      </trkpt>
      <trkpt lat="49.40212" lon="1.48843">
        <ele>120.51</ele>
        <time>2015-06-14T11:00:13Z</time>
      </trkpt>
      <trkpt lat="49.4019" lon="1.48766">
        <ele>118.63</ele>
        <time>2015-06-14T11:00:22Z</time>
      </trkpt>
      <trkpt lat="49.4016" lon="1.48688">
        <ele>116.29</ele>
        <time>2015-06-14T11:00:30Z</time>
      </trkpt>
      <trkpt lat="49.40135" lon="1.48602">
        <ele>113.97</ele>
        <time>2015-06-14T11:00:37Z</time>
      </trkpt>
      <trkpt lat="49.40121" lon="1.48525">
        <ele>113.86</ele>
        <time>2015-06-14T11:00:43Z</time>
      </trkpt>
      <trkpt lat="49.40106" lon="1.48446">
        <ele>111.8</ele>
        <time>2015-06-14T11:00:49Z</time>
      </trkpt>
      <trkpt lat="49.40096" lon="1.48379">
        <ele>109.47</ele>
        <time>2015-06-14T11:00:54Z</time>
      </trkpt>
      <trkpt lat="49.40092" lon="1.4834">
        <ele>109.15</ele>
        <time>2015-06-14T11:00:57Z</time>
      </trkpt>
      <trkpt lat="49.40093" lon="1.4829">
        <ele>106.26</ele>
        <time>2015-06-14T11:01:01Z</time>
      </trkpt>
      <trkpt lat="49.4011" lon="1.48208">
        <ele>104.23</ele>
        <time>2015-06-14T11:01:08Z</time>
      </trkpt>
      <trkpt lat="49.40116" lon="1.48156">
        <ele>101.07</ele>
        <time>2015-06-14T11:01:12Z</time>
      </trkpt>
      <trkpt lat="49.40116" lon="1.48129">
        <ele>100.28</ele>
        <time>2015-06-14T11:01:14Z</time>
      </trkpt>
      <trkpt lat="49.40103" lon="1.48047">
        <ele>98.42</ele>
        <time>2015-06-14T11:01:20Z</time>
      </trkpt>
      <trkpt lat="49.40095" lon="1.48022">
        <ele>98.49</ele>
        <time>2015-06-14T11:01:22Z</time>
      </trkpt>
      <trkpt lat="49.40089" lon="1.48011">
        <ele>98.29</ele>
        <time>2015-06-14T11:01:23Z</time>
      </trkpt>
      <trkpt lat="49.40083" lon="1.48">
        <ele>98</ele>
        <time>2015-06-14T11:01:24Z</time>
      </trkpt>
      <trkpt lat="49.40044" lon="1.47939">
        <ele>95.74</ele>
        <time>2015-06-14T11:01:30Z</time>
      </trkpt>
      <trkpt lat="49.40014" lon="1.4789">
        <ele>92.29</ele>
        <time>2015-06-14T11:01:35Z</time>
      </trkpt>
      <trkpt lat="49.39974" lon="1.47835">
        <ele>91.43</ele>
        <time>2015-06-14T11:01:42Z</time>
      </trkpt>
      <trkpt lat="49.39965" lon="1.47826">
        <ele>91.19</ele>
        <time>2015-06-14T11:01:44Z</time>
      </trkpt>
      <trkpt lat="49.3996" lon="1.47826">
        <ele>91.03</ele>
        <time>2015-06-14T11:01:45Z</time>
      </trkpt>
      <trkpt lat="49.39955" lon="1.47826">
        <ele>90.94</ele>
        <time>2015-06-14T11:01:46Z</time>
      </trkpt>
      <trkpt lat="49.39951" lon="1.47827">
        <ele>91.08</ele>
        <time>2015-06-14T11:01:47Z</time>
      </trkpt>
      <trkpt lat="49.39948" lon="1.47829">
        <ele>91.23</ele>
        <time>2015-06-14T11:01:48Z</time>
      </trkpt>
      <trkpt lat="49.39944" lon="1.47832">
        <ele>91.64</ele>
        <time>2015-06-14T11:01:49Z</time>
      </trkpt>
      <trkpt lat="49.39917" lon="1.4786">
        <ele>94.77</ele>
        <time>2015-06-14T11:02:02Z</time>
      </trkpt>
      <trkpt lat="49.39915" lon="1.47905">
        <ele>97.36</ele>
        <time>2015-06-14T11:02:16Z</time>
      </trkpt>
      <trkpt lat="49.39921" lon="1.47909">
        <ele>97.33</ele>
        <time>2015-06-14T11:02:19Z</time>
      </trkpt>
      <trkpt lat="49.39923" lon="1.4791">
        <ele>97.36</ele>
        <time>2015-06-14T11:02:20Z</time>
      </trkpt>
      <trkpt lat="49.39925" lon="1.4791">
        <ele>97.27</ele>
        <time>2015-06-14T11:02:21Z</time>
      </trkpt>
      <trkpt lat="49.39928" lon="1.47908">
        <ele>96.96</ele>
        <time>2015-06-14T11:02:23Z</time>
      </trkpt>
      <trkpt lat="49.39929" lon="1.47908">
        <ele>96.89</ele>
        <time>2015-06-14T11:02:24Z</time>
      </trkpt>
      <trkpt lat="49.39928" lon="1.4791">
        <ele>96.62</ele>
        <time>2015-06-14T11:02:36Z</time>
      </trkpt>
      <trkpt lat="49.39926" lon="1.47911">
        <ele>97.12</ele>
        <time>2015-06-14T11:03:04Z</time>
      </trkpt>
      <trkpt lat="49.39927" lon="1.47909">
        <ele>96.95</ele>
        <time>2015-06-14T11:03:45Z</time>
      </trkpt>
      <trkpt lat="49.39933" lon="1.47904">
        <ele>97.14</ele>
        <time>2015-06-14T11:06:13Z</time>
      </trkpt>
      <trkpt lat="49.39935" lon="1.47915">
        <ele>97.28</ele>
        <time>2015-06-14T11:07:09Z</time>
      </trkpt>
      <trkpt lat="49.39931" lon="1.47914">
        <ele>97.17</ele>
        <time>2015-06-14T11:07:26Z</time>
      </trkpt>
      <trkpt lat="49.39933" lon="1.47914">
        <ele>97.23</ele>
        <time>2015-06-14T11:08:28Z</time>
      </trkpt>
      <trkpt lat="49.39921" lon="1.47913">
        <ele>97.25</ele>
        <time>2015-06-14T11:09:48Z</time>
      </trkpt>
      <trkpt lat="49.39926" lon="1.47906">
        <ele>97.16</ele>
        <time>2015-06-14T11:10:41Z</time>
      </trkpt>
      <trkpt lat="49.39924" lon="1.47909">
        <ele>96.89</ele>
        <time>2015-06-14T11:10:47Z</time>
      </trkpt>
      <trkpt lat="49.39921" lon="1.47908">
        <ele>96.93</ele>
        <time>2015-06-14T11:10:50Z</time>
      </trkpt>
      <trkpt lat="49.39919" lon="1.47907">
        <ele>96.99</ele>
        <time>2015-06-14T11:10:51Z</time>
      </trkpt>
      <trkpt lat="49.39918" lon="1.47906">
        <ele>97.01</ele>
        <time>2015-06-14T11:10:52Z</time>
      </trkpt>
      <trkpt lat="49.39918" lon="1.47905">
        <ele>97.08</ele>
        <time>2015-06-14T11:10:53Z</time>
      </trkpt>
      <trkpt lat="49.39916" lon="1.47904">
        <ele>97.13</ele>
        <time>2015-06-14T11:10:54Z</time>
      </trkpt>
      <trkpt lat="49.39912" lon="1.47901">
        <ele>97.16</ele>
        <time>2015-06-14T11:10:57Z</time>
      </trkpt>
      <trkpt lat="49.39911" lon="1.47886">
        <ele>96.88</ele>
        <time>2015-06-14T11:11:01Z</time>
      </trkpt>
      <trkpt lat="49.39913" lon="1.47882">
        <ele>96.74</ele>
        <time>2015-06-14T11:11:02Z</time>
      </trkpt>
      <trkpt lat="49.39916" lon="1.47877">
        <ele>96.63</ele>
        <time>2015-06-14T11:11:03Z</time>
      </trkpt>
      <trkpt lat="49.39919" lon="1.47873">
        <ele>96.58</ele>
        <time>2015-06-14T11:11:04Z</time>
      </trkpt>
      <trkpt lat="49.39923" lon="1.47869">
        <ele>96.36</ele>
        <time>2015-06-14T11:11:05Z</time>
      </trkpt>
      <trkpt lat="49.39928" lon="1.47864">
        <ele>95.91</ele>
        <time>2015-06-14T11:11:06Z</time>
      </trkpt>
      <trkpt lat="49.39932" lon="1.47861">
        <ele>95.37</ele>
        <time>2015-06-14T11:11:07Z</time>
      </trkpt>
      <trkpt lat="49.39936" lon="1.47857">
        <ele>94.88</ele>
        <time>2015-06-14T11:11:08Z</time>
      </trkpt>
      <trkpt lat="49.39941" lon="1.47854">
        <ele>94.39</ele>
        <time>2015-06-14T11:11:09Z</time>
      </trkpt>
      <trkpt lat="49.39964" lon="1.47836">
        <ele>91.15</ele>
        <time>2015-06-14T11:11:17Z</time>
      </trkpt>
      <trkpt lat="49.39961" lon="1.47834">
        <ele>91.63</ele>
        <time>2015-06-14T11:11:21Z</time>
      </trkpt>
    </trkseg>
  </trk>
</gpx>